Darstellungsparameter: Aktuell verwendete Einstellungen:
Skalierung der Graphiken ... ?
xyx+y,   Skalierungsfaktor:      Skalierung: Modus: x, Faktor: 1
Darstellungszeitraum ... ?
Vom - - bis: - -   Zeitraum: 03.11.2019 - 01.12.2019
Min/Max/Avg-Anzeige ... ?
Zeige MMA aktuell
Zeige MMA Monat
Zeige MMA alles
Zeige --A aktuell
Zeige --A Monat
Zeige --A alles
Keine MMA-Anzeige
MMA:
Average (ber die Originaldaten)
MMA-Basis: 03.11.2019 - 01.12.2019
Quicknavigation für Darstellung... ?
Tage:      1T, 2T, 3T, 5T -1T -2T -3T -5T +1T +2T +3T +5T
Wochen: 1W, 2W, 3W -1W -2W -3W +1W +2W +3W
Monate: 1M, 3M, 6M -1M -3M -6M +1M +3M +6M
Jahre:    1J, 3J, 5J, 10J -1J -3J -5J -10J +1J +3J +5J +10J
Nutze für die Darstellung ... ?
Originaldaten oder Mittelwerte auf ...
Stundenbasis Tagesbasis Wochenbasis
Monatsbasis Jahresbasis      Datenbasis: Original-Daten
Darstellen als:
Statistik (Auto) Statistik J:M      Darstellung:
Zur Graphik,    zurück zur Übersicht aller Sensoren.
 
Tabellarische Datenbersicht: ?
 
Sensor: Nr:Datum:Temp:Feuchte:
Aussen-T/F 1 03-11-2019 00:08:17 9.8 C 21 %
2 03-11-2019 00:18:18 9.6 C 25 %
3 03-11-2019 00:28:18 9.6 C 25 %
4 03-11-2019 00:38:17 9.2 C 26 %
5 03-11-2019 00:48:17 9.3 C 26 %
6 03-11-2019 00:58:17 9.3 C 26 %
7 03-11-2019 01:08:17 9.7 C 26 %
8 03-11-2019 01:18:17 9.8 C 25 %
9 03-11-2019 01:28:17 9.9 C 25 %
10 03-11-2019 01:38:17 10 C 25 %
11 03-11-2019 01:48:17 9.7 C 26 %
12 03-11-2019 01:58:17 9.7 C 26 %
13 03-11-2019 02:08:17 9.3 C 27 %
14 03-11-2019 02:18:17 9.3 C 27 %
15 03-11-2019 02:28:17 8.9 C 30 %
16 03-11-2019 02:38:17 9 C 30 %
17 03-11-2019 02:48:17 9.2 C 30 %
18 03-11-2019 02:58:17 9.2 C 30 %
19 03-11-2019 03:08:17 9 C 33 %
20 03-11-2019 03:18:17 9.2 C 31 %
21 03-11-2019 03:28:17 9.2 C 31 %
22 03-11-2019 03:38:17 9.1 C 33 %
23 03-11-2019 03:48:18 9.2 C 35 %
24 03-11-2019 03:58:18 9.3 C 34 %
25 03-11-2019 04:08:17 9.5 C 32 %
Sensor: Nr:Datum:Temp:Feuchte:
Aussen-T/F 26 03-11-2019 04:18:17 9.5 C 33 %
27 03-11-2019 04:28:17 9.4 C 35 %
28 03-11-2019 04:38:17 9.4 C 36 %
29 03-11-2019 04:48:17 9.3 C 36 %
30 03-11-2019 04:58:17 9.3 C 36 %
31 03-11-2019 05:08:18 9.4 C 37 %
32 03-11-2019 05:18:17 9.4 C 36 %
33 03-11-2019 05:28:17 9.4 C 36 %
34 03-11-2019 05:38:17 9.4 C 37 %
35 03-11-2019 05:48:18 9.4 C 37 %
36 03-11-2019 05:58:18 9.5 C 37 %
37 03-11-2019 06:08:17 9.5 C 37 %
38 03-11-2019 06:18:17 9.6 C 37 %
39 03-11-2019 06:28:17 9.7 C 36 %
40 03-11-2019 06:38:17 9.7 C 36 %
41 03-11-2019 06:48:17 9.6 C 36 %
42 03-11-2019 06:58:18 9.7 C 36 %
43 03-11-2019 07:08:17 9.7 C 36 %
44 03-11-2019 07:18:17 9.6 C 36 %
45 03-11-2019 07:28:17 9.5 C 38 %
46 03-11-2019 07:38:17 9.6 C 38 %
47 03-11-2019 07:48:17 9.4 C 37 %
48 03-11-2019 07:58:17 9.3 C 37 %
49 03-11-2019 08:08:17 9.6 C 38 %
50 03-11-2019 08:18:17 9.8 C 38 %
Sensor: Nr:Datum:Temp:Feuchte:
Aussen-T/F 51 03-11-2019 08:28:17 9.9 C 38 %
52 03-11-2019 08:38:17 9.9 C 38 %
53 03-11-2019 08:48:17 10.1 C 37 %
54 03-11-2019 08:58:17 10.4 C 37 %
55 03-11-2019 09:08:17 10.6 C 37 %
56 03-11-2019 09:18:17 10.7 C 37 %
57 03-11-2019 09:28:17 10.8 C 36 %
58 03-11-2019 09:38:17 10.8 C 36 %
59 03-11-2019 09:48:17 11.4 C 34 %
60 03-11-2019 09:58:17 11.8 C 30 %
61 03-11-2019 10:08:17 12.1 C 26 %
62 03-11-2019 10:18:17 12.1 C 26 %
63 03-11-2019 10:28:17 12.4 C 26 %
64 03-11-2019 10:38:18 12.3 C 26 %
65 03-11-2019 10:48:17 12.5 C 25 %
66 03-11-2019 10:58:17 12.6 C 25 %
67 03-11-2019 11:08:17 13.2 C 21 %
68 03-11-2019 11:18:17 14 C 20 %
69 03-11-2019 11:28:17 14 C 20 %
70 03-11-2019 11:38:17 14.3 C 20 %
71 03-11-2019 11:48:17 14.2 C 20 %
72 03-11-2019 11:58:17 14.9 C 20 %
73 03-11-2019 12:08:17 15 C 20 %
74 03-11-2019 12:18:17 15.2 C 20 %
75 03-11-2019 12:28:17 15.4 C 20 %
Sensor: Nr:Datum:Temp:Feuchte:
Aussen-T/F 76 03-11-2019 12:38:17 15.5 C 20 %
77 03-11-2019 12:48:17 16.8 C 20 %
78 03-11-2019 12:58:17 15.8 C 20 %
79 03-11-2019 13:08:17 16.3 C 20 %
80 03-11-2019 13:18:17 16.4 C 20 %
81 03-11-2019 13:28:17 15.6 C 20 %
82 03-11-2019 13:38:17 16 C 20 %
83 03-11-2019 13:48:17 16.4 C 20 %
84 03-11-2019 13:58:17 16.5 C 20 %
85 03-11-2019 14:08:17 16.8 C 20 %
86 03-11-2019 14:18:17 15.8 C 20 %
87 03-11-2019 14:28:17 15.9 C 20 %
88 03-11-2019 14:38:17 15.8 C 20 %
89 03-11-2019 14:48:17 16 C 20 %
90 03-11-2019 14:58:17 15.9 C 20 %
91 03-11-2019 15:08:17 15.6 C 20 %
92 03-11-2019 15:18:17 14.9 C 20 %
93 03-11-2019 15:28:17 14.8 C 20 %
94 03-11-2019 15:38:17 14.6 C 20 %
95 03-11-2019 15:48:17 14.2 C 20 %
96 03-11-2019 15:58:17 14 C 20 %
97 03-11-2019 16:08:17 13.8 C 20 %
98 03-11-2019 16:18:17 13.7 C 20 %
99 03-11-2019 16:28:17 13.5 C 20 %
100 03-11-2019 16:38:17 13.5 C 20 %
Sensor: Nr:Datum:Temp:Feuchte:
Aussen-T/F 101 03-11-2019 16:48:17 12.9 C 25 %
102 03-11-2019 16:58:17 12.8 C 25 %
103 03-11-2019 17:08:18 12.6 C 25 %
104 03-11-2019 17:18:17 12.6 C 25 %
105 03-11-2019 17:28:17 11.9 C 30 %
106 03-11-2019 17:38:17 11.8 C 31 %
107 03-11-2019 17:48:17 11.7 C 33 %
108 03-11-2019 17:58:17 11.7 C 35 %
109 03-11-2019 18:08:17 11.7 C 35 %
110 03-11-2019 18:18:17 11.4 C 37 %
111 03-11-2019 18:28:17 11.5 C 37 %
112 03-11-2019 18:38:18 11.5 C 37 %
113 03-11-2019 18:48:17 11.4 C 37 %
114 03-11-2019 18:58:17 11.3 C 37 %
115 03-11-2019 19:08:17 11.2 C 37 %
116 03-11-2019 19:18:17 11.1 C 37 %
117 03-11-2019 19:28:17 11 C 37 %
118 03-11-2019 19:38:17 10.7 C 37 %
119 03-11-2019 19:48:18 10.5 C 37 %
120 03-11-2019 19:58:18 10.4 C 37 %
121 03-11-2019 20:08:17 10.4 C 37 %
122 03-11-2019 20:18:17 10.4 C 37 %
123 03-11-2019 20:28:17 10.4 C 37 %
124 03-11-2019 20:38:17 10.4 C 37 %
125 03-11-2019 20:48:18 10.4 C 37 %
Sensor: Nr:Datum:Temp:Feuchte:
Aussen-T/F 126 03-11-2019 20:58:18 10.2 C 37 %
127 03-11-2019 21:08:17 10.3 C 37 %
128 03-11-2019 21:18:17 10.3 C 35 %
129 03-11-2019 21:28:17 10.4 C 34 %
130 03-11-2019 21:38:17 10.4 C 32 %
131 03-11-2019 21:48:18 10.4 C 32 %
132 03-11-2019 21:58:18 10.4 C 32 %
133 03-11-2019 22:08:17 10.5 C 31 %
134 03-11-2019 22:18:17 10.3 C 31 %
135 03-11-2019 22:28:17 10.4 C 32 %
136 03-11-2019 22:38:17 10.3 C 34 %
137 03-11-2019 22:48:17 10.1 C 34 %
138 03-11-2019 22:58:17 9.8 C 36 %
139 03-11-2019 23:08:18 10 C 36 %
140 03-11-2019 23:18:17 10.1 C 35 %
141 03-11-2019 23:28:18 10.5 C 32 %
142 03-11-2019 23:38:17 11.1 C 26 %
143 03-11-2019 23:48:17 11.1 C 26 %
144 03-11-2019 23:58:17 11.2 C 26 %
145 04-11-2019 00:08:17 10.7 C 28 %
146 04-11-2019 00:18:17 10.6 C 29 %
147 04-11-2019 00:28:17 10.7 C 25 %
148 04-11-2019 00:38:18 10.8 C 25 %
149 04-11-2019 00:48:17 10.7 C 25 %
150 04-11-2019 00:58:17 10.9 C 25 %
Sensor: Nr:Datum:Temp:Feuchte:
Aussen-T/F 151 04-11-2019 01:08:17 10.7 C 25 %
152 04-11-2019 01:18:17 10.8 C 25 %
153 04-11-2019 01:28:17 10.8 C 25 %
154 04-11-2019 01:38:17 10.2 C 27 %
155 04-11-2019 01:48:17 10 C 29 %
156 04-11-2019 01:58:18 9.7 C 33 %
157 04-11-2019 02:08:17 9.6 C 32 %
158 04-11-2019 02:18:17 8.9 C 35 %
159 04-11-2019 02:28:17 9 C 35 %
160 04-11-2019 02:38:17 9 C 35 %
161 04-11-2019 02:48:18 9.3 C 30 %
162 04-11-2019 02:58:18 9.5 C 29 %
163 04-11-2019 03:08:17 9.8 C 27 %
164 04-11-2019 03:18:17 9.6 C 28 %
165 04-11-2019 03:28:17 9.3 C 31 %
166 04-11-2019 03:38:17 9.3 C 32 %
167 04-11-2019 03:48:17 9.3 C 35 %
168 04-11-2019 03:58:17 9.3 C 35 %
169 04-11-2019 04:08:17 9.3 C 35 %
170 04-11-2019 04:18:17 9.6 C 31 %
171 04-11-2019 04:28:17 9.7 C 33 %
172 04-11-2019 04:38:17 9.5 C 35 %
173 04-11-2019 04:48:17 9.5 C 37 %
174 04-11-2019 04:58:17 9.5 C 36 %
175 04-11-2019 05:08:17 9.5 C 36 %
Sensor: Nr:Datum:Temp:Feuchte:
Aussen-T/F 176 04-11-2019 05:18:17 9.7 C 36 %
177 04-11-2019 05:28:17 10.1 C 30 %
178 04-11-2019 05:38:17 10.1 C 30 %
179 04-11-2019 05:48:17 9.7 C 31 %
180 04-11-2019 05:58:17 9.1 C 32 %
181 04-11-2019 06:08:18 8.9 C 37 %
182 04-11-2019 06:18:17 8.8 C 37 %
183 04-11-2019 06:28:17 8.8 C 36 %
184 04-11-2019 06:38:17 9.1 C 35 %
185 04-11-2019 06:48:18 9 C 35 %
186 04-11-2019 06:58:18 8.6 C 34 %
187 04-11-2019 07:08:17 8.6 C 35 %
188 04-11-2019 07:18:17 8.4 C 32 %
189 04-11-2019 07:28:17 8.4 C 34 %
190 04-11-2019 07:38:17 9 C 30 %
191 04-11-2019 07:48:17 9 C 30 %
192 04-11-2019 07:58:17 8.5 C 31 %
193 04-11-2019 08:08:18 8.7 C 33 %
194 04-11-2019 08:18:17 8.7 C 35 %
195 04-11-2019 08:28:17 8.7 C 35 %
196 04-11-2019 08:38:17 9.4 C 35 %
197 04-11-2019 08:48:17 9.6 C 34 %
198 04-11-2019 08:58:17 9.6 C 33 %
199 04-11-2019 09:08:17 9.5 C 26 %
200 04-11-2019 09:18:17 9.5 C 28 %
Sensor: Nr:Datum:Temp:Feuchte:
Aussen-T/F 201 04-11-2019 09:28:17 9.6 C 28 %
202 04-11-2019 09:38:17 9.7 C 29 %
203 04-11-2019 09:48:17 10 C 26 %
204 04-11-2019 09:58:17 10.5 C 25 %
205 04-11-2019 10:08:17 11.1 C 23 %
206 04-11-2019 10:18:17 11.1 C 22 %
207 04-11-2019 10:28:17 11.1 C 22 %
208 04-11-2019 10:38:17 10.6 C 25 %
209 04-11-2019 10:48:17 10.4 C 26 %
210 04-11-2019 10:58:17 10.4 C 26 %
211 04-11-2019 11:08:17 10.5 C 28 %
212 04-11-2019 11:18:17 10.2 C 29 %
213 04-11-2019 11:28:17 10.4 C 30 %
214 04-11-2019 11:38:17 10.7 C 28 %
215 04-11-2019 11:48:17 10.7 C 26 %
216 04-11-2019 11:58:17 10.9 C 26 %
217 04-11-2019 12:08:17 10.9 C 26 %
218 04-11-2019 12:18:17 10.9 C 26 %
219 04-11-2019 12:28:17 11 C 26 %
220 04-11-2019 12:38:17 10.9 C 26 %
221 04-11-2019 12:48:17 11 C 27 %
222 04-11-2019 12:58:17 11.1 C 25 %
223 04-11-2019 13:08:18 11.4 C 25 %
224 04-11-2019 13:18:17 11.9 C 24 %
225 04-11-2019 13:28:17 12.2 C 21 %
Sensor: Nr:Datum:Temp:Feuchte:
Aussen-T/F 226 04-11-2019 13:38:17 12.1 C 22 %
227 04-11-2019 13:48:17 12.5 C 20 %
228 04-11-2019 13:58:17 12.3 C 20 %
229 04-11-2019 14:08:17 12.1 C 20 %
230 04-11-2019 14:18:17 12.2 C 20 %
231 04-11-2019 14:28:17 12.7 C 20 %
232 04-11-2019 14:38:17 13.1 C 20 %
233 04-11-2019 14:48:17 13.8 C 20 %
234 04-11-2019 14:58:17 12.8 C 20 %
235 04-11-2019 15:08:17 13.7 C 20 %
236 04-11-2019 15:18:17 13.4 C 20 %
237 04-11-2019 15:28:17 12.9 C 20 %
238 04-11-2019 15:38:17 13.7 C 20 %
239 04-11-2019 15:48:18 14.2 C 20 %
240 04-11-2019 15:58:18 13.6 C 20 %
241 04-11-2019 16:08:17 12 C 20 %
242 04-11-2019 16:18:17 11.5 C 20 %
243 04-11-2019 16:28:17 11.1 C 20 %
244 04-11-2019 16:38:17 10.4 C 25 %
245 04-11-2019 16:48:17 10 C 26 %
246 04-11-2019 16:58:17 10.1 C 28 %
247 04-11-2019 17:08:17 9.8 C 27 %
248 04-11-2019 17:18:17 9.9 C 28 %
249 04-11-2019 17:28:17 9.8 C 28 %
250 04-11-2019 17:38:17 9.8 C 29 %
Sensor: Nr:Datum:Temp:Feuchte:
Aussen-T/F 251 04-11-2019 17:48:18 9.6 C 30 %
252 04-11-2019 17:58:18 9.5 C 31 %
253 04-11-2019 18:08:17 9.1 C 31 %
254 04-11-2019 18:18:17 9 C 32 %
255 04-11-2019 18:28:17 8.5 C 35 %
256 04-11-2019 18:38:17 8.4 C 35 %
257 04-11-2019 18:48:17 8.2 C 38 %
258 04-11-2019 18:58:17 8.4 C 38 %
259 04-11-2019 19:08:17 8.6 C 35 %
260 04-11-2019 19:18:17 8.6 C 35 %
261 04-11-2019 19:28:17 8.2 C 35 %
262 04-11-2019 19:38:17 8.2 C 35 %
263 04-11-2019 19:48:18 8.4 C 37 %
264 04-11-2019 19:58:18 8.4 C 37 %
265 04-11-2019 20:08:17 8.9 C 36 %
266 04-11-2019 20:18:17 9.1 C 35 %
267 04-11-2019 20:28:17 9 C 37 %
268 04-11-2019 20:38:17 9.1 C 38 %
269 04-11-2019 20:48:17 9.1 C 39 %
270 04-11-2019 20:58:17 8.9 C 39 %
271 04-11-2019 21:08:18 8.7 C 39 %
272 04-11-2019 21:18:17 8.6 C 39 %
273 04-11-2019 21:28:17 8.4 C 39 %
274 04-11-2019 21:38:17 8.2 C 38 %
275 04-11-2019 21:48:17 7.7 C 39 %
Sensor: Nr:Datum:Temp:Feuchte:
Aussen-T/F 276 04-11-2019 21:58:17 7.5 C 39 %
277 04-11-2019 22:08:17 7.5 C 39 %
278 04-11-2019 22:18:17 7.2 C 39 %
279 04-11-2019 22:28:17 7.3 C 39 %
280 04-11-2019 22:38:17 7.5 C 40 %
281 04-11-2019 22:48:17 7.5 C 39 %
282 04-11-2019 22:58:17 7.9 C 40 %
283 04-11-2019 23:08:17 8.1 C 39 %
284 04-11-2019 23:18:17 8.4 C 39 %
285 04-11-2019 23:28:17 8.5 C 38 %
286 04-11-2019 23:38:17 9 C 35 %
287 04-11-2019 23:48:17 9.5 C 27 %
288 04-11-2019 23:58:17 9.5 C 26 %
289 05-11-2019 00:08:17 9.2 C 27 %
290 05-11-2019 00:18:17 9 C 27 %
291 05-11-2019 00:28:17 9 C 27 %
292 05-11-2019 00:38:18 8.8 C 29 %
293 05-11-2019 00:48:17 9.1 C 27 %
294 05-11-2019 00:58:17 9.1 C 26 %
295 05-11-2019 01:08:17 9.1 C 26 %
296 05-11-2019 01:18:17 8.7 C 27 %
297 05-11-2019 01:28:17 9 C 26 %
298 05-11-2019 01:38:17 8.7 C 27 %
299 05-11-2019 01:48:17 8.7 C 28 %
300 05-11-2019 01:58:17 9 C 27 %
Sensor: Nr:Datum:Temp:Feuchte:
Aussen-T/F 301 05-11-2019 02:08:17 8.8 C 28 %
302 05-11-2019 02:18:17 8.7 C 28 %
303 05-11-2019 02:28:17 8.5 C 31 %
304 05-11-2019 02:38:17 8.5 C 32 %
305 05-11-2019 02:48:17 8.9 C 27 %
306 05-11-2019 02:58:17 8.8 C 28 %
307 05-11-2019 03:08:17 8.7 C 28 %
308 05-11-2019 03:18:17 9.1 C 26 %
309 05-11-2019 03:28:17 9 C 25 %
310 05-11-2019 03:38:17 8.8 C 27 %
311 05-11-2019 03:48:17 9 C 25 %
312 05-11-2019 03:58:17 8.8 C 26 %
313 05-11-2019 04:08:18 9.2 C 25 %
314 05-11-2019 04:18:17 9 C 25 %
315 05-11-2019 04:28:17 9.3 C 23 %
316 05-11-2019 04:38:17 9.3 C 23 %
317 05-11-2019 04:48:17 9 C 25 %
318 05-11-2019 04:58:17 9.2 C 25 %
319 05-11-2019 05:08:17 9.1 C 25 %
320 05-11-2019 05:18:17 9.4 C 21 %
321 05-11-2019 05:28:17 8.7 C 26 %
322 05-11-2019 05:38:17 8.7 C 27 %
323 05-11-2019 05:48:17 8.7 C 26 %
324 05-11-2019 05:58:17 8.6 C 27 %
325 05-11-2019 06:08:17 8.5 C 27 %
Sensor: Nr:Datum:Temp:Feuchte:
Aussen-T/F 326 05-11-2019 06:18:17 8.7 C 26 %
327 05-11-2019 06:28:17 8.8 C 26 %
328 05-11-2019 06:38:17 8.8 C 26 %
329 05-11-2019 06:48:17 8.7 C 27 %
330 05-11-2019 06:58:17 9 C 25 %
331 05-11-2019 07:08:18 9.2 C 25 %
332 05-11-2019 07:18:17 9 C 25 %
333 05-11-2019 07:28:17 8.7 C 26 %
334 05-11-2019 07:38:17 8.2 C 27 %
335 05-11-2019 07:48:17 8.2 C 27 %
336 05-11-2019 07:58:17 7.9 C 30 %
337 05-11-2019 08:08:17 8.2 C 28 %
338 05-11-2019 08:18:17 8.4 C 28 %
339 05-11-2019 08:28:17 8.8 C 26 %
340 05-11-2019 08:38:18 8.5 C 26 %
341 05-11-2019 08:48:17 9 C 25 %
342 05-11-2019 08:58:17 9 C 25 %
343 05-11-2019 09:08:17 8.7 C 26 %
344 05-11-2019 09:18:17 9.1 C 21 %
345 05-11-2019 09:28:17 8.7 C 26 %
346 05-11-2019 09:38:17 9.2 C 25 %
347 05-11-2019 09:48:18 9.8 C 20 %
348 05-11-2019 09:58:18 10.4 C 20 %
349 05-11-2019 10:08:17 10.6 C 20 %
350 05-11-2019 10:18:17 10.3 C 20 %
Sensor: Nr:Datum:Temp:Feuchte:
Aussen-T/F 351 05-11-2019 10:28:17 10.6 C 20 %
352 05-11-2019 10:38:17 10.6 C 20 %
353 05-11-2019 10:48:18 10.7 C 20 %
354 05-11-2019 10:58:18 10.6 C 20 %
355 05-11-2019 11:08:17 10.5 C 20 %
356 05-11-2019 11:18:17 11 C 20 %
357 05-11-2019 11:28:17 11.7 C 20 %
358 05-11-2019 11:38:17 11.7 C 20 %
359 05-11-2019 11:48:17 11.7 C 20 %
360 05-11-2019 11:58:17 11.6 C 20 %
361 05-11-2019 12:08:18 11.7 C 20 %
362 05-11-2019 12:18:17 11.8 C 20 %
363 05-11-2019 12:28:17 12.2 C 20 %
364 05-11-2019 12:38:17 12.1 C 20 %
365 05-11-2019 12:48:17 11.5 C 20 %
366 05-11-2019 12:58:17 11.7 C 20 %
367 05-11-2019 13:08:17 11.8 C 20 %
368 05-11-2019 13:18:17 11.7 C 20 %
369 05-11-2019 13:28:17 12.5 C 20 %
370 05-11-2019 13:38:17 12.2 C 20 %
371 05-11-2019 13:48:17 12.3 C 20 %
372 05-11-2019 13:58:17 12.3 C 20 %
373 05-11-2019 14:08:17 12.4 C 20 %
374 05-11-2019 14:18:17 12.2 C 20 %
375 05-11-2019 14:28:17 12 C 20 %
Sensor: Nr:Datum:Temp:Feuchte:
Aussen-T/F 376 05-11-2019 14:38:17 11.9 C 20 %
377 05-11-2019 14:48:17 12.1 C 20 %
378 05-11-2019 14:58:17 12.2 C 20 %
379 05-11-2019 15:08:17 12.1 C 20 %
380 05-11-2019 15:18:17 11.3 C 20 %
381 05-11-2019 15:28:17 10.8 C 20 %
382 05-11-2019 15:38:17 11 C 20 %
383 05-11-2019 15:48:17 11 C 20 %
384 05-11-2019 15:58:17 11.1 C 20 %
385 05-11-2019 16:08:17 11 C 20 %
386 05-11-2019 16:18:17 9.8 C 25 %
387 05-11-2019 16:28:17 9.4 C 25 %
388 05-11-2019 16:38:17 9.5 C 25 %
389 05-11-2019 16:48:17 9.5 C 25 %
390 05-11-2019 16:58:17 9.2 C 29 %
391 05-11-2019 17:08:17 9.3 C 29 %
392 05-11-2019 17:18:17 9.3 C 30 %
393 05-11-2019 17:28:17 9 C 31 %
394 05-11-2019 17:38:17 8.8 C 32 %
395 05-11-2019 17:48:17 8.4 C 35 %
396 05-11-2019 17:58:17 8.5 C 32 %
397 05-11-2019 18:08:18 8.4 C 33 %
398 05-11-2019 18:18:17 8.5 C 34 %
399 05-11-2019 18:28:17 7.9 C 34 %
400 05-11-2019 18:38:17 7.8 C 35 %
Sensor: Nr:Datum:Temp:Feuchte:
Aussen-T/F 401 05-11-2019 18:48:17 7.8 C 36 %
402 05-11-2019 18:58:17 7.7 C 36 %
403 05-11-2019 19:08:18 7.6 C 37 %
404 05-11-2019 19:18:17 7.6 C 37 %
405 05-11-2019 19:28:17 7.7 C 37 %
406 05-11-2019 19:38:17 7.8 C 38 %
407 05-11-2019 19:48:17 8 C 37 %
408 05-11-2019 19:58:17 8.1 C 36 %
409 05-11-2019 20:08:18 7.7 C 35 %
410 05-11-2019 20:18:17 7.9 C 36 %
411 05-11-2019 20:28:17 7.9 C 35 %
412 05-11-2019 20:38:17 7.5 C 35 %
413 05-11-2019 20:48:17 7.1 C 35 %
414 05-11-2019 20:58:17 7.1 C 37 %
415 05-11-2019 21:08:18 7.1 C 38 %
416 05-11-2019 21:18:17 7.3 C 39 %
417 05-11-2019 21:28:17 7.3 C 38 %
418 05-11-2019 21:38:17 7.2 C 38 %
419 05-11-2019 21:48:17 7.3 C 38 %
420 05-11-2019 21:58:17 7.2 C 38 %
421 05-11-2019 22:08:18 7.2 C 38 %
422 05-11-2019 22:18:17 7.2 C 38 %
423 05-11-2019 22:28:18 7.3 C 38 %
424 05-11-2019 22:38:17 7.4 C 38 %
425 05-11-2019 22:48:17 7.4 C 38 %
Sensor: Nr:Datum:Temp:Feuchte:
Aussen-T/F 426 05-11-2019 22:58:17 7.4 C 38 %
427 05-11-2019 23:08:17 7.4 C 38 %
428 05-11-2019 23:18:17 7.4 C 38 %
429 05-11-2019 23:28:17 7.3 C 37 %
430 05-11-2019 23:38:17 7.3 C 38 %
431 05-11-2019 23:48:17 7.5 C 38 %
432 05-11-2019 23:58:17 7.9 C 37 %
433 06-11-2019 00:08:17 7.8 C 36 %
434 06-11-2019 00:18:17 7.7 C 36 %
435 06-11-2019 00:28:17 7.6 C 36 %
436 06-11-2019 00:38:17 7.8 C 37 %
437 06-11-2019 00:48:17 7.8 C 37 %
438 06-11-2019 00:58:17 7.9 C 36 %
439 06-11-2019 01:08:17 7.9 C 35 %
440 06-11-2019 01:18:17 8 C 35 %
441 06-11-2019 01:28:17 7.6 C 35 %
442 06-11-2019 01:38:17 7.3 C 37 %
443 06-11-2019 01:48:17 7.4 C 38 %
444 06-11-2019 01:58:17 7.3 C 38 %
445 06-11-2019 02:08:17 7.5 C 39 %
446 06-11-2019 02:18:17 7.7 C 39 %
447 06-11-2019 02:28:17 7.6 C 39 %
448 06-11-2019 02:38:17 7.6 C 39 %
449 06-11-2019 02:48:17 7.6 C 39 %
450 06-11-2019 02:58:17 7.5 C 39 %
Sensor: Nr:Datum:Temp:Feuchte:
Aussen-T/F 451 06-11-2019 03:08:18 7.1 C 37 %
452 06-11-2019 03:18:18 6.9 C 39 %
453 06-11-2019 03:28:18 6.9 C 40 %
454 06-11-2019 03:38:17 6.6 C 39 %
455 06-11-2019 03:48:17 6.5 C 39 %
456 06-11-2019 03:58:17 6.4 C 39 %
457 06-11-2019 04:08:17 6.7 C 40 %
458 06-11-2019 04:18:17 6.8 C 40 %
459 06-11-2019 04:28:17 7 C 39 %
460 06-11-2019 04:38:17 6.8 C 39 %
461 06-11-2019 04:48:17 6.9 C 39 %
462 06-11-2019 04:58:17 6.6 C 39 %
463 06-11-2019 05:08:17 6.7 C 39 %
464 06-11-2019 05:18:17 6.8 C 39 %
465 06-11-2019 05:28:17 6.8 C 39 %
466 06-11-2019 05:38:17 6.8 C 39 %
467 06-11-2019 05:48:18 6.8 C 39 %
468 06-11-2019 05:58:18 6.9 C 39 %
469 06-11-2019 06:08:17 7.1 C 39 %
470 06-11-2019 06:18:17 7.1 C 39 %
471 06-11-2019 06:28:17 7.3 C 38 %
472 06-11-2019 06:38:18 7.3 C 37 %
473 06-11-2019 06:48:17 7.3 C 37 %
474 06-11-2019 06:58:17 7.2 C 36 %
475 06-11-2019 07:08:17 7.1 C 36 %
Sensor: Nr:Datum:Temp:Feuchte:
Aussen-T/F 476 06-11-2019 07:18:17 7.1 C 36 %
477 06-11-2019 07:28:17 6.8 C 37 %
478 06-11-2019 07:38:17 6.8 C 38 %
479 06-11-2019 07:48:17 6.9 C 38 %
480 06-11-2019 07:58:17 7 C 38 %
481 06-11-2019 08:08:17 7.1 C 38 %
482 06-11-2019 08:18:17 7.3 C 38 %
483 06-11-2019 08:28:17 7.4 C 38 %
484 06-11-2019 08:38:18 7.8 C 38 %
485 06-11-2019 08:48:17 8 C 36 %
486 06-11-2019 08:58:17 8.1 C 35 %
487 06-11-2019 09:08:17 8.4 C 31 %
488 06-11-2019 09:18:17 8.4 C 31 %
489 06-11-2019 09:28:17 8.6 C 30 %
490 06-11-2019 09:38:17 8.8 C 29 %
491 06-11-2019 09:48:17 9 C 27 %
492 06-11-2019 09:58:17 9.2 C 26 %
493 06-11-2019 10:08:17 9.3 C 25 %
494 06-11-2019 10:18:17 9.6 C 25 %
495 06-11-2019 10:28:17 9.6 C 25 %
496 06-11-2019 10:38:18 9.5 C 25 %
497 06-11-2019 10:48:17 9.5 C 25 %
498 06-11-2019 10:58:17 9.4 C 25 %
499 06-11-2019 11:08:17 9.4 C 25 %
500 06-11-2019 11:18:17 9.5 C 26 %
Sensor: Nr:Datum:Temp:Feuchte:
Aussen-T/F 501 06-11-2019 11:28:17 9.4 C 26 %
502 06-11-2019 11:38:17 9.5 C 27 %
503 06-11-2019 11:48:17 9.5 C 27 %
504 06-11-2019 11:58:17 9.7 C 27 %
505 06-11-2019 12:08:17 9.9 C 26 %
506 06-11-2019 12:18:17 9.7 C 26 %
507 06-11-2019 12:28:17 9.6 C 27 %
508 06-11-2019 12:38:17 9.7 C 27 %
509 06-11-2019 12:48:17 10 C 25 %
510 06-11-2019 12:58:17 10.2 C 25 %
511 06-11-2019 13:08:18 10.3 C 25 %
512 06-11-2019 13:18:17 10.5 C 23 %
513 06-11-2019 13:28:17 10.2 C 23 %
514 06-11-2019 13:38:17 10.3 C 23 %
515 06-11-2019 13:48:17 10.3 C 23 %
516 06-11-2019 13:58:17 10.1 C 25 %
517 06-11-2019 14:08:18 9.8 C 25 %
518 06-11-2019 14:18:17 9.6 C 26 %
519 06-11-2019 14:28:17 9.5 C 28 %
520 06-11-2019 14:38:17 9.6 C 27 %
521 06-11-2019 14:48:17 9.6 C 28 %
522 06-11-2019 14:58:17 9.4 C 28 %
523 06-11-2019 15:08:18 9.6 C 28 %
524 06-11-2019 15:18:17 9.5 C 30 %
525 06-11-2019 15:28:17 9.4 C 31 %
Sensor: Nr:Datum:Temp:Feuchte:
Aussen-T/F 526 06-11-2019 15:38:17 9.3 C 32 %
527 06-11-2019 15:48:17 9.2 C 32 %
528 06-11-2019 15:58:17 9.2 C 35 %
529 06-11-2019 16:08:18 9.2 C 35 %
530 06-11-2019 16:18:17 9.1 C 35 %
531 06-11-2019 16:28:17 9.1 C 36 %
532 06-11-2019 16:38:17 9 C 36 %
533 06-11-2019 16:48:17 8.9 C 37 %
534 06-11-2019 16:58:17 8.9 C 37 %
535 06-11-2019 17:08:17 8.9 C 38 %
536 06-11-2019 17:18:17 8.7 C 38 %
537 06-11-2019 17:28:17 8.8 C 38 %
538 06-11-2019 17:38:17 8.8 C 39 %
539 06-11-2019 17:48:18 8.7 C 39 %
540 06-11-2019 17:58:18 8.8 C 39 %
541 06-11-2019 18:08:17 8.8 C 39 %
542 06-11-2019 18:18:17 8.8 C 39 %
543 06-11-2019 18:28:17 8.8 C 39 %
544 06-11-2019 18:38:17 8.8 C 39 %
545 06-11-2019 18:48:17 8.8 C 39 %
546 06-11-2019 18:58:17 8.8 C 39 %
547 06-11-2019 19:08:17 8.7 C 39 %
548 06-11-2019 19:18:17 8.7 C 38 %
549 06-11-2019 19:28:17 8.6 C 38 %
550 06-11-2019 19:38:17 8.6 C 38 %
Sensor: Nr:Datum:Temp:Feuchte:
Aussen-T/F 551 06-11-2019 19:48:18 8.6 C 38 %
552 06-11-2019 19:58:18 8.5 C 38 %
553 06-11-2019 20:08:17 8.4 C 38 %
554 06-11-2019 20:18:17 8.4 C 38 %
555 06-11-2019 20:28:17 8.4 C 38 %
556 06-11-2019 20:38:17 8.3 C 38 %
557 06-11-2019 20:48:17 8.2 C 38 %
558 06-11-2019 20:58:17 8.3 C 38 %
559 06-11-2019 21:08:17 8.3 C 38 %
560 06-11-2019 21:18:17 8.3 C 38 %
561 06-11-2019 21:28:17 8.3 C 38 %
562 06-11-2019 21:38:17 8.3 C 38 %
563 06-11-2019 21:48:18 8.2 C 38 %
564 06-11-2019 21:58:18 8.2 C 38 %
565 06-11-2019 22:08:17 8.2 C 38 %
566 06-11-2019 22:18:17 8.3 C 38 %
567 06-11-2019 22:28:17 8.2 C 38 %
568 06-11-2019 22:38:17 8.2 C 38 %
569 06-11-2019 22:48:17 8.2 C 38 %
570 06-11-2019 22:58:18 8.2 C 38 %
571 06-11-2019 23:08:17 8.2 C 38 %
572 06-11-2019 23:18:17 8.1 C 38 %
573 06-11-2019 23:28:17 8.2 C 38 %
574 06-11-2019 23:38:17 8.2 C 38 %
575 06-11-2019 23:48:17 8.2 C 38 %
Sensor: Nr:Datum:Temp:Feuchte:
Aussen-T/F 576 06-11-2019 23:58:17 8 C 38 %
577 07-11-2019 00:08:17 7.9 C 39 %
578 07-11-2019 00:18:17 7.8 C 39 %
579 07-11-2019 00:28:17 7.8 C 39 %
580 07-11-2019 00:38:17 7.6 C 39 %
581 07-11-2019 00:48:17 7.6 C 39 %
582 07-11-2019 00:58:17 7.6 C 39 %
583 07-11-2019 01:08:17 7.5 C 39 %
584 07-11-2019 01:18:17 7.4 C 39 %
585 07-11-2019 01:28:17 7.3 C 39 %
586 07-11-2019 01:38:17 7.3 C 39 %
587 07-11-2019 01:48:18 7.2 C 39 %
588 07-11-2019 01:58:18 7.3 C 39 %
589 07-11-2019 02:08:17 7.3 C 39 %
590 07-11-2019 02:18:17 7.4 C 39 %
591 07-11-2019 02:28:17 7.4 C 39 %
592 07-11-2019 02:38:17 7.4 C 39 %
593 07-11-2019 02:48:17 7.4 C 39 %
594 07-11-2019 02:58:17 7.5 C 38 %
595 07-11-2019 03:08:17 7.4 C 38 %
596 07-11-2019 03:18:17 7.2 C 38 %
597 07-11-2019 03:28:17 7.1 C 38 %
598 07-11-2019 03:38:17 6.9 C 39 %
599 07-11-2019 03:48:17 6.9 C 39 %
600 07-11-2019 03:58:18 6.8 C 39 %
Sensor: Nr:Datum:Temp:Feuchte:
Aussen-T/F 601 07-11-2019 04:08:17 6.7 C 39 %
602 07-11-2019 04:18:17 6.9 C 39 %
603 07-11-2019 04:28:17 6.8 C 39 %
604 07-11-2019 04:38:17 6.9 C 39 %
605 07-11-2019 04:48:17 6.8 C 39 %
606 07-11-2019 04:58:17 7 C 38 %
607 07-11-2019 05:08:17 7 C 38 %
608 07-11-2019 05:18:17 6.8 C 39 %
609 07-11-2019 05:28:17 6.7 C 39 %
610 07-11-2019 05:38:17 6.7 C 39 %
611 07-11-2019 05:48:17 6.7 C 39 %
612 07-11-2019 05:58:17 6.7 C 39 %
613 07-11-2019 06:08:17 6.7 C 39 %
614 07-11-2019 06:18:17 6.7 C 39 %
615 07-11-2019 06:28:17 6.7 C 39 %
616 07-11-2019 06:38:17 6.7 C 39 %
617 07-11-2019 06:48:17 6.7 C 39 %
618 07-11-2019 06:58:17 6.8 C 39 %
619 07-11-2019 07:08:18 6.8 C 39 %
620 07-11-2019 07:18:17 6.9 C 39 %
621 07-11-2019 07:28:17 6.9 C 39 %
622 07-11-2019 07:38:17 6.9 C 39 %
623 07-11-2019 07:48:17 7.1 C 38 %
624 07-11-2019 07:58:17 7.3 C 38 %
625 07-11-2019 08:08:17 7.5 C 38 %
Sensor: Nr:Datum:Temp:Feuchte:
Aussen-T/F 626 07-11-2019 08:18:17 7.6 C 38 %
627 07-11-2019 08:28:17 7.6 C 38 %
628 07-11-2019 08:38:18 7.8 C 38 %
629 07-11-2019 08:48:17 7.9 C 38 %
630 07-11-2019 08:58:17 8.1 C 37 %
631 07-11-2019 09:08:17 8 C 37 %
632 07-11-2019 09:18:17 8.2 C 36 %
633 07-11-2019 09:28:17 8.5 C 36 %
634 07-11-2019 09:38:17 8.5 C 36 %
635 07-11-2019 09:48:17 8.5 C 36 %
636 07-11-2019 09:58:17 8.5 C 36 %
637 07-11-2019 10:08:17 9.1 C 35 %
638 07-11-2019 10:18:17 9.4 C 36 %
639 07-11-2019 10:28:17 9.5 C 36 %
640 07-11-2019 10:38:17 9.7 C 35 %
641 07-11-2019 10:48:18 9.3 C 28 %
642 07-11-2019 10:58:18 9.3 C 29 %
643 07-11-2019 11:08:17 9.4 C 29 %
644 07-11-2019 11:18:17 9.2 C 29 %
645 07-11-2019 11:28:17 9.2 C 30 %
646 07-11-2019 11:38:17 9 C 29 %
647 07-11-2019 11:48:18 8.9 C 29 %
648 07-11-2019 11:58:18 8.7 C 28 %
649 07-11-2019 12:08:17 8.7 C 33 %
650 07-11-2019 12:18:17 8.9 C 34 %
Sensor: Nr:Datum:Temp:Feuchte:
Aussen-T/F 651 07-11-2019 12:28:17 8.9 C 34 %
652 07-11-2019 12:38:17 8.6 C 28 %
653 07-11-2019 12:48:17 8.9 C 26 %
654 07-11-2019 12:58:17 8.9 C 25 %
655 07-11-2019 13:08:17 9.7 C 25 %
656 07-11-2019 13:18:17 9.5 C 23 %
657 07-11-2019 13:28:17 9.4 C 26 %
658 07-11-2019 13:38:17 10.2 C 21 %
659 07-11-2019 13:48:17 9.8 C 20 %
660 07-11-2019 13:58:17 9.2 C 21 %
661 07-11-2019 14:08:17 8.9 C 25 %
662 07-11-2019 14:18:17 8.8 C 25 %
663 07-11-2019 14:28:17 8.8 C 25 %
664 07-11-2019 14:38:17 9.3 C 25 %
665 07-11-2019 14:48:18 9.7 C 23 %
666 07-11-2019 14:58:18 9.9 C 21 %
667 07-11-2019 15:08:17 9.6 C 21 %
668 07-11-2019 15:18:17 9.8 C 21 %
669 07-11-2019 15:28:17 10.1 C 20 %
670 07-11-2019 15:38:17 9.7 C 25 %
671 07-11-2019 15:48:17 9.3 C 29 %
672 07-11-2019 15:58:17 9.5 C 23 %
673 07-11-2019 16:08:17 9.7 C 20 %
674 07-11-2019 16:18:17 9.6 C 20 %
675 07-11-2019 16:28:17 9.3 C 20 %
Sensor: Nr:Datum:Temp:Feuchte:
Aussen-T/F 676 07-11-2019 16:38:18 9.1 C 20 %
677 07-11-2019 16:48:17 9 C 20 %
678 07-11-2019 16:58:17 8.8 C 20 %
679 07-11-2019 17:08:17 8.4 C 20 %
680 07-11-2019 17:18:17 7.1 C 30 %
681 07-11-2019 17:28:18 8.2 C 20 %
682 07-11-2019 17:38:17 8 C 20 %
683 07-11-2019 17:48:17 7.8 C 20 %
684 07-11-2019 17:58:17 7.1 C 23 %
685 07-11-2019 18:08:17 6.6 C 27 %
686 07-11-2019 18:18:17 6 C 30 %
687 07-11-2019 18:28:17 5.6 C 36 %
688 07-11-2019 18:38:17 5.5 C 38 %
689 07-11-2019 18:48:18 5.6 C 38 %
690 07-11-2019 18:58:18 5.6 C 38 %
691 07-11-2019 19:08:17 6 C 40 %
692 07-11-2019 19:18:17 6.4 C 39 %
693 07-11-2019 19:28:17 6.1 C 33 %
694 07-11-2019 19:38:17 5.8 C 34 %
695 07-11-2019 19:48:18 5.3 C 35 %
696 07-11-2019 19:58:18 5.1 C 36 %
697 07-11-2019 20:08:17 5.1 C 36 %
698 07-11-2019 20:18:17 5.6 C 40 %
699 07-11-2019 20:28:17 5.5 C 38 %
700 07-11-2019 20:38:17 5.3 C 36 %
Sensor: Nr:Datum:Temp:Feuchte:
Aussen-T/F 701 07-11-2019 20:48:17 5.2 C 36 %
702 07-11-2019 20:58:17 4.9 C 37 %
703 07-11-2019 21:08:17 4.5 C 38 %
704 07-11-2019 21:18:17 4.5 C 39 %
705 07-11-2019 21:28:17 4.5 C 39 %
706 07-11-2019 21:38:18 4.5 C 39 %
707 07-11-2019 21:48:17 4.8 C 40 %
708 07-11-2019 21:58:17 4.5 C 38 %
709 07-11-2019 22:08:17 4.5 C 38 %
710 07-11-2019 22:18:17 4 C 38 %
711 07-11-2019 22:28:17 3.6 C 40 %
712 07-11-2019 22:38:17 3.5 C 40 %
713 07-11-2019 22:48:17 3.3 C 40 %
714 07-11-2019 22:58:17 3.7 C 41 %
715 07-11-2019 23:08:18 4.1 C 40 %
716 07-11-2019 23:18:17 4.5 C 40 %
717 07-11-2019 23:28:18 4.5 C 37 %
718 07-11-2019 23:38:17 4.5 C 35 %
719 07-11-2019 23:48:17 4.3 C 35 %
720 07-11-2019 23:58:17 4.1 C 35 %
721 08-11-2019 00:08:17 3.9 C 37 %
722 08-11-2019 00:18:17 3.7 C 38 %
723 08-11-2019 00:28:17 3.7 C 39 %
724 08-11-2019 00:38:17 3.5 C 40 %
725 08-11-2019 00:48:18 3.3 C 40 %
Sensor: Nr:Datum:Temp:Feuchte:
Aussen-T/F 726 08-11-2019 00:58:18 3.2 C 40 %
727 08-11-2019 01:08:17 3.3 C 41 %
728 08-11-2019 01:18:17 3.3 C 41 %
729 08-11-2019 01:28:17 3.2 C 40 %
730 08-11-2019 01:38:17 3.1 C 40 %
731 08-11-2019 01:48:18 2.9 C 40 %
732 08-11-2019 01:58:18 2.4 C 40 %
733 08-11-2019 02:08:17 2 C 40 %
734 08-11-2019 02:18:17 2 C 40 %
735 08-11-2019 02:28:17 1.9 C 42 %
736 08-11-2019 02:38:17 2.1 C 41 %
737 08-11-2019 02:48:18 1.8 C 42 %
738 08-11-2019 02:58:18 1.8 C 42 %
739 08-11-2019 03:08:17 2 C 41 %
740 08-11-2019 03:18:17 2 C 41 %
741 08-11-2019 03:28:17 1.8 C 42 %
742 08-11-2019 03:38:17 2.3 C 41 %
743 08-11-2019 03:48:18 2.1 C 41 %
744 08-11-2019 03:58:18 1.7 C 41 %
745 08-11-2019 04:08:17 1.7 C 41 %
746 08-11-2019 04:18:17 1.4 C 41 %
747 08-11-2019 04:28:17 1.4 C 41 %
748 08-11-2019 04:38:17 1.2 C 41 %
749 08-11-2019 04:48:17 1.2 C 41 %
750 08-11-2019 04:58:17 1.3 C 41 %
Sensor: Nr:Datum:Temp:Feuchte:
Aussen-T/F 751 08-11-2019 05:08:17 1.2 C 41 %
752 08-11-2019 05:18:17 1.2 C 41 %
753 08-11-2019 05:28:17 1.1 C 41 %
754 08-11-2019 05:38:17 1.1 C 41 %
755 08-11-2019 05:48:17 1.3 C 41 %
756 08-11-2019 05:58:17 1.3 C 41 %
757 08-11-2019 06:08:17 1.4 C 41 %
758 08-11-2019 06:18:17 1.4 C 41 %
759 08-11-2019 06:28:17 1.4 C 41 %
760 08-11-2019 06:38:18 1.3 C 41 %
761 08-11-2019 06:48:17 1.2 C 41 %
762 08-11-2019 06:58:17 1.1 C 41 %
763 08-11-2019 07:08:17 1.2 C 41 %
764 08-11-2019 07:18:17 1.5 C 41 %
765 08-11-2019 07:28:17 1.3 C 41 %
766 08-11-2019 07:38:17 1.2 C 41 %
767 08-11-2019 07:48:18 1.3 C 41 %
768 08-11-2019 07:58:18 1.8 C 41 %
769 08-11-2019 08:08:17 2.1 C 41 %
770 08-11-2019 08:18:17 2.3 C 41 %
771 08-11-2019 08:28:17 2.6 C 41 %
772 08-11-2019 08:38:17 2.9 C 41 %
773 08-11-2019 08:48:18 3.1 C 40 %
774 08-11-2019 08:58:18 3.1 C 40 %
775 08-11-2019 09:08:17 3.3 C 40 %
Sensor: Nr:Datum:Temp:Feuchte:
Aussen-T/F 776 08-11-2019 09:18:18 3 C 40 %
777 08-11-2019 09:28:18 3.3 C 40 %
778 08-11-2019 09:38:17 3.3 C 40 %
779 08-11-2019 09:48:17 3.5 C 40 %
780 08-11-2019 09:58:17 3.7 C 40 %
781 08-11-2019 10:08:17 3.8 C 40 %
782 08-11-2019 10:18:17 4.1 C 39 %
783 08-11-2019 10:28:17 4.6 C 39 %
784 08-11-2019 10:38:17 4.6 C 39 %
785 08-11-2019 10:48:18 5.1 C 37 %
786 08-11-2019 10:58:18 4.9 C 37 %
787 08-11-2019 11:08:17 5.1 C 37 %
788 08-11-2019 11:18:17 5.4 C 35 %
789 08-11-2019 11:28:17 5.3 C 33 %
790 08-11-2019 11:38:17 5.6 C 35 %
791 08-11-2019 11:48:18 5.6 C 34 %
792 08-11-2019 11:58:18 5.7 C 34 %
793 08-11-2019 12:08:17 5.7 C 32 %
794 08-11-2019 12:18:17 6 C 32 %
795 08-11-2019 12:28:17 6.4 C 32 %
796 08-11-2019 12:38:17 6.4 C 31 %
797 08-11-2019 12:48:18 6.5 C 28 %
798 08-11-2019 12:58:18 6.8 C 30 %
799 08-11-2019 13:08:17 7 C 28 %
800 08-11-2019 13:18:17 7.3 C 30 %
Sensor: Nr:Datum:Temp:Feuchte:
Aussen-T/F 801 08-11-2019 13:28:17 6.9 C 27 %
802 08-11-2019 13:38:17 7.1 C 28 %
803 08-11-2019 13:48:17 7.3 C 26 %
804 08-11-2019 13:58:17 7.5 C 27 %
805 08-11-2019 14:08:18 7.5 C 26 %
806 08-11-2019 14:18:17 7.7 C 27 %
807 08-11-2019 14:28:17 7.6 C 27 %
808 08-11-2019 14:38:17 7.6 C 27 %
809 08-11-2019 14:48:17 7.5 C 27 %
810 08-11-2019 14:58:17 7.5 C 29 %
811 08-11-2019 15:08:17 7.5 C 30 %
812 08-11-2019 15:18:17 7.4 C 30 %
813 08-11-2019 15:28:17 7.4 C 31 %
814 08-11-2019 15:38:17 7.3 C 30 %
815 08-11-2019 15:48:17 7.2 C 31 %
816 08-11-2019 15:58:17 7.1 C 32 %
817 08-11-2019 16:08:18 7.1 C 31 %
818 08-11-2019 16:18:17 6.8 C 33 %
819 08-11-2019 16:28:17 6.6 C 34 %
820 08-11-2019 16:38:17 6.4 C 35 %
821 08-11-2019 16:48:17 6.3 C 36 %
822 08-11-2019 16:58:17 6.2 C 36 %
823 08-11-2019 17:08:18 6.1 C 36 %
824 08-11-2019 17:18:17 6 C 36 %
825 08-11-2019 17:28:17 5.9 C 36 %
Sensor: Nr:Datum:Temp:Feuchte:
Aussen-T/F 826 08-11-2019 17:38:17 5.9 C 36 %
827 08-11-2019 17:48:17 5.9 C 36 %
828 08-11-2019 17:58:17 5.8 C 38 %
829 08-11-2019 18:08:17 5.8 C 39 %
830 08-11-2019 18:18:17 5.8 C 39 %
831 08-11-2019 18:28:17 5.8 C 40 %
832 08-11-2019 18:38:17 5.8 C 40 %
833 08-11-2019 18:48:17 5.8 C 40 %
834 08-11-2019 18:58:17 5.7 C 40 %
835 08-11-2019 19:08:18 5.8 C 40 %
836 08-11-2019 19:18:17 5.6 C 39 %
837 08-11-2019 19:28:17 5.6 C 39 %
838 08-11-2019 19:38:17 5.3 C 39 %
839 08-11-2019 19:48:17 5.4 C 40 %
840 08-11-2019 19:58:17 5.4 C 40 %
841 08-11-2019 20:08:18 5.4 C 40 %
842 08-11-2019 20:18:17 5.4 C 40 %
843 08-11-2019 20:28:17 5.3 C 40 %
844 08-11-2019 20:38:17 5.4 C 40 %
845 08-11-2019 20:48:17 5.3 C 40 %
846 08-11-2019 20:58:17 5.1 C 39 %
847 08-11-2019 21:08:17 4.8 C 39 %
848 08-11-2019 21:18:18 4.5 C 40 %
849 08-11-2019 21:28:18 4.3 C 40 %
850 08-11-2019 21:38:17 4.5 C 40 %
Sensor: Nr:Datum:Temp:Feuchte:
Aussen-T/F 851 08-11-2019 21:48:17 4.5 C 40 %
852 08-11-2019 21:58:17 4.5 C 40 %
853 08-11-2019 22:08:17 4.3 C 40 %
854 08-11-2019 22:19:17 4.4 C 40 %
855 08-11-2019 22:28:17 4.6 C 40 %
856 08-11-2019 22:38:17 4.7 C 40 %
857 08-11-2019 22:49:17 4.7 C 40 %
858 08-11-2019 22:59:17 4.8 C 40 %
859 08-11-2019 23:08:18 4.6 C 40 %
860 08-11-2019 23:18:17 4.6 C 40 %
861 08-11-2019 23:28:18 4.7 C 40 %
862 08-11-2019 23:38:17 4.7 C 40 %
863 08-11-2019 23:49:17 4.6 C 40 %
864 08-11-2019 23:59:17 4.6 C 40 %
865 09-11-2019 00:09:17 4.6 C 40 %
866 09-11-2019 00:19:17 4.5 C 40 %
867 09-11-2019 00:29:17 4.5 C 40 %
868 09-11-2019 00:39:17 4.5 C 40 %
869 09-11-2019 00:48:17 4.5 C 40 %
870 09-11-2019 00:58:17 4.5 C 40 %
871 09-11-2019 01:08:17 4.4 C 40 %
872 09-11-2019 01:18:17 4.4 C 40 %
873 09-11-2019 01:28:17 4.3 C 40 %
874 09-11-2019 01:38:17 4.3 C 39 %
875 09-11-2019 01:49:17 4.2 C 39 %
Sensor: Nr:Datum:Temp:Feuchte:
Aussen-T/F 876 09-11-2019 01:59:17 4.2 C 39 %
877 09-11-2019 02:09:18 4.3 C 39 %
878 09-11-2019 02:19:17 4.3 C 39 %
879 09-11-2019 02:29:17 4.3 C 38 %
880 09-11-2019 02:39:17 4.3 C 38 %
881 09-11-2019 02:49:17 4.3 C 38 %
882 09-11-2019 02:59:17 4.3 C 38 %
883 09-11-2019 03:09:18 4.3 C 38 %
884 09-11-2019 03:19:17 4.3 C 38 %
885 09-11-2019 03:29:17 4.4 C 38 %
886 09-11-2019 03:39:17 4.5 C 38 %
887 09-11-2019 03:49:17 4.5 C 37 %
888 09-11-2019 03:59:17 4.6 C 37 %
889 09-11-2019 04:09:18 4.6 C 37 %
890 09-11-2019 04:19:17 4.5 C 37 %
891 09-11-2019 04:29:17 4.5 C 37 %
892 09-11-2019 04:39:17 3.6 C 39 %
893 09-11-2019 04:49:17 3.5 C 40 %
894 09-11-2019 04:59:17 3.6 C 40 %
895 09-11-2019 05:09:17 4 C 40 %
896 09-11-2019 05:19:17 4.2 C 39 %
897 09-11-2019 05:29:17 4.5 C 36 %
898 09-11-2019 05:39:17 4.5 C 36 %
899 09-11-2019 05:49:17 4.6 C 36 %
900 09-11-2019 05:59:17 4.4 C 33 %
Sensor: Nr:Datum:Temp:Feuchte:
Aussen-T/F 901 09-11-2019 06:09:17 4.1 C 31 %
902 09-11-2019 06:19:17 3.9 C 31 %
903 09-11-2019 06:29:17 3.8 C 30 %
904 09-11-2019 06:39:17 3.6 C 31 %
905 09-11-2019 06:49:17 3.5 C 31 %
906 09-11-2019 06:59:17 3.2 C 32 %
907 09-11-2019 07:09:17 2.8 C 35 %
908 09-11-2019 07:19:17 2.8 C 36 %
909 09-11-2019 07:29:17 2.8 C 37 %
910 09-11-2019 07:39:17 2.6 C 38 %
911 09-11-2019 07:49:18 2.3 C 39 %
912 09-11-2019 07:59:18 2.3 C 40 %
913 09-11-2019 08:09:17 2.1 C 40 %
914 09-11-2019 08:19:17 2.2 C 40 %
915 09-11-2019 08:29:17 2.4 C 41 %
916 09-11-2019 08:39:17 2.7 C 41 %
917 09-11-2019 08:49:18 2.8 C 41 %
918 09-11-2019 08:59:18 3.6 C 41 %
919 09-11-2019 09:09:17 3.7 C 40 %
920 09-11-2019 09:19:17 4 C 37 %
921 09-11-2019 09:29:17 4.7 C 32 %
922 09-11-2019 09:39:17 4.8 C 28 %
923 09-11-2019 09:49:18 5 C 26 %
924 09-11-2019 09:59:18 5 C 25 %
925 09-11-2019 10:09:17 5.2 C 25 %
Sensor: Nr:Datum:Temp:Feuchte:
Aussen-T/F 926 09-11-2019 10:19:17 5.2 C 25 %
927 09-11-2019 10:29:17 6 C 25 %
928 09-11-2019 10:39:17 5.8 C 23 %
929 09-11-2019 10:49:17 5.5 C 23 %
930 09-11-2019 10:59:17 5.7 C 25 %
931 09-11-2019 11:09:17 5.4 C 25 %
932 09-11-2019 11:19:17 5.3 C 23 %
933 09-11-2019 11:29:17 5.5 C 23 %
934 09-11-2019 11:39:17 5.5 C 23 %
935 09-11-2019 11:49:18 5.6 C 23 %
936 09-11-2019 11:59:18 5.6 C 23 %
937 09-11-2019 12:09:17 5.6 C 23 %
938 09-11-2019 12:19:17 5.8 C 23 %
939 09-11-2019 12:29:17 6 C 23 %
940 09-11-2019 12:39:17 6.5 C 20 %
941 09-11-2019 12:49:18 6.5 C 20 %
942 09-11-2019 12:59:18 6.8 C 20 %
943 09-11-2019 13:09:17 6.5 C 20 %
944 09-11-2019 13:19:17 6.8 C 20 %
945 09-11-2019 13:29:17 6.9 C 20 %
946 09-11-2019 13:39:17 7.2 C 20 %
947 09-11-2019 13:49:17 6.9 C 20 %
948 09-11-2019 13:59:17 6.6 C 20 %
949 09-11-2019 14:09:17 6.6 C 20 %
950 09-11-2019 14:19:17 6.6 C 20 %
Sensor: Nr:Datum:Temp:Feuchte:
Aussen-T/F 951 09-11-2019 14:29:17 6.5 C 20 %
952 09-11-2019 14:39:17 6.5 C 20 %
953 09-11-2019 14:49:17 6.5 C 20 %
954 09-11-2019 14:59:17 6.5 C 21 %
955 09-11-2019 15:09:17 6.2 C 23 %
956 09-11-2019 15:19:17 5.7 C 26 %
957 09-11-2019 15:29:17 5.6 C 29 %
958 09-11-2019 15:39:17 5.6 C 30 %
959 09-11-2019 15:49:17 5.6 C 30 %
960 09-11-2019 15:59:17 5.7 C 29 %
961 09-11-2019 16:09:18 6 C 27 %
962 09-11-2019 16:19:17 5.9 C 29 %
963 09-11-2019 16:29:17 5.8 C 29 %
964 09-11-2019 16:39:17 5.7 C 30 %
965 09-11-2019 16:49:17 5.6 C 31 %
966 09-11-2019 16:59:17 5.6 C 30 %
967 09-11-2019 17:09:17 5.7 C 30 %
968 09-11-2019 17:19:17 5.7 C 30 %
969 09-11-2019 17:29:17 5.4 C 30 %
970 09-11-2019 17:39:17 5.2 C 30 %
971 09-11-2019 17:49:18 5 C 31 %
972 09-11-2019 17:59:18 5.1 C 30 %
973 09-11-2019 18:09:17 5.1 C 29 %
974 09-11-2019 18:19:17 4.7 C 30 %
975 09-11-2019 18:29:17 4.3 C 35 %
Sensor: Nr:Datum:Temp:Feuchte:
Aussen-T/F 976 09-11-2019 18:39:17 4.1 C 36 %
977 09-11-2019 18:49:17 3.8 C 38 %
978 09-11-2019 18:59:17 3.6 C 39 %
979 09-11-2019 19:09:17 4.3 C 39 %
980 09-11-2019 19:19:17 4.7 C 32 %
981 09-11-2019 19:29:17 4.7 C 29 %
982 09-11-2019 19:39:17 4.6 C 28 %
983 09-11-2019 19:49:17 4.3 C 30 %
984 09-11-2019 19:59:17 3.9 C 30 %
985 09-11-2019 20:09:18 3.4 C 31 %
986 09-11-2019 20:19:17 2.5 C 33 %
987 09-11-2019 20:29:17 2.5 C 37 %
988 09-11-2019 20:39:17 2.7 C 39 %
989 09-11-2019 20:49:17 2.5 C 39 %
990 09-11-2019 20:59:17 2.4 C 40 %
991 09-11-2019 21:09:17 2.4 C 40 %
992 09-11-2019 21:19:17 2.4 C 40 %
993 09-11-2019 21:29:17 2.1 C 40 %
994 09-11-2019 21:39:17 2.1 C 40 %
995 09-11-2019 21:49:17 2.2 C 41 %
996 09-11-2019 21:59:17 2 C 41 %
997 09-11-2019 22:09:17 1.6 C 41 %
998 09-11-2019 22:19:17 1.2 C 41 %
999 09-11-2019 22:29:17 1.3 C 42 %
1000 09-11-2019 22:39:17 1.5 C 42 %
Sensor: Nr:Datum:Temp:Feuchte:
Aussen-T/F 1001 09-11-2019 22:49:18 1.4 C 42 %
1002 09-11-2019 22:59:18 1.2 C 42 %
1003 09-11-2019 23:09:17 1 C 41 %
1004 09-11-2019 23:19:17 0.7 C 43 %
1005 09-11-2019 23:29:17 0.6 C 43 %
1006 09-11-2019 23:39:17 0.7 C 43 %
1007 09-11-2019 23:49:17 0.7 C 43 %
1008 09-11-2019 23:59:17 0.2 C 43 %
1009 10-11-2019 00:09:18 0.1 C 43 %
1010 10-11-2019 00:19:17 -0.1 C 43 %
1011 10-11-2019 00:29:17 -0.1 C 42 %
1012 10-11-2019 00:39:17 -0.1 C 43 %
1013 10-11-2019 00:49:17 0.1 C 43 %
1014 10-11-2019 00:59:17 0 C 43 %
1015 10-11-2019 01:09:17 0.4 C 43 %
1016 10-11-2019 01:19:17 0.8 C 43 %
1017 10-11-2019 01:29:17 0.9 C 43 %
1018 10-11-2019 01:39:17 1 C 42 %
1019 10-11-2019 01:49:17 1 C 42 %
1020 10-11-2019 01:59:17 0.8 C 43 %
1021 10-11-2019 02:09:18 1 C 42 %
1022 10-11-2019 02:19:17 0.7 C 43 %
1023 10-11-2019 02:29:17 0.6 C 43 %
1024 10-11-2019 02:39:17 0.7 C 43 %
1025 10-11-2019 02:49:17 0.8 C 43 %
Sensor: Nr:Datum:Temp:Feuchte:
Aussen-T/F 1026 10-11-2019 02:59:17 0.8 C 43 %
1027 10-11-2019 03:09:17 0.6 C 43 %
1028 10-11-2019 03:19:17 0.5 C 43 %
1029 10-11-2019 03:29:17 0.6 C 43 %
1030 10-11-2019 03:39:17 0.5 C 43 %
1031 10-11-2019 03:49:17 0.6 C 43 %
1032 10-11-2019 03:59:18 0.5 C 43 %
1033 10-11-2019 04:09:17 0.4 C 43 %
1034 10-11-2019 04:19:17 0.3 C 42 %
1035 10-11-2019 04:29:17 0.4 C 42 %
1036 10-11-2019 04:39:17 0.4 C 42 %
1037 10-11-2019 04:49:18 0.3 C 42 %
1038 10-11-2019 04:59:18 0.5 C 42 %
1039 10-11-2019 05:09:17 0.5 C 43 %
1040 10-11-2019 05:19:17 0.8 C 43 %
1041 10-11-2019 05:29:17 0.9 C 43 %
1042 10-11-2019 05:39:17 0.9 C 43 %
1043 10-11-2019 05:49:17 0.9 C 43 %
1044 10-11-2019 05:59:17 0.9 C 43 %
1045 10-11-2019 06:09:17 0.9 C 43 %
1046 10-11-2019 06:19:17 1.1 C 41 %
1047 10-11-2019 06:29:17 0.8 C 42 %
1048 10-11-2019 06:39:17 0.9 C 42 %
1049 10-11-2019 06:49:17 0.9 C 42 %
1050 10-11-2019 06:59:17 0.9 C 42 %
Sensor: Nr:Datum:Temp:Feuchte:
Aussen-T/F 1051 10-11-2019 07:09:17 0.9 C 42 %
1052 10-11-2019 07:19:18 0.9 C 43 %
1053 10-11-2019 07:29:18 0.9 C 42 %
1054 10-11-2019 07:39:17 0.9 C 42 %
1055 10-11-2019 07:49:17 0.9 C 42 %
1056 10-11-2019 07:59:17 1 C 41 %
1057 10-11-2019 08:09:17 1.1 C 41 %
1058 10-11-2019 08:19:17 1.2 C 42 %
1059 10-11-2019 08:29:17 1.3 C 41 %
1060 10-11-2019 08:39:17 1.3 C 42 %
1061 10-11-2019 08:49:17 1.4 C 41 %
1062 10-11-2019 08:59:17 1.6 C 41 %
1063 10-11-2019 09:09:18 1.6 C 41 %
1064 10-11-2019 09:19:17 1.8 C 41 %
1065 10-11-2019 09:29:18 1.7 C 41 %
1066 10-11-2019 09:39:17 2 C 40 %
1067 10-11-2019 09:49:17 2.1 C 40 %
1068 10-11-2019 09:59:17 2.3 C 39 %
1069 10-11-2019 10:09:17 2.3 C 38 %
1070 10-11-2019 10:19:17 2.4 C 38 %
1071 10-11-2019 10:29:17 2.4 C 36 %
1072 10-11-2019 10:39:18 2.8 C 36 %
1073 10-11-2019 10:49:17 3.1 C 35 %
1074 10-11-2019 10:59:17 2.8 C 32 %
1075 10-11-2019 11:09:17 3.2 C 33 %
Sensor: Nr:Datum:Temp:Feuchte:
Aussen-T/F 1076 10-11-2019 11:19:17 3.4 C 33 %
1077 10-11-2019 11:29:17 3.5 C 33 %
1078 10-11-2019 11:39:17 3.7 C 33 %
1079 10-11-2019 11:49:17 3.6 C 30 %
1080 10-11-2019 11:59:17 3.5 C 30 %
1081 10-11-2019 12:09:17 3.4 C 30 %
1082 10-11-2019 12:19:17 3.6 C 30 %
1083 10-11-2019 12:29:17 3.6 C 28 %
1084 10-11-2019 12:39:17 3.5 C 27 %
1085 10-11-2019 12:49:17 3.6 C 26 %
1086 10-11-2019 12:59:17 3.6 C 26 %
1087 10-11-2019 13:09:17 3.6 C 26 %
1088 10-11-2019 13:19:17 3.8 C 26 %
1089 10-11-2019 13:29:17 4.1 C 26 %
1090 10-11-2019 13:39:17 4.1 C 25 %
1091 10-11-2019 13:49:17 4.2 C 25 %
1092 10-11-2019 13:59:17 4.1 C 25 %
1093 10-11-2019 14:09:17 4.2 C 25 %
1094 10-11-2019 14:19:17 4.1 C 25 %
1095 10-11-2019 14:29:17 4.3 C 25 %
1096 10-11-2019 14:39:17 4.4 C 25 %
1097 10-11-2019 14:49:17 4.4 C 23 %
1098 10-11-2019 14:59:17 4.5 C 23 %
1099 10-11-2019 15:09:18 4.5 C 23 %
1100 10-11-2019 15:19:17 4.5 C 25 %
Sensor: Nr:Datum:Temp:Feuchte:
Aussen-T/F 1101 10-11-2019 15:29:17 4.5 C 25 %
1102 10-11-2019 15:39:17 4.5 C 25 %
1103 10-11-2019 15:49:17 4.3 C 25 %
1104 10-11-2019 15:59:17 4.3 C 26 %
1105 10-11-2019 16:09:17 4.2 C 25 %
1106 10-11-2019 16:19:17 4.1 C 26 %
1107 10-11-2019 16:29:17 4.1 C 26 %
1108 10-11-2019 16:39:17 4 C 27 %
1109 10-11-2019 16:49:18 3.9 C 28 %
1110 10-11-2019 16:59:18 3.8 C 28 %
1111 10-11-2019 17:09:17 3.7 C 29 %
1112 10-11-2019 17:19:17 3.7 C 29 %
1113 10-11-2019 17:29:17 3.7 C 30 %
1114 10-11-2019 17:39:17 3.7 C 30 %
1115 10-11-2019 17:49:18 3.7 C 30 %
1116 10-11-2019 17:59:18 3.6 C 30 %
1117 10-11-2019 18:09:17 3.7 C 30 %
1118 10-11-2019 18:19:17 3.7 C 30 %
1119 10-11-2019 18:29:17 3.6 C 30 %
1120 10-11-2019 18:39:17 3.6 C 30 %
1121 10-11-2019 18:49:18 3.6 C 30 %
1122 10-11-2019 18:59:18 3.5 C 31 %
1123 10-11-2019 19:09:17 3.5 C 31 %
1124 10-11-2019 19:19:17 3.4 C 31 %
1125 10-11-2019 19:29:17 3.4 C 32 %
Sensor: Nr:Datum:Temp:Feuchte:
Aussen-T/F 1126 10-11-2019 19:39:17 3.4 C 32 %
1127 10-11-2019 19:49:17 3.4 C 32 %
1128 10-11-2019 19:59:17 3.4 C 33 %
1129 10-11-2019 20:09:17 3.5 C 34 %
1130 10-11-2019 20:19:17 3.6 C 34 %
1131 10-11-2019 20:29:17 3.6 C 33 %
1132 10-11-2019 20:39:17 3.6 C 33 %
1133 10-11-2019 20:49:17 3.7 C 34 %
1134 10-11-2019 20:59:17 3.7 C 34 %
1135 10-11-2019 21:09:18 3.7 C 34 %
1136 10-11-2019 21:19:17 3.7 C 32 %
1137 10-11-2019 21:29:17 3.7 C 32 %
1138 10-11-2019 21:39:17 3.6 C 32 %
1139 10-11-2019 21:49:17 3.6 C 33 %
1140 10-11-2019 21:59:17 3.6 C 33 %
1141 10-11-2019 22:09:17 3.6 C 32 %
1142 10-11-2019 22:19:17 3.6 C 33 %
1143 10-11-2019 22:29:17 3.7 C 34 %
1144 10-11-2019 22:39:17 3.7 C 35 %
1145 10-11-2019 22:49:17 3.8 C 32 %
1146 10-11-2019 22:59:17 3.9 C 31 %
1147 10-11-2019 23:09:17 3.9 C 31 %
1148 10-11-2019 23:19:17 3.8 C 30 %
1149 10-11-2019 23:29:17 3.8 C 29 %
1150 10-11-2019 23:39:17 3.8 C 30 %
Sensor: Nr:Datum:Temp:Feuchte:
Aussen-T/F 1151 10-11-2019 23:49:17 3.8 C 29 %
1152 10-11-2019 23:59:17 3.8 C 29 %
1153 11-11-2019 00:09:17 3.8 C 28 %
1154 11-11-2019 00:19:17 3.7 C 27 %
1155 11-11-2019 00:29:17 3.6 C 27 %
1156 11-11-2019 00:39:17 3.5 C 28 %
1157 11-11-2019 00:49:17 3.5 C 27 %
1158 11-11-2019 00:59:17 3.4 C 27 %
1159 11-11-2019 01:09:17 3.2 C 27 %
1160 11-11-2019 01:19:17 3.2 C 27 %
1161 11-11-2019 01:29:17 3.1 C 28 %
1162 11-11-2019 01:39:17 3.1 C 28 %
1163 11-11-2019 01:49:17 3 C 28 %
1164 11-11-2019 01:59:17 3 C 28 %
1165 11-11-2019 02:09:17 3.1 C 28 %
1166 11-11-2019 02:19:17 3 C 29 %
1167 11-11-2019 02:29:17 3 C 28 %
1168 11-11-2019 02:39:17 3.1 C 28 %
1169 11-11-2019 02:49:17 2.8 C 28 %
1170 11-11-2019 02:59:17 2.8 C 29 %
1171 11-11-2019 03:09:17 2.7 C 30 %
1172 11-11-2019 03:19:17 2.7 C 29 %
1173 11-11-2019 03:29:17 2.7 C 29 %
1174 11-11-2019 03:39:17 2.6 C 29 %
1175 11-11-2019 03:49:17 2.5 C 28 %
Sensor: Nr:Datum:Temp:Feuchte:
Aussen-T/F 1176 11-11-2019 03:59:17 2.5 C 28 %
1177 11-11-2019 04:09:17 2.4 C 29 %
1178 11-11-2019 04:19:17 2.4 C 30 %
1179 11-11-2019 04:29:17 2.4 C 30 %
1180 11-11-2019 04:39:17 2.4 C 30 %
1181 11-11-2019 04:49:17 2.5 C 30 %
1182 11-11-2019 04:59:17 2.5 C 30 %
1183 11-11-2019 05:09:17 2.6 C 30 %
1184 11-11-2019 05:19:17 2.6 C 30 %
1185 11-11-2019 05:29:17 2.6 C 30 %
1186 11-11-2019 05:39:17 2.6 C 30 %
1187 11-11-2019 05:49:17 2.7 C 30 %
1188 11-11-2019 05:59:17 2.6 C 30 %
1189 11-11-2019 06:09:17 2.7 C 29 %
1190 11-11-2019 06:19:17 2.7 C 29 %
1191 11-11-2019 06:29:17 2.6 C 30 %
1192 11-11-2019 06:39:17 2.7 C 30 %
1193 11-11-2019 06:49:17 2.7 C 30 %
1194 11-11-2019 06:59:17 2.7 C 31 %
1195 11-11-2019 07:09:17 2.7 C 31 %
1196 11-11-2019 07:19:18 2.7 C 31 %
1197 11-11-2019 07:29:18 2.8 C 31 %
1198 11-11-2019 07:39:17 2.9 C 32 %
1199 11-11-2019 07:49:17 3 C 31 %
1200 11-11-2019 07:59:17 3.2 C 30 %
Sensor: Nr:Datum:Temp:Feuchte:
Aussen-T/F 1201 11-11-2019 08:09:17 3.5 C 26 %
1202 11-11-2019 08:19:17 3.7 C 25 %
1203 11-11-2019 08:29:17 3.9 C 25 %
1204 11-11-2019 08:39:17 4.2 C 21 %
1205 11-11-2019 08:49:17 4.4 C 20 %
1206 11-11-2019 08:59:17 4.7 C 20 %
1207 11-11-2019 09:09:17 4.7 C 20 %
1208 11-11-2019 09:19:17 4.5 C 20 %
1209 11-11-2019 09:29:17 4.9 C 20 %
1210 11-11-2019 09:39:17 5.2 C 20 %
1211 11-11-2019 09:49:17 5.4 C 20 %
1212 11-11-2019 09:59:17 5.2 C 20 %
1213 11-11-2019 10:09:17 5.2 C 20 %
1214 11-11-2019 10:19:17 5.2 C 20 %
1215 11-11-2019 10:29:17 5 C 20 %
1216 11-11-2019 10:39:17 5.1 C 20 %
1217 11-11-2019 10:49:17 4.8 C 20 %
1218 11-11-2019 10:59:17 5.3 C 20 %
1219 11-11-2019 11:09:17 5.2 C 20 %
1220 11-11-2019 11:19:17 5.6 C 20 %
1221 11-11-2019 11:29:17 5.9 C 20 %
1222 11-11-2019 11:39:17 5.9 C 20 %
1223 11-11-2019 11:49:17 6 C 20 %
1224 11-11-2019 11:59:17 5.8 C 20 %
1225 11-11-2019 12:09:17 6.4 C 20 %
Sensor: Nr:Datum:Temp:Feuchte:
Aussen-T/F 1226 11-11-2019 12:19:17 6.2 C 20 %
1227 11-11-2019 12:29:17 6.4 C 20 %
1228 11-11-2019 12:39:17 6.5 C 20 %
1229 11-11-2019 12:49:17 6.5 C 20 %
1230 11-11-2019 12:59:17 7.1 C 20 %
1231 11-11-2019 13:09:17 7.2 C 20 %
1232 11-11-2019 13:19:17 7.2 C 20 %
1233 11-11-2019 13:29:17 6.5 C 20 %
1234 11-11-2019 13:39:17 6.7 C 20 %
1235 11-11-2019 13:49:17 6.5 C 20 %
1236 11-11-2019 13:59:17 6.4 C 20 %
1237 11-11-2019 14:09:17 6.2 C 20 %
1238 11-11-2019 14:19:17 6.2 C 20 %
1239 11-11-2019 14:29:17 6.3 C 20 %
1240 11-11-2019 14:39:17 5.8 C 20 %
1241 11-11-2019 14:49:17 5.4 C 20 %
1242 11-11-2019 14:59:17 5.3 C 20 %
1243 11-11-2019 15:09:17 5.5 C 20 %
1244 11-11-2019 15:19:17 5.5 C 20 %
1245 11-11-2019 15:29:17 5.3 C 20 %
1246 11-11-2019 15:39:17 5.1 C 20 %
1247 11-11-2019 15:49:17 4.9 C 20 %
1248 11-11-2019 15:59:17 4.8 C 20 %
1249 11-11-2019 16:09:17 4.7 C 21 %
1250 11-11-2019 16:19:17 4.7 C 20 %
Sensor: Nr:Datum:Temp:Feuchte:
Aussen-T/F 1251 11-11-2019 16:29:17 4.6 C 23 %
1252 11-11-2019 16:39:17 4.6 C 23 %
1253 11-11-2019 16:49:17 4.6 C 23 %
1254 11-11-2019 16:59:17 4.5 C 23 %
1255 11-11-2019 17:09:17 4.5 C 21 %
1256 11-11-2019 17:19:17 4.5 C 23 %
1257 11-11-2019 17:29:17 4.4 C 23 %
1258 11-11-2019 17:39:17 4.3 C 23 %
1259 11-11-2019 17:49:17 4.1 C 25 %
1260 11-11-2019 17:59:17 4.1 C 25 %
1261 11-11-2019 18:09:17 3.9 C 26 %
1262 11-11-2019 18:19:17 4 C 25 %
1263 11-11-2019 18:29:17 4.1 C 25 %
1264 11-11-2019 18:39:17 4 C 26 %
1265 11-11-2019 18:49:17 3.9 C 30 %
1266 11-11-2019 18:59:17 3.9 C 31 %
1267 11-11-2019 19:09:17 3.9 C 35 %
1268 11-11-2019 19:19:17 3.8 C 36 %
1269 11-11-2019 19:29:17 3.9 C 39 %
1270 11-11-2019 19:39:17 3.9 C 40 %
1271 11-11-2019 19:49:17 3.8 C 40 %
1272 11-11-2019 19:59:17 3.8 C 41 %
1273 11-11-2019 20:09:17 3.8 C 41 %
1274 11-11-2019 20:19:17 3.8 C 41 %
1275 11-11-2019 20:29:17 3.8 C 40 %
Sensor: Nr:Datum:Temp:Feuchte:
Aussen-T/F 1276 11-11-2019 20:39:18 3.9 C 40 %
1277 11-11-2019 20:49:17 3.9 C 40 %
1278 11-11-2019 20:59:17 4 C 39 %
1279 11-11-2019 21:09:17 4.1 C 39 %
1280 11-11-2019 21:19:17 4.2 C 37 %
1281 11-11-2019 21:29:17 4.2 C 37 %
1282 11-11-2019 21:39:17 4.3 C 37 %
1283 11-11-2019 21:49:17 4.4 C 36 %
1284 11-11-2019 21:59:17 4.4 C 36 %
1285 11-11-2019 22:09:17 4.4 C 36 %
1286 11-11-2019 22:19:17 4.4 C 36 %
1287 11-11-2019 22:29:17 4.3 C 35 %
1288 11-11-2019 22:39:17 4.4 C 37 %
1289 11-11-2019 22:49:17 4.4 C 38 %
1290 11-11-2019 22:59:17 4.4 C 39 %
1291 11-11-2019 23:09:17 4.5 C 39 %
1292 11-11-2019 23:19:17 4.5 C 39 %
1293 11-11-2019 23:29:17 4.5 C 39 %
1294 11-11-2019 23:39:17 4.5 C 39 %
1295 11-11-2019 23:49:17 4.5 C 38 %
1296 11-11-2019 23:59:17 4.2 C 38 %
1297 12-11-2019 00:09:17 4.3 C 40 %
1298 12-11-2019 00:19:17 4.4 C 40 %
1299 12-11-2019 00:29:17 4.3 C 40 %
1300 12-11-2019 00:39:17 4.5 C 39 %
Sensor: Nr:Datum:Temp:Feuchte:
Aussen-T/F 1301 12-11-2019 00:49:17 3.8 C 38 %
1302 12-11-2019 00:59:17 4 C 40 %
1303 12-11-2019 01:09:17 4.5 C 37 %
1304 12-11-2019 01:19:17 4.8 C 35 %
1305 12-11-2019 01:29:17 4.7 C 32 %
1306 12-11-2019 01:39:17 5 C 28 %
1307 12-11-2019 01:49:17 4.9 C 28 %
1308 12-11-2019 01:59:17 5 C 27 %
1309 12-11-2019 02:09:17 5.2 C 25 %
1310 12-11-2019 02:19:17 4.9 C 30 %
1311 12-11-2019 02:29:17 4.7 C 31 %
1312 12-11-2019 02:39:17 4.7 C 32 %
1313 12-11-2019 02:49:17 5.1 C 26 %
1314 12-11-2019 02:59:17 5 C 28 %
1315 12-11-2019 03:09:17 5.1 C 26 %
1316 12-11-2019 03:19:17 5 C 26 %
1317 12-11-2019 03:29:17 4.8 C 28 %
1318 12-11-2019 03:39:17 4.9 C 27 %
1319 12-11-2019 03:49:17 4.8 C 27 %
1320 12-11-2019 03:59:17 4.8 C 28 %
1321 12-11-2019 04:09:17 4.8 C 29 %
1322 12-11-2019 04:19:17 5.1 C 25 %
1323 12-11-2019 04:29:17 5 C 25 %
1324 12-11-2019 04:39:17 5.2 C 23 %
1325 12-11-2019 04:49:17 5 C 25 %
Sensor: Nr:Datum:Temp:Feuchte:
Aussen-T/F 1326 12-11-2019 04:59:17 4.9 C 26 %
1327 12-11-2019 05:09:17 4.7 C 26 %
1328 12-11-2019 05:19:17 4.5 C 30 %
1329 12-11-2019 05:29:17 4.5 C 31 %
1330 12-11-2019 05:39:17 4.4 C 31 %
1331 12-11-2019 05:49:17 4.4 C 30 %
1332 12-11-2019 05:59:17 4.5 C 30 %
1333 12-11-2019 06:09:17 4.6 C 30 %
1334 12-11-2019 06:19:18 4.8 C 29 %
1335 12-11-2019 06:29:18 4.9 C 26 %
1336 12-11-2019 06:39:17 4.7 C 26 %
1337 12-11-2019 06:49:17 4.8 C 26 %
1338 12-11-2019 06:59:17 4.9 C 26 %
1339 12-11-2019 07:09:17 4.9 C 25 %
1340 12-11-2019 07:19:17 5 C 25 %
1341 12-11-2019 07:29:17 5 C 23 %
1342 12-11-2019 07:39:17 5.2 C 21 %
1343 12-11-2019 07:49:17 5.5 C 23 %
1344 12-11-2019 07:59:17 5 C 23 %
1345 12-11-2019 08:09:17 5.1 C 25 %
1346 12-11-2019 08:19:17 5.1 C 25 %
1347 12-11-2019 08:29:17 5.2 C 25 %
1348 12-11-2019 08:39:17 5.4 C 20 %
1349 12-11-2019 08:49:17 5.3 C 21 %
1350 12-11-2019 08:59:17 5.6 C 20 %
Sensor: Nr:Datum:Temp:Feuchte:
Aussen-T/F 1351 12-11-2019 09:09:17 6 C 20 %
1352 12-11-2019 09:19:17 6.3 C 20 %
1353 12-11-2019 09:29:17 6.4 C 20 %
1354 12-11-2019 09:39:17 7.2 C 20 %
1355 12-11-2019 09:49:17 7.1 C 20 %
1356 12-11-2019 09:59:17 7.2 C 20 %
1357 12-11-2019 10:09:17 7.5 C 20 %
1358 12-11-2019 10:19:17 7.8 C 20 %
1359 12-11-2019 10:29:17 7.8 C 20 %
1360 12-11-2019 10:39:17 7.9 C 20 %
1361 12-11-2019 10:49:17 8.3 C 20 %
1362 12-11-2019 10:59:17 8.2 C 20 %
1363 12-11-2019 11:09:17 8.1 C 20 %
1364 12-11-2019 11:19:17 8 C 20 %
1365 12-11-2019 11:29:17 7.5 C 20 %
1366 12-11-2019 11:39:17 7.1 C 20 %
1367 12-11-2019 11:49:17 7 C 20 %
1368 12-11-2019 11:59:17 7.1 C 20 %
1369 12-11-2019 12:09:17 7.6 C 20 %
1370 12-11-2019 12:19:17 7.8 C 20 %
1371 12-11-2019 12:29:17 8.4 C 20 %
1372 12-11-2019 12:39:17 7.9 C 20 %
1373 12-11-2019 12:49:17 7.6 C 20 %
1374 12-11-2019 12:59:17 7.7 C 20 %
1375 12-11-2019 13:09:17 7.8 C 20 %
Sensor: Nr:Datum:Temp:Feuchte:
Aussen-T/F 1376 12-11-2019 13:19:17 7.5 C 20 %
1377 12-11-2019 13:29:17 7.5 C 20 %
1378 12-11-2019 13:39:17 7.3 C 20 %
1379 12-11-2019 13:49:17 7.3 C 20 %
1380 12-11-2019 13:59:17 7.5 C 20 %
1381 12-11-2019 14:09:17 7.5 C 20 %
1382 12-11-2019 14:19:17 7.9 C 20 %
1383 12-11-2019 14:29:17 7.8 C 20 %
1384 12-11-2019 14:39:17 7.6 C 20 %
1385 12-11-2019 14:49:17 7.6 C 20 %
1386 12-11-2019 14:59:17 7.7 C 20 %
1387 12-11-2019 15:09:17 7.8 C 20 %
1388 12-11-2019 15:19:17 7.8 C 20 %
1389 12-11-2019 15:29:17 7.8 C 20 %
1390 12-11-2019 15:39:17 7.4 C 20 %
1391 12-11-2019 15:49:17 7.2 C 20 %
1392 12-11-2019 15:59:17 7.2 C 20 %
1393 12-11-2019 16:09:17 7.1 C 20 %
1394 12-11-2019 16:19:17 7 C 20 %
1395 12-11-2019 16:29:17 6.9 C 20 %
1396 12-11-2019 16:39:17 6.8 C 20 %
1397 12-11-2019 16:49:17 6.4 C 20 %
1398 12-11-2019 16:59:17 6.4 C 20 %
1399 12-11-2019 17:09:17 6.3 C 20 %
1400 12-11-2019 17:19:17 6 C 20 %
Sensor: Nr:Datum:Temp:Feuchte:
Aussen-T/F 1401 12-11-2019 17:29:17 6 C 20 %
1402 12-11-2019 17:39:17 6.1 C 20 %
1403 12-11-2019 17:49:17 5.7 C 20 %
1404 12-11-2019 17:59:17 5.5 C 20 %
1405 12-11-2019 18:09:17 4.8 C 26 %
1406 12-11-2019 18:19:17 4.7 C 26 %
1407 12-11-2019 18:29:17 5.1 C 21 %
1408 12-11-2019 18:39:17 4.9 C 26 %
1409 12-11-2019 18:49:17 4.6 C 25 %
1410 12-11-2019 18:59:17 4.8 C 23 %
1411 12-11-2019 19:09:18 4.4 C 25 %
1412 12-11-2019 19:19:17 3.7 C 28 %
1413 12-11-2019 19:29:17 3.2 C 30 %
1414 12-11-2019 19:39:17 3 C 31 %
1415 12-11-2019 19:49:18 2.8 C 32 %
1416 12-11-2019 19:59:18 2.5 C 34 %
1417 12-11-2019 20:09:17 2.5 C 34 %
1418 12-11-2019 20:19:17 2.2 C 33 %
1419 12-11-2019 20:29:17 1.8 C 36 %
1420 12-11-2019 20:39:17 1.5 C 37 %
1421 12-11-2019 20:49:17 1.7 C 41 %
1422 12-11-2019 20:59:17 2.6 C 42 %
1423 12-11-2019 21:09:17 3.2 C 35 %
1424 12-11-2019 21:19:17 2.7 C 32 %
1425 12-11-2019 21:29:17 2.1 C 33 %
Sensor: Nr:Datum:Temp:Feuchte:
Aussen-T/F 1426 12-11-2019 21:39:17 2.4 C 36 %
1427 12-11-2019 21:49:17 2.6 C 35 %
1428 12-11-2019 21:59:17 3.3 C 32 %
1429 12-11-2019 22:09:17 3.4 C 32 %
1430 12-11-2019 22:19:17 3.6 C 31 %
1431 12-11-2019 22:29:17 4 C 27 %
1432 12-11-2019 22:39:17 4.2 C 26 %
1433 12-11-2019 22:49:17 4.2 C 26 %
1434 12-11-2019 22:59:17 4.3 C 26 %
1435 12-11-2019 23:09:17 4.4 C 23 %
1436 12-11-2019 23:19:17 4.3 C 23 %
1437 12-11-2019 23:29:17 4.3 C 23 %
1438 12-11-2019 23:39:17 4.3 C 25 %
1439 12-11-2019 23:49:17 4.4 C 25 %
1440 12-11-2019 23:59:17 4.4 C 21 %
1441 13-11-2019 00:09:17 4.4 C 21 %
1442 13-11-2019 00:19:17 4.4 C 21 %
1443 13-11-2019 00:29:17 4.3 C 23 %
1444 13-11-2019 00:39:17 4.3 C 21 %
1445 13-11-2019 00:49:17 4.3 C 21 %
1446 13-11-2019 00:59:17 4.2 C 25 %
1447 13-11-2019 01:09:17 4.1 C 25 %
1448 13-11-2019 01:19:17 4 C 25 %
1449 13-11-2019 01:29:17 3.7 C 25 %
1450 13-11-2019 01:39:17 3.6 C 26 %
Sensor: Nr:Datum:Temp:Feuchte:
Aussen-T/F 1451 13-11-2019 01:49:17 2.8 C 29 %
1452 13-11-2019 01:59:17 2.4 C 31 %
1453 13-11-2019 02:09:17 2.3 C 32 %
1454 13-11-2019 02:19:17 2.2 C 32 %
1455 13-11-2019 02:29:17 2.1 C 31 %
1456 13-11-2019 02:39:17 2.8 C 29 %
1457 13-11-2019 02:49:17 3.1 C 28 %
1458 13-11-2019 02:59:17 3.9 C 21 %
1459 13-11-2019 03:09:17 3.9 C 20 %
1460 13-11-2019 03:19:17 4 C 20 %
1461 13-11-2019 03:29:17 3.8 C 21 %
1462 13-11-2019 03:39:17 4 C 20 %
1463 13-11-2019 03:49:17 3.9 C 23 %
1464 13-11-2019 03:59:17 4 C 20 %
1465 13-11-2019 04:09:17 4.1 C 20 %
1466 13-11-2019 04:19:17 3.9 C 21 %
1467 13-11-2019 04:29:17 3.8 C 23 %
1468 13-11-2019 04:39:17 4.2 C 20 %
1469 13-11-2019 04:49:17 4 C 20 %
1470 13-11-2019 04:59:17 3.9 C 21 %
1471 13-11-2019 05:09:17 3.6 C 25 %
1472 13-11-2019 05:19:17 3.8 C 25 %
1473 13-11-2019 05:29:17 3.7 C 26 %
1474 13-11-2019 05:39:17 3.8 C 26 %
1475 13-11-2019 05:49:17 3.8 C 26 %
Sensor: Nr:Datum:Temp:Feuchte:
Aussen-T/F 1476 13-11-2019 05:59:17 3.8 C 26 %
1477 13-11-2019 06:09:17 3.8 C 26 %
1478 13-11-2019 06:19:17 3.9 C 25 %
1479 13-11-2019 06:29:17 3.9 C 25 %
1480 13-11-2019 06:39:17 3.9 C 25 %
1481 13-11-2019 06:49:17 3.2 C 25 %
1482 13-11-2019 06:59:17 3.1 C 30 %
1483 13-11-2019 07:09:17 3.3 C 30 %
1484 13-11-2019 07:19:17 3.3 C 30 %
1485 13-11-2019 07:29:17 3.7 C 27 %
1486 13-11-2019 07:39:17 3.7 C 27 %
1487 13-11-2019 07:49:17 3.8 C 26 %
1488 13-11-2019 07:59:17 3.9 C 26 %
1489 13-11-2019 08:09:17 4 C 25 %
1490 13-11-2019 08:19:17 4.2 C 25 %
1491 13-11-2019 08:29:17 4.3 C 21 %
1492 13-11-2019 08:39:17 4.5 C 20 %
1493 13-11-2019 08:49:17 4.5 C 21 %
1494 13-11-2019 08:59:17 4.5 C 21 %
1495 13-11-2019 09:09:17 4.7 C 21 %
1496 13-11-2019 09:19:17 5.1 C 20 %
1497 13-11-2019 09:29:17 5.5 C 20 %
1498 13-11-2019 09:39:17 5.6 C 20 %
1499 13-11-2019 09:49:17 5.6 C 20 %
1500 13-11-2019 09:59:17 5.5 C 20 %
Sensor: Nr:Datum:Temp:Feuchte:
Aussen-T/F 1501 13-11-2019 10:09:17 5.6 C 20 %
1502 13-11-2019 10:19:17 5.7 C 20 %
1503 13-11-2019 10:29:17 5.8 C 20 %
1504 13-11-2019 10:39:17 5.9 C 20 %
1505 13-11-2019 10:49:17 5.7 C 20 %
1506 13-11-2019 10:59:17 5.7 C 20 %
1507 13-11-2019 11:09:17 5.6 C 20 %
1508 13-11-2019 11:19:17 5.8 C 20 %
1509 13-11-2019 11:29:17 6 C 20 %
1510 13-11-2019 11:39:17 6.1 C 20 %
1511 13-11-2019 11:49:17 6.1 C 20 %
1512 13-11-2019 11:59:17 6.6 C 20 %
1513 13-11-2019 12:09:17 6.5 C 20 %
1514 13-11-2019 12:19:17 6.6 C 20 %
1515 13-11-2019 12:29:17 6.8 C 20 %
1516 13-11-2019 12:39:17 6.7 C 20 %
1517 13-11-2019 12:49:17 6.4 C 20 %
1518 13-11-2019 12:59:17 6.7 C 20 %
1519 13-11-2019 13:09:17 6.8 C 20 %
1520 13-11-2019 13:19:17 6.7 C 20 %
1521 13-11-2019 13:29:17 6.4 C 20 %
1522 13-11-2019 13:39:17 6.5 C 20 %
1523 13-11-2019 13:49:17 6.4 C 20 %
1524 13-11-2019 13:59:17 6.3 C 20 %
1525 13-11-2019 14:09:17 6.3 C 20 %
Sensor: Nr:Datum:Temp:Feuchte:
Aussen-T/F 1526 13-11-2019 14:19:17 6.3 C 20 %
1527 13-11-2019 14:29:17 6.2 C 20 %
1528 13-11-2019 14:39:17 6.2 C 20 %
1529 13-11-2019 14:49:17 6.2 C 20 %
1530 13-11-2019 14:59:17 6.3 C 20 %
1531 13-11-2019 15:09:17 6.3 C 20 %
1532 13-11-2019 15:19:17 6.3 C 20 %
1533 13-11-2019 15:29:17 6.2 C 20 %
1534 13-11-2019 15:39:17 6.2 C 20 %
1535 13-11-2019 15:49:17 6.2 C 20 %
1536 13-11-2019 15:59:17 6.2 C 20 %
1537 13-11-2019 16:09:17 6.2 C 20 %
1538 13-11-2019 16:19:17 6.2 C 20 %
1539 13-11-2019 16:29:17 6.1 C 20 %
1540 13-11-2019 16:39:17 6 C 20 %
1541 13-11-2019 16:49:17 6 C 20 %
1542 13-11-2019 16:59:17 6 C 20 %
1543 13-11-2019 17:09:17 6 C 20 %
1544 13-11-2019 17:19:17 6 C 20 %
1545 13-11-2019 17:29:17 5.9 C 20 %
1546 13-11-2019 17:39:17 6 C 20 %
1547 13-11-2019 17:49:17 5.9 C 20 %
1548 13-11-2019 17:59:17 5.9 C 20 %
1549 13-11-2019 18:09:17 5.8 C 20 %
1550 13-11-2019 18:19:17 5.8 C 20 %
Sensor: Nr:Datum:Temp:Feuchte:
Aussen-T/F 1551 13-11-2019 18:29:17 5.9 C 20 %
1552 13-11-2019 18:39:17 5.8 C 20 %
1553 13-11-2019 18:49:17 5.7 C 20 %
1554 13-11-2019 18:59:17 5.6 C 21 %
1555 13-11-2019 19:09:18 5.6 C 21 %
1556 13-11-2019 19:19:17 5.6 C 23 %
1557 13-11-2019 19:29:17 5.6 C 20 %
1558 13-11-2019 19:39:17 5.6 C 21 %
1559 13-11-2019 19:49:17 5.8 C 20 %
1560 13-11-2019 19:59:17 5.8 C 20 %
1561 13-11-2019 20:09:17 5.8 C 20 %
1562 13-11-2019 20:19:17 5.9 C 20 %
1563 13-11-2019 20:29:17 5.8 C 20 %
1564 13-11-2019 20:39:17 5.8 C 20 %
1565 13-11-2019 20:49:17 5.8 C 20 %
1566 13-11-2019 20:59:17 5.6 C 20 %
1567 13-11-2019 21:09:17 5.5 C 23 %
1568 13-11-2019 21:19:17 5.4 C 25 %
1569 13-11-2019 21:29:17 4.8 C 27 %
1570 13-11-2019 21:39:17 4.8 C 27 %
1571 13-11-2019 21:49:17 4.7 C 28 %
1572 13-11-2019 21:59:17 4.7 C 29 %
1573 13-11-2019 22:09:17 4.2 C 28 %
1574 13-11-2019 22:19:17 3.8 C 32 %
1575 13-11-2019 22:29:17 3.8 C 33 %
Sensor: Nr:Datum:Temp:Feuchte:
Aussen-T/F 1576 13-11-2019 22:39:17 3.8 C 33 %
1577 13-11-2019 22:49:17 4.1 C 32 %
1578 13-11-2019 22:59:17 4 C 31 %
1579 13-11-2019 23:09:17 4.1 C 29 %
1580 13-11-2019 23:19:17 3.4 C 33 %
1581 13-11-2019 23:29:17 3.6 C 33 %
1582 13-11-2019 23:39:17 3.6 C 33 %
1583 13-11-2019 23:49:17 3.9 C 33 %
1584 13-11-2019 23:59:17 4.2 C 30 %
1585 14-11-2019 00:09:17 4.4 C 30 %
1586 14-11-2019 00:19:17 4.5 C 31 %
1587 14-11-2019 00:29:17 4.7 C 30 %
1588 14-11-2019 00:39:17 4.6 C 30 %
1589 14-11-2019 00:49:17 4.7 C 31 %
1590 14-11-2019 00:59:17 4.4 C 30 %
1591 14-11-2019 01:09:17 3.7 C 31 %
1592 14-11-2019 01:19:17 3.8 C 37 %
1593 14-11-2019 01:29:17 3.7 C 37 %
1594 14-11-2019 01:39:17 3.8 C 39 %
1595 14-11-2019 01:49:17 3.8 C 38 %
1596 14-11-2019 01:59:17 3.9 C 39 %
1597 14-11-2019 02:09:17 4 C 37 %
1598 14-11-2019 02:19:17 4 C 35 %
1599 14-11-2019 02:29:17 4.1 C 36 %
1600 14-11-2019 02:39:17 4.4 C 35 %
Sensor: Nr:Datum:Temp:Feuchte:
Aussen-T/F 1601 14-11-2019 02:49:17 4.5 C 33 %
1602 14-11-2019 02:59:17 4.8 C 31 %
1603 14-11-2019 03:09:17 5 C 29 %
1604 14-11-2019 03:19:17 4.8 C 30 %
1605 14-11-2019 03:29:17 5 C 30 %
1606 14-11-2019 03:39:17 5.1 C 29 %
1607 14-11-2019 03:49:17 5.2 C 28 %
1608 14-11-2019 03:59:17 5.1 C 28 %
1609 14-11-2019 04:09:17 5.2 C 29 %
1610 14-11-2019 04:19:17 5.1 C 29 %
1611 14-11-2019 04:29:17 4.6 C 31 %
1612 14-11-2019 04:39:17 4.5 C 32 %
1613 14-11-2019 04:49:17 4.6 C 33 %
1614 14-11-2019 04:59:17 4.2 C 31 %
1615 14-11-2019 05:09:17 3.4 C 33 %
1616 14-11-2019 05:19:17 3.3 C 40 %
1617 14-11-2019 05:29:17 3.7 C 41 %
1618 14-11-2019 05:39:18 4.1 C 40 %
1619 14-11-2019 05:49:17 4.4 C 38 %
1620 14-11-2019 05:59:17 4.4 C 36 %
1621 14-11-2019 06:09:17 3.6 C 34 %
1622 14-11-2019 06:19:17 3.5 C 36 %
1623 14-11-2019 06:29:17 3.5 C 36 %
1624 14-11-2019 06:39:17 3.9 C 38 %
1625 14-11-2019 06:49:17 4.2 C 36 %
Sensor: Nr:Datum:Temp:Feuchte:
Aussen-T/F 1626 14-11-2019 06:59:17 4.6 C 30 %
1627 14-11-2019 07:09:17 4.6 C 30 %
1628 14-11-2019 07:19:17 4.8 C 26 %
1629 14-11-2019 07:29:17 4.8 C 25 %
1630 14-11-2019 07:39:17 4.5 C 26 %
1631 14-11-2019 07:49:17 4.5 C 26 %
1632 14-11-2019 07:59:17 4.5 C 26 %
1633 14-11-2019 08:09:17 4.2 C 26 %
1634 14-11-2019 08:19:17 4.2 C 26 %
1635 14-11-2019 08:29:17 4.6 C 26 %
1636 14-11-2019 08:39:17 4.7 C 25 %
1637 14-11-2019 08:49:17 4.6 C 25 %
1638 14-11-2019 08:59:17 4.5 C 26 %
1639 14-11-2019 09:09:17 5 C 21 %
1640 14-11-2019 09:19:17 5 C 21 %
1641 14-11-2019 09:29:17 5.4 C 20 %
1642 14-11-2019 09:39:17 5.6 C 20 %
1643 14-11-2019 09:49:17 5.6 C 20 %
1644 14-11-2019 09:59:17 5.9 C 20 %
1645 14-11-2019 10:09:17 6.1 C 20 %
1646 14-11-2019 10:19:17 6.3 C 20 %
1647 14-11-2019 10:29:17 6.5 C 20 %
1648 14-11-2019 10:39:17 6.7 C 20 %
1649 14-11-2019 10:49:17 7.1 C 20 %
1650 14-11-2019 10:59:17 7.2 C 20 %
Sensor: Nr:Datum:Temp:Feuchte:
Aussen-T/F 1651 14-11-2019 11:09:17 7.4 C 20 %
1652 14-11-2019 11:19:17 7.9 C 20 %
1653 14-11-2019 11:29:17 8.2 C 20 %
1654 14-11-2019 11:39:17 8.2 C 20 %
1655 14-11-2019 11:49:17 8.2 C 20 %
1656 14-11-2019 11:59:17 8.9 C 20 %
1657 14-11-2019 12:09:17 9.3 C 20 %
1658 14-11-2019 12:19:17 9.1 C 20 %
1659 14-11-2019 12:29:17 9 C 20 %
1660 14-11-2019 12:39:17 8.6 C 20 %
1661 14-11-2019 12:49:17 8.3 C 20 %
1662 14-11-2019 12:59:17 8.3 C 20 %
1663 14-11-2019 13:09:17 8.6 C 20 %
1664 14-11-2019 13:19:17 8.8 C 20 %
1665 14-11-2019 13:29:17 8.6 C 20 %
1666 14-11-2019 13:39:17 8.7 C 20 %
1667 14-11-2019 13:49:17 9.1 C 20 %
1668 14-11-2019 13:59:17 9.6 C 20 %
1669 14-11-2019 14:09:17 9.4 C 20 %
1670 14-11-2019 14:19:17 9.2 C 20 %
1671 14-11-2019 14:29:17 9 C 20 %
1672 14-11-2019 14:39:17 8.9 C 20 %
1673 14-11-2019 14:49:17 8.5 C 20 %
1674 14-11-2019 14:59:17 8.1 C 20 %
1675 14-11-2019 15:09:17 7.9 C 20 %
Sensor: Nr:Datum:Temp:Feuchte:
Aussen-T/F 1676 14-11-2019 15:19:17 7.8 C 20 %
1677 14-11-2019 15:29:17 7.3 C 20 %
1678 14-11-2019 15:39:17 6.9 C 20 %
1679 14-11-2019 15:49:17 6.7 C 20 %
1680 14-11-2019 15:59:17 6.5 C 20 %
1681 14-11-2019 16:09:17 6.5 C 20 %
1682 14-11-2019 16:19:17 6 C 20 %
1683 14-11-2019 16:29:17 5.6 C 20 %
1684 14-11-2019 16:39:17 5.2 C 20 %
1685 14-11-2019 16:49:17 4.8 C 20 %
1686 14-11-2019 16:59:17 4.6 C 20 %
1687 14-11-2019 17:09:17 4.4 C 20 %
1688 14-11-2019 17:19:17 4.3 C 20 %
1689 14-11-2019 17:29:17 3.9 C 20 %
1690 14-11-2019 17:39:17 3.8 C 20 %
1691 14-11-2019 17:49:17 3.8 C 20 %
1692 14-11-2019 17:59:17 3.8 C 20 %
1693 14-11-2019 18:09:17 4.1 C 20 %
1694 14-11-2019 18:19:17 3.9 C 20 %
1695 14-11-2019 18:29:17 3.8 C 20 %
1696 14-11-2019 18:39:17 3.9 C 20 %
1697 14-11-2019 18:49:17 3.3 C 20 %
1698 14-11-2019 18:59:17 3.4 C 20 %
1699 14-11-2019 19:09:17 3.2 C 20 %
1700 14-11-2019 19:19:17 2.6 C 25 %
Sensor: Nr:Datum:Temp:Feuchte:
Aussen-T/F 1701 14-11-2019 19:29:17 2.7 C 25 %
1702 14-11-2019 19:39:17 2.7 C 25 %
1703 14-11-2019 19:49:17 2.6 C 25 %
1704 14-11-2019 19:59:18 2.7 C 26 %
1705 14-11-2019 20:09:17 2.4 C 26 %
1706 14-11-2019 20:19:17 2.3 C 30 %
1707 14-11-2019 20:29:17 2.4 C 27 %
1708 14-11-2019 20:39:17 2.6 C 26 %
1709 14-11-2019 20:49:17 2.5 C 26 %
1710 14-11-2019 20:59:17 2 C 27 %
1711 14-11-2019 21:09:17 1.6 C 32 %
1712 14-11-2019 21:19:17 1.6 C 36 %
1713 14-11-2019 21:29:17 1.7 C 35 %
1714 14-11-2019 21:39:17 1.6 C 35 %
1715 14-11-2019 21:49:17 1.4 C 35 %
1716 14-11-2019 21:59:17 1.4 C 36 %
1717 14-11-2019 22:09:17 1.6 C 37 %
1718 14-11-2019 22:19:17 1.5 C 36 %
1719 14-11-2019 22:29:17 1.5 C 37 %
1720 14-11-2019 22:39:17 1.6 C 39 %
1721 14-11-2019 22:49:17 1.6 C 39 %
1722 14-11-2019 22:59:17 1.9 C 40 %
1723 14-11-2019 23:09:17 2 C 38 %
1724 14-11-2019 23:19:17 2 C 37 %
1725 14-11-2019 23:29:17 2 C 36 %
Sensor: Nr:Datum:Temp:Feuchte:
Aussen-T/F 1726 14-11-2019 23:39:17 2.2 C 36 %
1727 14-11-2019 23:49:17 2.1 C 36 %
1728 14-11-2019 23:59:17 2.1 C 36 %
1729 15-11-2019 00:09:17 2.1 C 36 %
1730 15-11-2019 00:19:17 2.2 C 35 %
1731 15-11-2019 00:29:17 2.3 C 36 %
1732 15-11-2019 00:39:17 2.5 C 36 %
1733 15-11-2019 00:49:17 2.8 C 33 %
1734 15-11-2019 00:59:17 3 C 31 %
1735 15-11-2019 01:09:17 3.2 C 30 %
1736 15-11-2019 01:19:17 2.9 C 31 %
1737 15-11-2019 01:29:17 2.8 C 32 %
1738 15-11-2019 01:39:17 3.1 C 30 %
1739 15-11-2019 01:49:17 3.2 C 30 %
1740 15-11-2019 01:59:17 3.1 C 30 %
1741 15-11-2019 02:09:17 2.7 C 30 %
1742 15-11-2019 02:19:17 2.6 C 31 %
1743 15-11-2019 02:29:17 2.6 C 31 %
1744 15-11-2019 02:39:17 2.7 C 30 %
1745 15-11-2019 02:49:17 2.8 C 31 %
1746 15-11-2019 02:59:17 3.2 C 30 %
1747 15-11-2019 03:09:17 2.9 C 30 %
1748 15-11-2019 03:19:17 2.7 C 30 %
1749 15-11-2019 03:29:17 2.5 C 30 %
1750 15-11-2019 03:39:17 2.3 C 30 %
Sensor: Nr:Datum:Temp:Feuchte:
Aussen-T/F 1751 15-11-2019 03:49:17 2.2 C 30 %
1752 15-11-2019 03:59:17 2.2 C 31 %
1753 15-11-2019 04:09:17 2.2 C 31 %
1754 15-11-2019 04:19:17 2.6 C 30 %
1755 15-11-2019 04:29:17 3.1 C 26 %
1756 15-11-2019 04:39:17 3.2 C 25 %
1757 15-11-2019 04:49:17 3 C 25 %
1758 15-11-2019 04:59:17 3.1 C 25 %
1759 15-11-2019 05:09:17 2.8 C 27 %
1760 15-11-2019 05:19:17 2.6 C 26 %
1761 15-11-2019 05:29:17 2.7 C 25 %
1762 15-11-2019 05:39:17 2.5 C 27 %
1763 15-11-2019 05:49:17 2.6 C 25 %
1764 15-11-2019 05:59:17 3.2 C 23 %
1765 15-11-2019 06:09:17 3.3 C 20 %
1766 15-11-2019 06:19:17 3.4 C 20 %
1767 15-11-2019 06:29:17 3.3 C 20 %
1768 15-11-2019 06:39:17 3.4 C 20 %
1769 15-11-2019 06:49:17 3.4 C 20 %
1770 15-11-2019 06:59:17 3.1 C 20 %
1771 15-11-2019 07:09:17 3 C 20 %
1772 15-11-2019 07:19:17 2.9 C 21 %
1773 15-11-2019 07:29:17 3 C 21 %
1774 15-11-2019 07:39:17 2.9 C 23 %
1775 15-11-2019 07:49:17 2.8 C 25 %
Sensor: Nr:Datum:Temp:Feuchte:
Aussen-T/F 1776 15-11-2019 07:59:17 3.2 C 20 %
1777 15-11-2019 08:09:17 3.3 C 20 %
1778 15-11-2019 08:19:17 3.3 C 20 %
1779 15-11-2019 08:29:17 3.3 C 20 %
1780 15-11-2019 08:39:17 3.3 C 20 %
1781 15-11-2019 08:49:17 3.1 C 23 %
1782 15-11-2019 08:59:17 3.3 C 21 %
1783 15-11-2019 09:09:17 3.3 C 21 %
1784 15-11-2019 09:19:17 3.6 C 20 %
1785 15-11-2019 09:29:17 4.1 C 20 %
1786 15-11-2019 09:39:17 4.5 C 20 %
1787 15-11-2019 09:49:17 4.4 C 20 %
1788 15-11-2019 09:59:17 4.6 C 20 %
1789 15-11-2019 10:09:17 4.9 C 20 %
1790 15-11-2019 10:19:17 5.2 C 20 %
1791 15-11-2019 10:29:17 5.5 C 20 %
1792 15-11-2019 10:39:17 5.4 C 20 %
1793 15-11-2019 10:49:17 5.5 C 20 %
1794 15-11-2019 10:59:17 5.8 C 20 %
1795 15-11-2019 11:09:17 5.9 C 20 %
1796 15-11-2019 11:19:17 5.3 C 20 %
1797 15-11-2019 11:29:17 5.2 C 20 %
1798 15-11-2019 11:39:17 5.8 C 20 %
1799 15-11-2019 11:49:17 6.1 C 20 %
1800 15-11-2019 11:59:17 6.4 C 20 %
Sensor: Nr:Datum:Temp:Feuchte:
Aussen-T/F 1801 15-11-2019 12:09:17 6.5 C 20 %
1802 15-11-2019 12:19:17 6.5 C 20 %
1803 15-11-2019 12:29:17 6.3 C 20 %
1804 15-11-2019 12:39:17 6.3 C 20 %
1805 15-11-2019 12:49:17 6.4 C 20 %
1806 15-11-2019 12:59:17 6.5 C 20 %
1807 15-11-2019 13:09:17 6.8 C 20 %
1808 15-11-2019 13:19:17 6.9 C 20 %
1809 15-11-2019 13:29:17 7 C 20 %
1810 15-11-2019 13:39:17 7.4 C 20 %
1811 15-11-2019 13:49:17 7.4 C 20 %
1812 15-11-2019 13:59:17 7.3 C 20 %
1813 15-11-2019 14:09:17 7.5 C 20 %
1814 15-11-2019 14:19:17 7.6 C 20 %
1815 15-11-2019 14:29:17 7.7 C 20 %
1816 15-11-2019 14:39:17 7.5 C 20 %
1817 15-11-2019 14:49:17 7.8 C 20 %
1818 15-11-2019 14:59:17 8 C 20 %
1819 15-11-2019 15:09:17 7.8 C 20 %
1820 15-11-2019 15:19:17 7.7 C 20 %
1821 15-11-2019 15:29:17 7.6 C 20 %
1822 15-11-2019 15:39:17 7.3 C 20 %
1823 15-11-2019 15:49:17 7.1 C 20 %
1824 15-11-2019 15:59:17 6.8 C 20 %
1825 15-11-2019 16:09:17 6.7 C 20 %
Sensor: Nr:Datum:Temp:Feuchte:
Aussen-T/F 1826 15-11-2019 16:19:17 5.5 C 20 %
1827 15-11-2019 16:29:17 5 C 20 %
1828 15-11-2019 16:39:17 4.4 C 20 %
1829 15-11-2019 16:49:17 4 C 23 %
1830 15-11-2019 16:59:17 3.9 C 26 %
1831 15-11-2019 17:09:17 3.8 C 27 %
1832 15-11-2019 17:19:17 3.9 C 27 %
1833 15-11-2019 17:29:17 3.8 C 28 %
1834 15-11-2019 17:39:17 4 C 27 %
1835 15-11-2019 17:49:17 3.8 C 28 %
1836 15-11-2019 17:59:17 3.8 C 29 %
1837 15-11-2019 18:09:17 3.8 C 29 %
1838 15-11-2019 18:19:17 4.3 C 27 %
1839 15-11-2019 18:29:17 4.2 C 26 %
1840 15-11-2019 18:39:17 4.1 C 27 %
1841 15-11-2019 18:49:17 4 C 28 %
1842 15-11-2019 18:59:17 4 C 28 %
1843 15-11-2019 19:09:17 3.9 C 31 %
1844 15-11-2019 19:19:17 3.6 C 31 %
1845 15-11-2019 19:29:17 3.7 C 32 %
1846 15-11-2019 19:39:17 3.6 C 31 %
1847 15-11-2019 19:49:17 3.7 C 32 %
1848 15-11-2019 19:59:17 3.7 C 32 %
1849 15-11-2019 20:09:17 3.4 C 33 %
1850 15-11-2019 20:19:17 3.3 C 34 %
Sensor: Nr:Datum:Temp:Feuchte:
Aussen-T/F 1851 15-11-2019 20:29:17 3.2 C 35 %
1852 15-11-2019 20:39:17 3.5 C 32 %
1853 15-11-2019 20:49:17 3.2 C 32 %
1854 15-11-2019 20:59:17 3.5 C 32 %
1855 15-11-2019 21:09:17 3.5 C 31 %
1856 15-11-2019 21:19:17 3.5 C 31 %
1857 15-11-2019 21:29:17 3.2 C 31 %
1858 15-11-2019 21:39:17 3 C 34 %
1859 15-11-2019 21:49:17 2.9 C 36 %
1860 15-11-2019 21:59:17 3 C 36 %
1861 15-11-2019 22:09:17 2.8 C 36 %
1862 15-11-2019 22:19:17 2.6 C 37 %
1863 15-11-2019 22:29:17 2.6 C 39 %
1864 15-11-2019 22:39:17 2.7 C 39 %
1865 15-11-2019 22:49:17 2.7 C 39 %
1866 15-11-2019 22:59:17 2.5 C 38 %
1867 15-11-2019 23:09:17 2.6 C 39 %
1868 15-11-2019 23:19:17 2.7 C 39 %
1869 15-11-2019 23:29:17 2.6 C 38 %
1870 15-11-2019 23:39:17 2.5 C 38 %
1871 15-11-2019 23:49:17 2.5 C 40 %
1872 15-11-2019 23:59:17 2.3 C 40 %
1873 16-11-2019 00:09:17 2.3 C 40 %
1874 16-11-2019 00:19:17 2.3 C 40 %
1875 16-11-2019 00:29:17 2.3 C 40 %
Sensor: Nr:Datum:Temp:Feuchte:
Aussen-T/F 1876 16-11-2019 00:39:17 2.3 C 40 %
1877 16-11-2019 00:49:17 2.4 C 40 %
1878 16-11-2019 00:59:17 2.3 C 40 %
1879 16-11-2019 01:09:17 2.3 C 40 %
1880 16-11-2019 01:19:17 2.2 C 40 %
1881 16-11-2019 01:29:17 2.2 C 40 %
1882 16-11-2019 01:39:17 2.2 C 40 %
1883 16-11-2019 01:49:17 2.3 C 40 %
1884 16-11-2019 01:59:17 2.3 C 40 %
1885 16-11-2019 02:09:17 2.3 C 40 %
1886 16-11-2019 02:19:17 2.3 C 40 %
1887 16-11-2019 02:29:17 2.2 C 40 %
1888 16-11-2019 02:39:17 2.1 C 39 %
1889 16-11-2019 02:49:17 2.1 C 40 %
1890 16-11-2019 02:59:17 2 C 40 %
1891 16-11-2019 03:09:17 2 C 40 %
1892 16-11-2019 03:19:17 1.9 C 41 %
1893 16-11-2019 03:29:17 1.5 C 40 %
1894 16-11-2019 03:39:18 1.3 C 40 %
1895 16-11-2019 03:49:17 1.3 C 41 %
1896 16-11-2019 03:59:17 1.3 C 41 %
1897 16-11-2019 04:09:17 1.1 C 41 %
1898 16-11-2019 04:19:17 0.8 C 41 %
1899 16-11-2019 04:29:17 0.3 C 40 %
1900 16-11-2019 04:39:17 0 C 41 %
Sensor: Nr:Datum:Temp:Feuchte:
Aussen-T/F 1901 16-11-2019 04:49:17 -0.2 C 41 %
1902 16-11-2019 04:59:17 -0.1 C 42 %
1903 16-11-2019 05:09:17 -0.4 C 42 %
1904 16-11-2019 05:19:17 -0.5 C 42 %
1905 16-11-2019 05:29:17 -0.7 C 42 %
1906 16-11-2019 05:39:17 -0.6 C 42 %
1907 16-11-2019 05:49:17 -0.8 C 42 %
1908 16-11-2019 05:59:17 -1 C 42 %
1909 16-11-2019 06:09:17 -1 C 42 %
1910 16-11-2019 06:19:17 -1.1 C 42 %
1911 16-11-2019 06:29:17 -1 C 43 %
1912 16-11-2019 06:39:17 -1 C 43 %
1913 16-11-2019 06:49:17 -1.4 C 42 %
1914 16-11-2019 06:59:17 -1.5 C 42 %
1915 16-11-2019 07:09:17 -1.5 C 42 %
1916 16-11-2019 07:19:17 -1.6 C 42 %
1917 16-11-2019 07:29:17 -1.4 C 43 %
1918 16-11-2019 07:39:17 -1 C 43 %
1919 16-11-2019 07:49:17 -0.9 C 43 %
1920 16-11-2019 07:59:17 -0.7 C 43 %
1921 16-11-2019 08:09:17 -0.7 C 43 %
1922 16-11-2019 08:19:17 -0.7 C 43 %
1923 16-11-2019 08:29:17 -0.6 C 43 %
1924 16-11-2019 08:39:17 -0.5 C 43 %
1925 16-11-2019 08:49:17 -0.4 C 43 %
Sensor: Nr:Datum:Temp:Feuchte:
Aussen-T/F 1926 16-11-2019 08:59:17 -0.3 C 43 %
1927 16-11-2019 09:09:17 -0.4 C 43 %
1928 16-11-2019 09:19:17 -0.5 C 43 %
1929 16-11-2019 09:29:17 -0.5 C 43 %
1930 16-11-2019 09:39:17 -0.4 C 43 %
1931 16-11-2019 09:49:17 -0.4 C 43 %
1932 16-11-2019 09:59:17 -0.2 C 43 %
1933 16-11-2019 10:09:17 0.2 C 43 %
1934 16-11-2019 10:19:17 0.6 C 43 %
1935 16-11-2019 10:29:17 0.6 C 41 %
1936 16-11-2019 10:39:17 0.3 C 40 %
1937 16-11-2019 10:49:17 0.5 C 40 %
1938 16-11-2019 10:59:17 0.6 C 39 %
1939 16-11-2019 11:09:17 0.7 C 38 %
1940 16-11-2019 11:19:17 1.1 C 36 %
1941 16-11-2019 11:29:17 1.6 C 32 %
1942 16-11-2019 11:39:17 2.4 C 32 %
1943 16-11-2019 11:49:17 2.1 C 30 %
1944 16-11-2019 11:59:17 1.8 C 31 %
1945 16-11-2019 12:09:17 1.6 C 32 %
1946 16-11-2019 12:19:17 1.6 C 33 %
1947 16-11-2019 12:29:17 2.3 C 31 %
1948 16-11-2019 12:39:17 2.5 C 30 %
1949 16-11-2019 12:49:17 2.6 C 32 %
1950 16-11-2019 12:59:17 2.6 C 33 %
Sensor: Nr:Datum:Temp:Feuchte:
Aussen-T/F 1951 16-11-2019 13:09:17 2.5 C 35 %
1952 16-11-2019 13:19:17 2.6 C 36 %
1953 16-11-2019 13:29:17 3.2 C 36 %
1954 16-11-2019 13:39:17 3.7 C 35 %
1955 16-11-2019 13:49:17 4 C 32 %
1956 16-11-2019 13:59:17 3.9 C 32 %
1957 16-11-2019 14:09:17 3.7 C 32 %
1958 16-11-2019 14:19:17 3.7 C 33 %
1959 16-11-2019 14:29:17 3.7 C 32 %
1960 16-11-2019 14:39:17 3.9 C 32 %
1961 16-11-2019 14:49:17 3.9 C 31 %
1962 16-11-2019 14:59:17 4 C 30 %
1963 16-11-2019 15:09:17 4.4 C 29 %
1964 16-11-2019 15:19:17 4.7 C 29 %
1965 16-11-2019 15:29:17 4.6 C 29 %
1966 16-11-2019 15:39:17 4.4 C 28 %
1967 16-11-2019 15:49:17 4.5 C 28 %
1968 16-11-2019 15:59:17 4.2 C 28 %
1969 16-11-2019 16:09:17 4 C 29 %
1970 16-11-2019 16:19:17 4.3 C 26 %
1971 16-11-2019 16:29:17 3.8 C 27 %
1972 16-11-2019 16:39:17 3.5 C 30 %
1973 16-11-2019 16:49:17 3.6 C 31 %
1974 16-11-2019 16:59:17 3.4 C 32 %
1975 16-11-2019 17:09:17 3.5 C 32 %
Sensor: Nr:Datum:Temp:Feuchte:
Aussen-T/F 1976 16-11-2019 17:19:17 3.3 C 32 %
1977 16-11-2019 17:29:17 2.6 C 36 %
1978 16-11-2019 17:39:17 2.2 C 36 %
1979 16-11-2019 17:49:17 2.3 C 39 %
1980 16-11-2019 17:59:17 2.2 C 40 %
1981 16-11-2019 18:09:17 2 C 39 %
1982 16-11-2019 18:19:17 2.2 C 40 %
1983 16-11-2019 18:29:17 2 C 40 %
1984 16-11-2019 18:39:17 1.9 C 40 %
1985 16-11-2019 18:49:17 1.7 C 40 %
1986 16-11-2019 18:59:17 1.6 C 40 %
1987 16-11-2019 19:09:17 1.4 C 40 %
1988 16-11-2019 19:19:17 1.3 C 41 %
1989 16-11-2019 19:29:17 1 C 41 %
1990 16-11-2019 19:39:17 1.1 C 42 %
1991 16-11-2019 19:49:17 0.7 C 42 %
1992 16-11-2019 19:59:17 0.5 C 42 %
1993 16-11-2019 20:09:17 0.5 C 43 %
1994 16-11-2019 20:19:17 0.6 C 43 %
1995 16-11-2019 20:29:17 0.7 C 44 %
1996 16-11-2019 20:39:17 0.7 C 44 %
1997 16-11-2019 20:49:17 0.6 C 43 %
1998 16-11-2019 20:59:17 0.6 C 43 %
1999 16-11-2019 21:09:17 1.1 C 43 %
2000 16-11-2019 21:19:17 0.3 C 43 %
Sensor: Nr:Datum:Temp:Feuchte:
Aussen-T/F 2001 16-11-2019 21:29:17 0.1 C 43 %
2002 16-11-2019 21:39:17 0 C 43 %
2003 16-11-2019 21:49:17 -0.2 C 42 %
2004 16-11-2019 21:59:17 -0.3 C 43 %
2005 16-11-2019 22:09:17 0 C 43 %
2006 16-11-2019 22:19:17 -0.5 C 43 %
2007 16-11-2019 22:29:17 -0.7 C 42 %
2008 16-11-2019 22:39:17 -0.9 C 42 %
2009 16-11-2019 22:49:17 -0.9 C 42 %
2010 16-11-2019 22:59:17 -1 C 42 %
2011 16-11-2019 23:09:17 -1.2 C 42 %
2012 16-11-2019 23:19:17 -1 C 42 %
2013 16-11-2019 23:29:17 -1.3 C 42 %
2014 16-11-2019 23:39:17 -1.3 C 42 %
2015 16-11-2019 23:49:17 -1.6 C 42 %
2016 16-11-2019 23:59:17 -1.6 C 42 %
2017 17-11-2019 00:09:17 -1.6 C 42 %
2018 17-11-2019 00:19:17 -1.3 C 43 %
2019 17-11-2019 00:29:17 -1.6 C 42 %
2020 17-11-2019 00:39:17 -1.9 C 42 %
2021 17-11-2019 00:49:17 -1.9 C 42 %
2022 17-11-2019 00:59:17 -2 C 41 %
2023 17-11-2019 01:09:17 -2.2 C 41 %
2024 17-11-2019 01:19:17 -1.4 C 42 %
2025 17-11-2019 01:29:17 -2 C 41 %
Sensor: Nr:Datum:Temp:Feuchte:
Aussen-T/F 2026 17-11-2019 01:39:17 -1.7 C 42 %
2027 17-11-2019 01:49:17 -1.3 C 42 %
2028 17-11-2019 01:59:17 -1.2 C 42 %
2029 17-11-2019 02:09:17 -1 C 43 %
2030 17-11-2019 02:19:17 -1 C 43 %
2031 17-11-2019 02:29:17 -0.5 C 43 %
2032 17-11-2019 02:39:17 -0.3 C 43 %
2033 17-11-2019 02:49:17 -0.2 C 43 %
2034 17-11-2019 02:59:17 -0.2 C 43 %
2035 17-11-2019 03:09:17 0 C 43 %
2036 17-11-2019 03:19:17 0.1 C 43 %
2037 17-11-2019 03:29:17 0.2 C 43 %
2038 17-11-2019 03:39:17 0.3 C 43 %
2039 17-11-2019 03:49:17 0.5 C 43 %
2040 17-11-2019 03:59:17 0.5 C 43 %
2041 17-11-2019 04:09:17 0.7 C 43 %
2042 17-11-2019 04:19:17 0.8 C 43 %
2043 17-11-2019 04:29:17 0.9 C 43 %
2044 17-11-2019 04:39:17 0.9 C 43 %
2045 17-11-2019 04:49:17 0.8 C 43 %
2046 17-11-2019 04:59:17 0.8 C 43 %
2047 17-11-2019 05:09:17 0.8 C 43 %
2048 17-11-2019 05:19:17 0.8 C 43 %
2049 17-11-2019 05:29:17 1 C 42 %
2050 17-11-2019 05:39:17 0.8 C 43 %
Sensor: Nr:Datum:Temp:Feuchte:
Aussen-T/F 2051 17-11-2019 05:49:17 0.8 C 43 %
2052 17-11-2019 05:59:17 0.8 C 43 %
2053 17-11-2019 06:09:17 0.8 C 43 %
2054 17-11-2019 06:19:17 0.8 C 43 %
2055 17-11-2019 06:29:17 0.8 C 43 %
2056 17-11-2019 06:39:17 0.9 C 43 %
2057 17-11-2019 06:49:17 1 C 41 %
2058 17-11-2019 06:59:17 0.9 C 43 %
2059 17-11-2019 07:09:17 1 C 41 %
2060 17-11-2019 07:19:17 1 C 41 %
2061 17-11-2019 07:29:17 1 C 41 %
2062 17-11-2019 07:39:17 1.1 C 41 %
2063 17-11-2019 07:49:17 1.1 C 41 %
2064 17-11-2019 07:59:17 1.1 C 41 %
2065 17-11-2019 08:09:17 1.2 C 41 %
2066 17-11-2019 08:19:17 1.2 C 41 %
2067 17-11-2019 08:29:17 1.2 C 41 %
2068 17-11-2019 08:39:17 1.3 C 41 %
2069 17-11-2019 08:49:17 1.4 C 41 %
2070 17-11-2019 08:59:17 1.5 C 42 %
2071 17-11-2019 09:09:17 1.5 C 42 %
2072 17-11-2019 09:19:17 1.8 C 42 %
2073 17-11-2019 09:29:17 2 C 41 %
2074 17-11-2019 09:39:17 2.1 C 41 %
2075 17-11-2019 09:49:17 2.1 C 41 %
Sensor: Nr:Datum:Temp:Feuchte:
Aussen-T/F 2076 17-11-2019 09:59:17 2.3 C 41 %
2077 17-11-2019 10:09:17 2.5 C 42 %
2078 17-11-2019 10:19:17 2.6 C 42 %
2079 17-11-2019 10:29:17 2.6 C 42 %
2080 17-11-2019 10:39:17 2.7 C 41 %
2081 17-11-2019 10:49:17 2.8 C 41 %
2082 17-11-2019 10:59:17 3 C 41 %
2083 17-11-2019 11:09:17 3.2 C 40 %
2084 17-11-2019 11:19:17 3.3 C 40 %
2085 17-11-2019 11:29:17 3.5 C 39 %
2086 17-11-2019 11:39:17 3.5 C 39 %
2087 17-11-2019 11:49:17 3.5 C 39 %
2088 17-11-2019 11:59:17 3.7 C 38 %
2089 17-11-2019 12:09:17 3.9 C 38 %
2090 17-11-2019 12:19:17 3.8 C 38 %
2091 17-11-2019 12:29:17 3.9 C 38 %
2092 17-11-2019 12:39:17 4 C 37 %
2093 17-11-2019 12:49:17 4.1 C 37 %
2094 17-11-2019 12:59:17 4.4 C 37 %
2095 17-11-2019 13:09:17 4.5 C 36 %
2096 17-11-2019 13:19:17 4.6 C 33 %
2097 17-11-2019 13:29:17 4.7 C 32 %
2098 17-11-2019 13:39:17 4.7 C 32 %
2099 17-11-2019 13:49:17 4.8 C 32 %
2100 17-11-2019 13:59:17 4.8 C 32 %
Sensor: Nr:Datum:Temp:Feuchte:
Aussen-T/F 2101 17-11-2019 14:09:17 4.9 C 33 %
2102 17-11-2019 14:19:17 4.9 C 31 %
2103 17-11-2019 14:29:17 5.1 C 31 %
2104 17-11-2019 14:39:17 4.6 C 29 %
2105 17-11-2019 14:49:17 4.4 C 31 %
2106 17-11-2019 14:59:17 4.3 C 35 %
2107 17-11-2019 15:09:17 4.3 C 35 %
2108 17-11-2019 15:19:17 4.2 C 37 %
2109 17-11-2019 15:29:17 4.1 C 37 %
2110 17-11-2019 15:39:18 4.2 C 38 %
2111 17-11-2019 15:49:17 4 C 38 %
2112 17-11-2019 15:59:17 4 C 37 %
2113 17-11-2019 16:09:17 4 C 38 %
2114 17-11-2019 16:19:17 4 C 38 %
2115 17-11-2019 16:29:17 3.8 C 40 %
2116 17-11-2019 16:39:17 3.8 C 40 %
2117 17-11-2019 16:49:17 3.8 C 39 %
2118 17-11-2019 16:59:17 3.7 C 40 %
2119 17-11-2019 17:09:17 3.7 C 40 %
2120 17-11-2019 17:19:17 3.6 C 40 %
2121 17-11-2019 17:29:17 3.6 C 40 %
2122 17-11-2019 17:39:17 3.6 C 40 %
2123 17-11-2019 17:49:17 3.6 C 41 %
2124 17-11-2019 17:59:17 3.7 C 41 %
2125 17-11-2019 18:09:17 3.8 C 41 %
Sensor: Nr:Datum:Temp:Feuchte:
Aussen-T/F 2126 17-11-2019 18:19:17 3.9 C 42 %
2127 17-11-2019 18:29:17 3.9 C 42 %
2128 17-11-2019 18:39:17 3.9 C 41 %
2129 17-11-2019 18:49:17 3.9 C 41 %
2130 17-11-2019 18:59:17 3.8 C 41 %
2131 17-11-2019 19:09:17 3.8 C 40 %
2132 17-11-2019 19:19:17 3.8 C 41 %
2133 17-11-2019 19:29:17 3.8 C 41 %
2134 17-11-2019 19:39:17 3.8 C 41 %
2135 17-11-2019 19:49:17 3.9 C 41 %
2136 17-11-2019 19:59:17 3.9 C 41 %
2137 17-11-2019 20:09:17 3.9 C 41 %
2138 17-11-2019 20:19:17 3.9 C 41 %
2139 17-11-2019 20:29:17 3.9 C 41 %
2140 17-11-2019 20:39:17 3.9 C 41 %
2141 17-11-2019 20:49:17 4 C 40 %
2142 17-11-2019 20:59:17 4 C 40 %
2143 17-11-2019 21:09:17 3.9 C 41 %
2144 17-11-2019 21:19:17 4 C 40 %
2145 17-11-2019 21:29:17 3.9 C 41 %
2146 17-11-2019 21:39:17 3.9 C 41 %
2147 17-11-2019 21:49:17 3.9 C 41 %
2148 17-11-2019 21:59:17 3.9 C 41 %
2149 17-11-2019 22:09:17 3.9 C 41 %
2150 17-11-2019 22:19:17 3.9 C 41 %
Sensor: Nr:Datum:Temp:Feuchte:
Aussen-T/F 2151 17-11-2019 22:29:17 3.9 C 41 %
2152 17-11-2019 22:39:17 3.9 C 41 %
2153 17-11-2019 22:49:17 3.9 C 41 %
2154 17-11-2019 22:59:17 3.8 C 41 %
2155 17-11-2019 23:09:17 3.8 C 41 %
2156 17-11-2019 23:19:17 3.8 C 41 %
2157 17-11-2019 23:29:17 3.8 C 41 %
2158 17-11-2019 23:39:17 3.8 C 41 %
2159 17-11-2019 23:49:17 3.7 C 41 %
2160 17-11-2019 23:59:17 3.6 C 41 %
2161 18-11-2019 00:09:17 3.6 C 40 %
2162 18-11-2019 00:19:17 3.6 C 40 %
2163 18-11-2019 00:29:17 3.5 C 40 %
2164 18-11-2019 00:39:17 3.5 C 40 %
2165 18-11-2019 00:49:17 3.4 C 40 %
2166 18-11-2019 00:59:17 3.4 C 39 %
2167 18-11-2019 01:09:17 3.4 C 39 %
2168 18-11-2019 01:19:17 3.4 C 38 %
2169 18-11-2019 01:29:17 3.4 C 38 %
2170 18-11-2019 01:39:17 3.3 C 38 %
2171 18-11-2019 01:49:17 3.4 C 39 %
2172 18-11-2019 01:59:17 3.4 C 39 %
2173 18-11-2019 02:09:17 3.4 C 40 %
2174 18-11-2019 02:19:17 3.3 C 40 %
2175 18-11-2019 02:29:17 3.4 C 40 %
Sensor: Nr:Datum:Temp:Feuchte:
Aussen-T/F 2176 18-11-2019 02:39:17 3.4 C 40 %
2177 18-11-2019 02:49:17 3.4 C 40 %
2178 18-11-2019 02:59:17 3.3 C 40 %
2179 18-11-2019 03:09:17 3.3 C 40 %
2180 18-11-2019 03:19:17 3.4 C 41 %
2181 18-11-2019 03:29:17 3.4 C 41 %
2182 18-11-2019 03:39:17 3.3 C 40 %
2183 18-11-2019 03:49:17 3.4 C 40 %
2184 18-11-2019 03:59:17 3.4 C 40 %
2185 18-11-2019 04:09:17 3.4 C 40 %
2186 18-11-2019 04:19:17 3.3 C 40 %
2187 18-11-2019 04:29:17 3.4 C 40 %
2188 18-11-2019 04:39:18 3.3 C 40 %
2189 18-11-2019 04:49:17 3.3 C 40 %
2190 18-11-2019 04:59:17 3.3 C 40 %
2191 18-11-2019 05:09:17 3.4 C 40 %
2192 18-11-2019 05:19:18 3.3 C 40 %
2193 18-11-2019 05:29:18 3.3 C 40 %
2194 18-11-2019 05:39:17 3.3 C 41 %
2195 18-11-2019 05:49:17 3.3 C 40 %
2196 18-11-2019 05:59:17 3.3 C 41 %
2197 18-11-2019 06:09:17 3.3 C 41 %
2198 18-11-2019 06:19:17 3.3 C 41 %
2199 18-11-2019 06:29:17 3.2 C 41 %
2200 18-11-2019 06:39:17 3.2 C 41 %
Sensor: Nr:Datum:Temp:Feuchte:
Aussen-T/F 2201 18-11-2019 06:49:17 3.2 C 41 %
2202 18-11-2019 06:59:17 3.2 C 41 %
2203 18-11-2019 07:09:17 3.2 C 41 %
2204 18-11-2019 07:19:18 3.2 C 41 %
2205 18-11-2019 07:29:18 3.2 C 41 %
2206 18-11-2019 07:39:18 3.3 C 41 %
2207 18-11-2019 07:49:17 3.3 C 41 %
2208 18-11-2019 07:59:17 3.3 C 41 %
2209 18-11-2019 08:09:17 3.3 C 41 %
2210 18-11-2019 08:19:17 3.3 C 41 %
2211 18-11-2019 08:29:17 3.4 C 41 %
2212 18-11-2019 08:39:18 3.4 C 41 %
2213 18-11-2019 08:49:18 3.4 C 41 %
2214 18-11-2019 08:59:18 3.4 C 41 %
2215 18-11-2019 09:09:17 3.5 C 41 %
2216 18-11-2019 09:19:17 3.6 C 41 %
2217 18-11-2019 09:29:17 3.6 C 40 %
2218 18-11-2019 09:39:17 3.7 C 40 %
2219 18-11-2019 09:49:17 3.9 C 38 %
2220 18-11-2019 09:59:17 4.1 C 37 %
2221 18-11-2019 10:09:17 4.1 C 35 %
2222 18-11-2019 10:19:31 4.2 C 35 %
2223 18-11-2019 10:29:31 4.1 C 35 %
2224 18-11-2019 10:39:17 4.1 C 35 %
2225 18-11-2019 10:49:17 4.2 C 36 %
Sensor: Nr:Datum:Temp:Feuchte:
Aussen-T/F 2226 18-11-2019 10:59:17 4.1 C 35 %
2227 18-11-2019 11:09:17 4.1 C 35 %
2228 18-11-2019 11:19:17 4.2 C 35 %
2229 18-11-2019 11:29:17 4.3 C 34 %
2230 18-11-2019 11:39:17 4.4 C 34 %
2231 18-11-2019 11:49:17 4.7 C 33 %
2232 18-11-2019 11:59:17 5 C 29 %
2233 18-11-2019 12:09:17 4.9 C 30 %
2234 18-11-2019 12:19:17 5 C 28 %
2235 18-11-2019 12:29:17 4.8 C 30 %
2236 18-11-2019 12:39:17 4.8 C 30 %
2237 18-11-2019 12:49:17 4.8 C 30 %
2238 18-11-2019 12:59:17 4.8 C 30 %
2239 18-11-2019 13:09:17 4.7 C 30 %
2240 18-11-2019 13:19:17 4.7 C 31 %
2241 18-11-2019 13:29:17 4.8 C 30 %
2242 18-11-2019 13:39:17 4.8 C 30 %
2243 18-11-2019 13:49:17 4.8 C 29 %
2244 18-11-2019 13:59:17 4.8 C 30 %
2245 18-11-2019 14:09:17 4.8 C 28 %
2246 18-11-2019 14:19:17 4.8 C 30 %
2247 18-11-2019 14:29:17 4.8 C 30 %
2248 18-11-2019 14:39:17 4.8 C 30 %
2249 18-11-2019 14:49:17 4.6 C 30 %
2250 18-11-2019 14:59:17 4.5 C 30 %
Sensor: Nr:Datum:Temp:Feuchte:
Aussen-T/F 2251 18-11-2019 15:09:17 4.5 C 31 %
2252 18-11-2019 15:19:18 4.5 C 31 %
2253 18-11-2019 15:29:18 4.5 C 30 %
2254 18-11-2019 15:39:17 4.5 C 30 %
2255 18-11-2019 15:49:17 4.4 C 30 %
2256 18-11-2019 15:59:17 4.3 C 30 %
2257 18-11-2019 16:09:17 4.2 C 31 %
2258 18-11-2019 16:19:17 4.1 C 31 %
2259 18-11-2019 16:29:17 4.1 C 30 %
2260 18-11-2019 16:39:17 4.1 C 31 %
2261 18-11-2019 16:49:17 4.1 C 32 %
2262 18-11-2019 16:59:17 4.1 C 30 %
2263 18-11-2019 17:09:17 4.1 C 30 %
2264 18-11-2019 17:19:17 4.1 C 30 %
2265 18-11-2019 17:29:17 4 C 31 %
2266 18-11-2019 17:39:17 4 C 31 %
2267 18-11-2019 17:49:17 4 C 31 %
2268 18-11-2019 17:59:17 3.9 C 33 %
2269 18-11-2019 18:09:17 3.9 C 34 %
2270 18-11-2019 18:19:17 3.8 C 34 %
2271 18-11-2019 18:29:17 3.8 C 35 %
2272 18-11-2019 18:39:17 3.7 C 34 %
2273 18-11-2019 18:49:17 3.5 C 36 %
2274 18-11-2019 18:59:17 3.5 C 35 %
2275 18-11-2019 19:09:17 3.3 C 34 %
Sensor: Nr:Datum:Temp:Feuchte:
Aussen-T/F 2276 18-11-2019 19:19:17 3.2 C 34 %
2277 18-11-2019 19:29:17 3 C 36 %
2278 18-11-2019 19:39:17 2.9 C 36 %
2279 18-11-2019 19:49:17 2.7 C 36 %
2280 18-11-2019 19:59:17 2.7 C 36 %
2281 18-11-2019 20:09:17 2.4 C 36 %
2282 18-11-2019 20:19:17 2.3 C 37 %
2283 18-11-2019 20:29:17 2.2 C 36 %
2284 18-11-2019 20:39:17 2 C 37 %
2285 18-11-2019 20:49:17 1.9 C 39 %
2286 18-11-2019 20:59:17 1.8 C 38 %
2287 18-11-2019 21:09:17 1.6 C 40 %
2288 18-11-2019 21:19:17 1.5 C 39 %
2289 18-11-2019 21:29:17 1.5 C 40 %
2290 18-11-2019 21:39:17 1.5 C 40 %
2291 18-11-2019 21:49:17 1.6 C 40 %
2292 18-11-2019 21:59:17 1.8 C 40 %
2293 18-11-2019 22:09:17 2 C 38 %
2294 18-11-2019 22:19:17 2 C 38 %
2295 18-11-2019 22:29:17 2.2 C 36 %
2296 18-11-2019 22:39:17 2.2 C 36 %
2297 18-11-2019 22:49:17 2.2 C 36 %
2298 18-11-2019 22:59:17 2.2 C 36 %
2299 18-11-2019 23:09:17 2.2 C 36 %
2300 18-11-2019 23:19:17 2.4 C 36 %
Sensor: Nr:Datum:Temp:Feuchte:
Aussen-T/F 2301 18-11-2019 23:29:17 2.6 C 36 %
2302 18-11-2019 23:39:17 2.7 C 35 %
2303 18-11-2019 23:49:17 2.7 C 35 %
2304 18-11-2019 23:59:17 2.8 C 36 %
2305 19-11-2019 00:09:17 2.9 C 36 %
2306 19-11-2019 00:19:17 2.9 C 36 %
2307 19-11-2019 00:29:17 3 C 36 %
2308 19-11-2019 00:39:17 3 C 35 %
2309 19-11-2019 00:49:18 3 C 35 %
2310 19-11-2019 00:59:18 3 C 36 %
2311 19-11-2019 01:09:17 3.2 C 36 %
2312 19-11-2019 01:19:17 3.2 C 36 %
2313 19-11-2019 01:29:17 3.2 C 36 %
2314 19-11-2019 01:39:18 3.3 C 37 %
2315 19-11-2019 01:49:18 3.4 C 36 %
2316 19-11-2019 01:59:18 3.3 C 36 %
2317 19-11-2019 02:09:18 3.3 C 36 %
2318 19-11-2019 02:19:17 3.4 C 36 %
2319 19-11-2019 02:29:17 3.3 C 36 %
2320 19-11-2019 02:39:17 3.4 C 37 %
2321 19-11-2019 02:49:17 3.3 C 37 %
2322 19-11-2019 02:59:17 3.3 C 38 %
2323 19-11-2019 03:09:17 3.3 C 40 %
2324 19-11-2019 03:19:17 3.4 C 39 %
2325 19-11-2019 03:29:17 3.4 C 39 %
Sensor: Nr:Datum:Temp:Feuchte:
Aussen-T/F 2326 19-11-2019 03:39:17 3.5 C 37 %
2327 19-11-2019 03:49:17 3.5 C 37 %
2328 19-11-2019 03:59:17 3.5 C 38 %
2329 19-11-2019 04:09:17 3.6 C 37 %
2330 19-11-2019 04:19:18 3.6 C 36 %
2331 19-11-2019 04:29:18 3.5 C 36 %
2332 19-11-2019 04:39:17 3.5 C 37 %
2333 19-11-2019 04:49:17 3.4 C 37 %
2334 19-11-2019 04:59:17 3.1 C 39 %
2335 19-11-2019 05:09:17 2.5 C 40 %
2336 19-11-2019 05:19:18 2.3 C 41 %
2337 19-11-2019 05:29:18 2 C 42 %
2338 19-11-2019 05:39:17 1.6 C 43 %
2339 19-11-2019 05:49:17 1.5 C 43 %
2340 19-11-2019 05:59:17 1.8 C 44 %
2341 19-11-2019 06:09:17 1.8 C 44 %
2342 19-11-2019 06:19:17 1.7 C 43 %
2343 19-11-2019 06:29:17 1.7 C 43 %
2344 19-11-2019 06:39:17 1.8 C 43 %
2345 19-11-2019 06:49:17 2 C 42 %
2346 19-11-2019 06:59:17 2.1 C 42 %
2347 19-11-2019 07:09:17 2.4 C 42 %
2348 19-11-2019 07:19:17 2.2 C 42 %
2349 19-11-2019 07:29:17 1.5 C 42 %
2350 19-11-2019 07:39:17 1.3 C 42 %
Sensor: Nr:Datum:Temp:Feuchte:
Aussen-T/F 2351 19-11-2019 07:49:17 1.2 C 42 %
2352 19-11-2019 07:59:17 1.8 C 43 %
2353 19-11-2019 08:09:17 2.1 C 42 %
2354 19-11-2019 08:19:17 2.5 C 42 %
2355 19-11-2019 08:29:17 2.8 C 42 %
2356 19-11-2019 08:39:17 2.5 C 41 %
2357 19-11-2019 08:49:17 2.6 C 41 %
2358 19-11-2019 08:59:17 3.2 C 41 %
2359 19-11-2019 09:09:17 3.3 C 40 %
2360 19-11-2019 09:19:17 3.3 C 39 %
2361 19-11-2019 09:29:17 3.4 C 38 %
2362 19-11-2019 09:39:17 3.3 C 35 %
2363 19-11-2019 09:49:17 3.2 C 35 %
2364 19-11-2019 09:59:17 3.1 C 35 %
2365 19-11-2019 10:09:17 3.1 C 36 %
2366 19-11-2019 10:19:17 3.2 C 36 %
2367 19-11-2019 10:29:17 3.3 C 37 %
2368 19-11-2019 10:39:17 3.2 C 38 %
2369 19-11-2019 10:49:17 3.3 C 38 %
2370 19-11-2019 10:59:17 3.4 C 38 %
2371 19-11-2019 11:09:17 3.5 C 38 %
2372 19-11-2019 11:19:17 3.5 C 38 %
2373 19-11-2019 11:29:17 4.2 C 33 %
2374 19-11-2019 11:39:17 5 C 30 %
2375 19-11-2019 11:49:17 5.5 C 23 %
Sensor: Nr:Datum:Temp:Feuchte:
Aussen-T/F 2376 19-11-2019 11:59:17 5.5 C 23 %
2377 19-11-2019 12:09:17 5.5 C 23 %
2378 19-11-2019 12:19:17 6.2 C 20 %
2379 19-11-2019 12:29:17 6.3 C 20 %
2380 19-11-2019 12:39:17 5.5 C 20 %
2381 19-11-2019 12:49:17 5.6 C 20 %
2382 19-11-2019 12:59:17 5.7 C 20 %
2383 19-11-2019 13:09:17 5.8 C 20 %
2384 19-11-2019 13:19:17 5.7 C 20 %
2385 19-11-2019 13:29:17 5.8 C 20 %
2386 19-11-2019 13:39:17 5.7 C 20 %
2387 19-11-2019 13:49:17 6 C 20 %
2388 19-11-2019 13:59:17 6.3 C 20 %
2389 19-11-2019 14:09:17 6.2 C 20 %
2390 19-11-2019 14:19:17 6.2 C 20 %
2391 19-11-2019 14:29:17 6 C 20 %
2392 19-11-2019 14:39:17 5.9 C 20 %
2393 19-11-2019 14:49:17 5.8 C 20 %
2394 19-11-2019 14:59:17 5.9 C 25 %
2395 19-11-2019 15:09:17 5.8 C 23 %
2396 19-11-2019 15:19:18 5.6 C 28 %
2397 19-11-2019 15:29:18 5.4 C 30 %
2398 19-11-2019 15:39:17 5.1 C 32 %
2399 19-11-2019 15:49:17 4.9 C 30 %
2400 19-11-2019 15:59:17 4.8 C 32 %
Sensor: Nr:Datum:Temp:Feuchte:
Aussen-T/F 2401 19-11-2019 16:09:17 4.7 C 35 %
2402 19-11-2019 16:19:17 4.5 C 36 %
2403 19-11-2019 16:29:17 4.4 C 35 %
2404 19-11-2019 16:39:17 4.4 C 35 %
2405 19-11-2019 16:49:17 3.8 C 38 %
2406 19-11-2019 16:59:17 3.5 C 39 %
2407 19-11-2019 17:09:17 3.3 C 40 %
2408 19-11-2019 17:19:17 3.2 C 41 %
2409 19-11-2019 17:29:17 2.9 C 41 %
2410 19-11-2019 17:39:17 2.8 C 42 %
2411 19-11-2019 17:49:17 2.7 C 42 %
2412 19-11-2019 17:59:17 2.7 C 42 %
2413 19-11-2019 18:09:17 2.4 C 42 %
2414 19-11-2019 18:19:17 2.2 C 42 %
2415 19-11-2019 18:29:17 2.3 C 42 %
2416 19-11-2019 18:39:17 2.5 C 42 %
2417 19-11-2019 18:49:17 2.6 C 42 %
2418 19-11-2019 18:59:17 2 C 41 %
2419 19-11-2019 19:09:17 1.4 C 41 %
2420 19-11-2019 19:19:17 1.4 C 42 %
2421 19-11-2019 19:29:17 1.5 C 42 %
2422 19-11-2019 19:39:17 1.2 C 42 %
2423 19-11-2019 19:49:17 1 C 42 %
2424 19-11-2019 19:59:17 0.6 C 43 %
2425 19-11-2019 20:09:17 0.9 C 44 %
Sensor: Nr:Datum:Temp:Feuchte:
Aussen-T/F 2426 19-11-2019 20:19:17 1.5 C 43 %
2427 19-11-2019 20:29:17 1.8 C 43 %
2428 19-11-2019 20:39:17 1.9 C 43 %
2429 19-11-2019 20:49:17 1.9 C 43 %
2430 19-11-2019 20:59:17 1.9 C 43 %
2431 19-11-2019 21:09:17 1.9 C 43 %
2432 19-11-2019 21:19:17 1.9 C 43 %
2433 19-11-2019 21:29:17 1.9 C 42 %
2434 19-11-2019 21:39:17 2 C 41 %
2435 19-11-2019 21:49:17 2 C 41 %
2436 19-11-2019 21:59:17 1.9 C 42 %
2437 19-11-2019 22:09:17 1.7 C 42 %
2438 19-11-2019 22:19:17 1.5 C 41 %
2439 19-11-2019 22:29:17 1.4 C 41 %
2440 19-11-2019 22:39:17 1.1 C 41 %
2441 19-11-2019 22:49:17 0.6 C 41 %
2442 19-11-2019 22:59:17 0.6 C 42 %
2443 19-11-2019 23:09:17 -0.1 C 42 %
2444 19-11-2019 23:19:17 -0.2 C 42 %
2445 19-11-2019 23:29:17 -0.4 C 42 %
2446 19-11-2019 23:39:17 -0.5 C 42 %
2447 19-11-2019 23:49:17 -0.5 C 42 %
2448 19-11-2019 23:59:17 -0.6 C 42 %
2449 20-11-2019 00:09:17 -0.7 C 42 %
2450 20-11-2019 00:19:17 -0.6 C 42 %
Sensor: Nr:Datum:Temp:Feuchte:
Aussen-T/F 2451 20-11-2019 00:29:17 -0.5 C 42 %
2452 20-11-2019 00:39:17 -0.7 C 42 %
2453 20-11-2019 00:49:17 -0.7 C 43 %
2454 20-11-2019 00:59:17 -0.8 C 42 %
2455 20-11-2019 01:09:17 -0.8 C 42 %
2456 20-11-2019 01:19:17 -1.1 C 42 %
2457 20-11-2019 01:29:17 -1.1 C 42 %
2458 20-11-2019 01:39:17 -0.7 C 43 %
2459 20-11-2019 01:49:17 -0.6 C 43 %
2460 20-11-2019 01:59:17 -0.5 C 43 %
2461 20-11-2019 02:09:17 -0.4 C 43 %
2462 20-11-2019 02:19:17 -0.4 C 43 %
2463 20-11-2019 02:29:17 -0.5 C 43 %
2464 20-11-2019 02:39:17 -0.5 C 43 %
2465 20-11-2019 02:49:17 -0.4 C 43 %
2466 20-11-2019 02:59:17 -0.4 C 43 %
2467 20-11-2019 03:09:17 -0.3 C 43 %
2468 20-11-2019 03:19:17 -0.3 C 43 %
2469 20-11-2019 03:29:17 -0.4 C 43 %
2470 20-11-2019 03:39:17 -0.5 C 43 %
2471 20-11-2019 03:49:17 -0.5 C 43 %
2472 20-11-2019 03:59:17 -0.7 C 43 %
2473 20-11-2019 04:09:17 -0.6 C 43 %
2474 20-11-2019 04:19:17 -0.5 C 43 %
2475 20-11-2019 04:29:17 -0.6 C 42 %
Sensor: Nr:Datum:Temp:Feuchte:
Aussen-T/F 2476 20-11-2019 04:39:17 -0.5 C 42 %
2477 20-11-2019 04:49:17 -0.5 C 42 %
2478 20-11-2019 04:59:17 -0.4 C 42 %
2479 20-11-2019 05:09:17 -0.3 C 42 %
2480 20-11-2019 05:19:17 -0.3 C 42 %
2481 20-11-2019 05:29:17 -0.3 C 42 %
2482 20-11-2019 05:39:17 -0.3 C 42 %
2483 20-11-2019 05:49:17 -0.3 C 42 %
2484 20-11-2019 05:59:17 -0.2 C 42 %
2485 20-11-2019 06:09:17 -0.1 C 42 %
2486 20-11-2019 06:19:17 -0.1 C 42 %
2487 20-11-2019 06:29:17 0 C 42 %
2488 20-11-2019 06:39:17 0 C 42 %
2489 20-11-2019 06:49:17 0 C 42 %
2490 20-11-2019 06:59:17 0.2 C 42 %
2491 20-11-2019 07:09:17 0.2 C 42 %
2492 20-11-2019 07:19:17 0.2 C 42 %
2493 20-11-2019 07:29:17 0.4 C 42 %
2494 20-11-2019 07:39:18 0.3 C 42 %
2495 20-11-2019 07:49:17 0.4 C 42 %
2496 20-11-2019 07:59:17 0.4 C 42 %
2497 20-11-2019 08:09:17 0.4 C 42 %
2498 20-11-2019 08:19:17 0.5 C 42 %
2499 20-11-2019 08:29:17 0.6 C 42 %
2500 20-11-2019 08:39:17 0.7 C 43 %
Sensor: Nr:Datum:Temp:Feuchte:
Aussen-T/F 2501 20-11-2019 08:49:17 0.8 C 43 %
2502 20-11-2019 08:59:17 0.9 C 43 %
2503 20-11-2019 09:09:17 1.1 C 42 %
2504 20-11-2019 09:19:17 1 C 42 %
2505 20-11-2019 09:29:17 1.2 C 42 %
2506 20-11-2019 09:39:17 1.6 C 42 %
2507 20-11-2019 09:49:17 1.7 C 42 %
2508 20-11-2019 09:59:17 2 C 41 %
2509 20-11-2019 10:09:17 2.1 C 41 %
2510 20-11-2019 10:19:17 2.4 C 41 %
2511 20-11-2019 10:29:17 2.9 C 41 %
2512 20-11-2019 10:39:17 3 C 39 %
2513 20-11-2019 10:49:17 2.6 C 39 %
2514 20-11-2019 10:59:17 2.5 C 38 %
2515 20-11-2019 11:09:17 2.6 C 38 %
2516 20-11-2019 11:19:17 3.3 C 38 %
2517 20-11-2019 11:29:17 3.3 C 37 %
2518 20-11-2019 11:39:17 3 C 35 %
2519 20-11-2019 11:49:17 3.7 C 35 %
2520 20-11-2019 11:59:17 4.3 C 31 %
2521 20-11-2019 12:09:17 3.9 C 30 %
2522 20-11-2019 12:19:17 4.3 C 30 %
2523 20-11-2019 12:29:17 4.5 C 30 %
2524 20-11-2019 12:39:17 4.5 C 27 %
2525 20-11-2019 12:49:17 4.6 C 26 %
Sensor: Nr:Datum:Temp:Feuchte:
Aussen-T/F 2526 20-11-2019 12:59:17 4.5 C 26 %
2527 20-11-2019 13:09:17 4.7 C 25 %
2528 20-11-2019 13:19:17 4.5 C 23 %
2529 20-11-2019 13:29:17 4.4 C 23 %
2530 20-11-2019 13:39:17 4.7 C 20 %
2531 20-11-2019 13:49:17 5.1 C 20 %
2532 20-11-2019 13:59:17 4.8 C 20 %
2533 20-11-2019 14:09:17 4.8 C 20 %
2534 20-11-2019 14:19:17 4.8 C 20 %
2535 20-11-2019 14:29:17 4.7 C 20 %
2536 20-11-2019 14:39:17 4.7 C 20 %
2537 20-11-2019 14:49:17 4.7 C 20 %
2538 20-11-2019 14:59:17 4.7 C 20 %
2539 20-11-2019 15:09:17 4.7 C 20 %
2540 20-11-2019 15:19:17 4.7 C 20 %
2541 20-11-2019 15:29:17 4.6 C 20 %
2542 20-11-2019 15:39:17 4.5 C 20 %
2543 20-11-2019 15:49:17 4.3 C 21 %
2544 20-11-2019 15:59:17 3.4 C 26 %
2545 20-11-2019 16:09:17 2.7 C 28 %
2546 20-11-2019 16:19:17 2.2 C 29 %
2547 20-11-2019 16:29:17 1.8 C 30 %
2548 20-11-2019 16:39:17 1.8 C 30 %
2549 20-11-2019 16:49:17 1.5 C 32 %
2550 20-11-2019 16:59:17 1.5 C 32 %
Sensor: Nr:Datum:Temp:Feuchte:
Aussen-T/F 2551 20-11-2019 17:09:17 1.7 C 32 %
2552 20-11-2019 17:19:17 1.8 C 34 %
2553 20-11-2019 17:29:17 1.7 C 35 %
2554 20-11-2019 17:39:17 0.9 C 35 %
2555 20-11-2019 17:49:17 0.5 C 38 %
2556 20-11-2019 17:59:17 0.6 C 40 %
2557 20-11-2019 18:09:17 0.3 C 40 %
2558 20-11-2019 18:19:17 0.2 C 41 %
2559 20-11-2019 18:29:17 0.1 C 40 %
2560 20-11-2019 18:39:17 0 C 41 %
2561 20-11-2019 18:49:17 -0.2 C 41 %
2562 20-11-2019 18:59:17 -0.7 C 41 %
2563 20-11-2019 19:09:17 -0.9 C 41 %
2564 20-11-2019 19:19:17 -1.1 C 41 %
2565 20-11-2019 19:29:17 -1.2 C 41 %
2566 20-11-2019 19:39:18 -1.2 C 42 %
2567 20-11-2019 19:49:18 -1.4 C 42 %
2568 20-11-2019 19:59:18 -1.5 C 42 %
2569 20-11-2019 20:09:18 -1.6 C 42 %
2570 20-11-2019 20:19:17 -1.7 C 42 %
2571 20-11-2019 20:29:17 -1.4 C 43 %
2572 20-11-2019 20:39:17 -1.4 C 43 %
2573 20-11-2019 20:59:17 -1.7 C 43 %
2574 20-11-2019 20:59:17 -1.8 C 43 %
2575 20-11-2019 21:09:17 -1.8 C 42 %
Sensor: Nr:Datum:Temp:Feuchte:
Aussen-T/F 2576 20-11-2019 21:19:17 -2 C 42 %
2577 20-11-2019 21:29:17 -2.1 C 42 %
2578 20-11-2019 21:39:17 -2.1 C 42 %
2579 20-11-2019 21:49:17 -2.3 C 42 %
2580 20-11-2019 21:59:17 -2.1 C 42 %
2581 20-11-2019 22:09:17 -2 C 43 %
2582 20-11-2019 22:19:17 -2.1 C 42 %
2583 20-11-2019 22:29:17 -2.2 C 42 %
2584 20-11-2019 22:39:17 -2.1 C 42 %
2585 20-11-2019 22:49:17 -1.8 C 43 %
2586 20-11-2019 22:59:17 -1.7 C 43 %
2587 20-11-2019 23:09:17 -1.6 C 43 %
2588 20-11-2019 23:19:17 -1.4 C 43 %
2589 20-11-2019 23:29:17 -1.6 C 43 %
2590 20-11-2019 23:39:17 -1.3 C 43 %
2591 20-11-2019 23:49:17 -1.1 C 43 %
2592 20-11-2019 23:59:17 -1.1 C 43 %
2593 21-11-2019 00:09:17 -1.3 C 43 %
2594 21-11-2019 00:29:17 -1.8 C 42 %
2595 21-11-2019 00:30:17 -1.9 C 42 %
2596 21-11-2019 00:39:17 -2 C 41 %
2597 21-11-2019 00:50:17 -2.1 C 41 %
2598 21-11-2019 01:00:17 -2.4 C 41 %
2599 21-11-2019 01:10:17 -2.4 C 41 %
2600 21-11-2019 01:20:17 -2.5 C 41 %
Sensor: Nr:Datum:Temp:Feuchte:
Aussen-T/F 2601 21-11-2019 01:30:17 -2.3 C 41 %
2602 21-11-2019 01:40:17 -2.7 C 40 %
2603 21-11-2019 01:50:17 -2.6 C 41 %
2604 21-11-2019 02:00:17 -2.6 C 40 %
2605 21-11-2019 02:10:17 -2.7 C 40 %
2606 21-11-2019 02:20:17 -2.2 C 42 %
2607 21-11-2019 02:30:17 -2.3 C 42 %
2608 21-11-2019 02:40:17 -1.9 C 42 %
2609 21-11-2019 02:50:17 -2.1 C 42 %
2610 21-11-2019 03:00:17 -2.2 C 41 %
2611 21-11-2019 03:10:17 -2.4 C 41 %
2612 21-11-2019 03:20:17 -2.3 C 41 %
2613 21-11-2019 03:30:17 -2.1 C 42 %
2614 21-11-2019 03:40:17 -1.8 C 42 %
2615 21-11-2019 03:50:17 -1.6 C 42 %
2616 21-11-2019 04:00:17 -1.5 C 42 %
2617 21-11-2019 04:10:17 -1.3 C 43 %
2618 21-11-2019 04:20:17 -1.1 C 43 %
2619 21-11-2019 04:30:17 -1 C 43 %
2620 21-11-2019 04:40:17 -1 C 43 %
2621 21-11-2019 04:50:17 -1 C 43 %
2622 21-11-2019 05:00:17 -1 C 43 %
2623 21-11-2019 05:10:17 -0.7 C 43 %
2624 21-11-2019 05:20:17 -0.6 C 43 %
2625 21-11-2019 05:30:17 -0.6 C 43 %
Sensor: Nr:Datum:Temp:Feuchte:
Aussen-T/F 2626 21-11-2019 05:40:17 -0.5 C 43 %
2627 21-11-2019 05:50:17 -0.4 C 43 %
2628 21-11-2019 06:00:17 -0.3 C 43 %
2629 21-11-2019 06:10:17 -0.3 C 43 %
2630 21-11-2019 06:20:17 -0.3 C 43 %
2631 21-11-2019 06:30:17 -0.3 C 43 %
2632 21-11-2019 06:40:17 -0.3 C 43 %
2633 21-11-2019 06:50:17 -0.2 C 43 %
2634 21-11-2019 07:00:17 -0.2 C 43 %
2635 21-11-2019 07:10:17 -0.2 C 43 %
2636 21-11-2019 07:20:17 -0.1 C 43 %
2637 21-11-2019 07:30:17 -0.2 C 43 %
2638 21-11-2019 07:40:17 -0.2 C 43 %
2639 21-11-2019 07:50:17 -0.1 C 43 %
2640 21-11-2019 08:00:17 -0.1 C 43 %
2641 21-11-2019 08:10:17 0 C 43 %
2642 21-11-2019 08:20:17 0 C 43 %
2643 21-11-2019 08:30:17 0.1 C 43 %
2644 21-11-2019 08:40:17 0.2 C 43 %
2645 21-11-2019 08:50:17 0.2 C 43 %
2646 21-11-2019 09:00:17 0.2 C 43 %
2647 21-11-2019 09:10:17 0.3 C 43 %
2648 21-11-2019 09:20:17 0.4 C 43 %
2649 21-11-2019 09:30:17 0.6 C 43 %
2650 21-11-2019 09:40:17 0.8 C 43 %
Sensor: Nr:Datum:Temp:Feuchte:
Aussen-T/F 2651 21-11-2019 09:50:17 1.1 C 42 %
2652 21-11-2019 10:00:17 1.1 C 41 %
2653 21-11-2019 10:10:17 1.2 C 40 %
2654 21-11-2019 10:20:17 1.6 C 40 %
2655 21-11-2019 10:30:17 1.5 C 39 %
2656 21-11-2019 10:40:17 1.5 C 39 %
2657 21-11-2019 10:50:17 1.7 C 38 %
2658 21-11-2019 11:00:17 2.1 C 37 %
2659 21-11-2019 11:10:17 2.2 C 37 %
2660 21-11-2019 11:20:17 2.3 C 34 %
2661 21-11-2019 11:30:17 2.5 C 33 %
2662 21-11-2019 11:40:17 2.7 C 33 %
2663 21-11-2019 11:50:17 3 C 32 %
2664 21-11-2019 12:00:17 2.8 C 32 %
2665 21-11-2019 12:10:17 2.5 C 33 %
2666 21-11-2019 12:20:17 2.6 C 34 %
2667 21-11-2019 12:30:18 2.8 C 35 %
2668 21-11-2019 12:40:18 3.1 C 35 %
2669 21-11-2019 12:50:18 3.3 C 34 %
2670 21-11-2019 13:00:17 3.1 C 31 %
2671 21-11-2019 13:10:17 3.7 C 34 %
2672 21-11-2019 13:20:17 3.9 C 31 %
2673 21-11-2019 13:30:17 4.1 C 32 %
2674 21-11-2019 13:40:17 4 C 31 %
2675 21-11-2019 13:50:17 3.9 C 32 %
Sensor: Nr:Datum:Temp:Feuchte:
Aussen-T/F 2676 21-11-2019 14:00:17 3.9 C 31 %
2677 21-11-2019 14:10:17 3.9 C 30 %
2678 21-11-2019 14:20:17 4.2 C 31 %
2679 21-11-2019 14:30:17 4.4 C 31 %
2680 21-11-2019 14:40:17 4.4 C 30 %
2681 21-11-2019 14:50:17 4.1 C 29 %
2682 21-11-2019 15:00:17 4.1 C 30 %
2683 21-11-2019 15:10:17 4.2 C 29 %
2684 21-11-2019 15:20:17 4.4 C 30 %
2685 21-11-2019 15:30:17 4.3 C 30 %
2686 21-11-2019 15:40:17 4.2 C 29 %
2687 21-11-2019 15:50:17 4.3 C 30 %
2688 21-11-2019 16:00:17 4.3 C 30 %
2689 21-11-2019 16:10:17 4.2 C 31 %
2690 21-11-2019 16:20:17 4 C 33 %
2691 21-11-2019 16:30:17 3.9 C 36 %
2692 21-11-2019 16:40:17 3.7 C 37 %
2693 21-11-2019 16:50:17 3.7 C 39 %
2694 21-11-2019 17:00:17 3.6 C 39 %
2695 21-11-2019 17:10:17 3.6 C 38 %
2696 21-11-2019 17:20:17 3.5 C 39 %
2697 21-11-2019 17:30:17 3.4 C 39 %
2698 21-11-2019 17:40:17 3.4 C 39 %
2699 21-11-2019 17:50:17 3.3 C 39 %
2700 21-11-2019 18:00:17 3.3 C 39 %
Sensor: Nr:Datum:Temp:Feuchte:
Aussen-T/F 2701 21-11-2019 18:10:17 3.3 C 39 %
2702 21-11-2019 18:20:17 3.3 C 38 %
2703 21-11-2019 18:30:17 3.3 C 39 %
2704 21-11-2019 18:40:17 3.4 C 39 %
2705 21-11-2019 18:50:17 3.3 C 40 %
2706 21-11-2019 19:00:17 3.3 C 40 %
2707 21-11-2019 19:10:17 3.2 C 40 %
2708 21-11-2019 19:20:17 3 C 39 %
2709 21-11-2019 19:30:17 3 C 40 %
2710 21-11-2019 19:40:17 3.1 C 41 %
2711 21-11-2019 19:50:17 2.9 C 41 %
2712 21-11-2019 20:00:17 2.5 C 40 %
2713 21-11-2019 20:10:17 2 C 40 %
2714 21-11-2019 20:20:17 1.9 C 42 %
2715 21-11-2019 20:30:17 2.1 C 42 %
2716 21-11-2019 20:40:17 1.6 C 42 %
2717 21-11-2019 20:50:17 1.5 C 42 %
2718 21-11-2019 21:00:17 1.6 C 43 %
2719 21-11-2019 21:10:17 1.6 C 43 %
2720 21-11-2019 21:20:17 1.3 C 43 %
2721 21-11-2019 21:30:17 1.3 C 43 %
2722 21-11-2019 21:40:17 1.5 C 43 %
2723 21-11-2019 21:50:17 1.2 C 43 %
2724 21-11-2019 22:00:17 1 C 42 %
2725 21-11-2019 22:10:17 0.8 C 44 %
Sensor: Nr:Datum:Temp:Feuchte:
Aussen-T/F 2726 21-11-2019 22:20:17 1.2 C 43 %
2727 21-11-2019 22:30:17 0.9 C 44 %
2728 21-11-2019 22:40:17 0.8 C 44 %
2729 21-11-2019 22:50:17 1 C 43 %
2730 21-11-2019 23:00:17 1.1 C 43 %
2731 21-11-2019 23:10:17 1.4 C 43 %
2732 21-11-2019 23:20:17 1 C 43 %
2733 21-11-2019 23:30:17 1 C 43 %
2734 21-11-2019 23:40:17 1.5 C 43 %
2735 21-11-2019 23:50:17 1.5 C 43 %
2736 22-11-2019 00:00:17 1.3 C 43 %
2737 22-11-2019 00:10:17 1.3 C 43 %
2738 22-11-2019 00:20:17 1.3 C 43 %
2739 22-11-2019 00:30:17 1.3 C 43 %
2740 22-11-2019 00:40:17 1 C 42 %
2741 22-11-2019 00:50:17 1.1 C 42 %
2742 22-11-2019 01:00:17 1 C 42 %
2743 22-11-2019 01:10:17 1.2 C 43 %
2744 22-11-2019 01:20:17 0.9 C 43 %
2745 22-11-2019 01:30:17 1 C 42 %
2746 22-11-2019 01:40:17 1 C 42 %
2747 22-11-2019 01:50:17 0.6 C 43 %
2748 22-11-2019 02:00:17 0.4 C 43 %
2749 22-11-2019 02:10:17 0 C 42 %
2750 22-11-2019 02:20:17 1 C 42 %
Sensor: Nr:Datum:Temp:Feuchte:
Aussen-T/F 2751 22-11-2019 02:30:17 0.8 C 44 %
2752 22-11-2019 02:40:17 0.7 C 43 %
2753 22-11-2019 02:50:17 0.5 C 43 %
2754 22-11-2019 03:00:17 0.6 C 43 %
2755 22-11-2019 03:10:17 0.8 C 44 %
2756 22-11-2019 03:20:17 0.8 C 43 %
2757 22-11-2019 03:30:17 0.6 C 43 %
2758 22-11-2019 03:40:17 0.7 C 43 %
2759 22-11-2019 03:50:17 1.1 C 42 %
2760 22-11-2019 04:00:17 1.1 C 42 %
2761 22-11-2019 04:10:17 1.1 C 42 %
2762 22-11-2019 04:20:17 1.2 C 42 %
2763 22-11-2019 04:30:17 1.3 C 42 %
2764 22-11-2019 04:40:17 1.3 C 42 %
2765 22-11-2019 04:50:17 1.2 C 42 %
2766 22-11-2019 05:00:18 1.4 C 42 %
2767 22-11-2019 05:10:18 1.6 C 42 %
2768 22-11-2019 05:20:17 1.9 C 42 %
2769 22-11-2019 05:30:17 2.1 C 41 %
2770 22-11-2019 05:40:17 2.2 C 41 %
2771 22-11-2019 05:50:17 2.6 C 41 %
2772 22-11-2019 06:00:18 2.5 C 41 %
2773 22-11-2019 06:10:18 2.8 C 41 %
2774 22-11-2019 06:20:18 2.6 C 41 %
2775 22-11-2019 06:30:18 2.7 C 41 %
Sensor: Nr:Datum:Temp:Feuchte:
Aussen-T/F 2776 22-11-2019 06:40:18 2.9 C 41 %
2777 22-11-2019 06:50:18 3 C 41 %
2778 22-11-2019 07:00:17 3 C 41 %
2779 22-11-2019 07:10:17 3 C 41 %
2780 22-11-2019 07:20:17 3.1 C 41 %
2781 22-11-2019 07:30:17 3.2 C 41 %
2782 22-11-2019 07:40:17 3.4 C 41 %
2783 22-11-2019 07:50:17 3.4 C 41 %
2784 22-11-2019 08:00:17 3.4 C 41 %
2785 22-11-2019 08:10:17 3.5 C 41 %
2786 22-11-2019 08:20:17 3.7 C 41 %
2787 22-11-2019 08:30:17 3.8 C 41 %
2788 22-11-2019 08:40:17 3.7 C 41 %
2789 22-11-2019 08:50:17 3.7 C 41 %
2790 22-11-2019 09:00:17 3.9 C 41 %
2791 22-11-2019 09:10:17 3.9 C 40 %
2792 22-11-2019 09:20:17 4 C 39 %
2793 22-11-2019 09:30:17 3.8 C 39 %
2794 22-11-2019 09:40:17 3.7 C 39 %
2795 22-11-2019 09:50:17 3.5 C 39 %
2796 22-11-2019 10:00:17 3.3 C 39 %
2797 22-11-2019 10:10:17 3.5 C 40 %
2798 22-11-2019 10:20:17 3.5 C 39 %
2799 22-11-2019 10:30:17 3.6 C 40 %
2800 22-11-2019 10:40:17 4.1 C 39 %
Sensor: Nr:Datum:Temp:Feuchte:
Aussen-T/F 2801 22-11-2019 10:50:17 4.3 C 39 %
2802 22-11-2019 11:00:17 4.2 C 38 %
2803 22-11-2019 11:10:17 4.4 C 38 %
2804 22-11-2019 11:20:17 4.5 C 37 %
2805 22-11-2019 11:30:17 5 C 35 %
2806 22-11-2019 11:40:17 5.3 C 33 %
2807 22-11-2019 11:50:17 5.3 C 32 %
2808 22-11-2019 12:00:17 5.6 C 32 %
2809 22-11-2019 12:10:17 5.5 C 32 %
2810 22-11-2019 12:20:17 5.6 C 32 %
2811 22-11-2019 12:30:17 5.6 C 32 %
2812 22-11-2019 12:40:17 5.8 C 32 %
2813 22-11-2019 12:50:17 5.8 C 31 %
2814 22-11-2019 13:00:17 5.7 C 30 %
2815 22-11-2019 13:10:17 5.9 C 31 %
2816 22-11-2019 13:20:17 6 C 30 %
2817 22-11-2019 13:30:17 5.7 C 29 %
2818 22-11-2019 13:40:17 5.5 C 29 %
2819 22-11-2019 13:50:17 5.5 C 29 %
2820 22-11-2019 14:00:17 5.5 C 29 %
2821 22-11-2019 14:10:17 5.7 C 29 %
2822 22-11-2019 14:20:17 5.7 C 28 %
2823 22-11-2019 14:30:17 5.9 C 28 %
2824 22-11-2019 14:40:17 5.8 C 27 %
2825 22-11-2019 14:50:17 5.8 C 28 %
Sensor: Nr:Datum:Temp:Feuchte:
Aussen-T/F 2826 22-11-2019 15:00:17 5.6 C 28 %
2827 22-11-2019 15:10:17 5.6 C 28 %
2828 22-11-2019 15:20:17 5.6 C 29 %
2829 22-11-2019 15:30:17 5.5 C 28 %
2830 22-11-2019 15:40:17 5.4 C 29 %
2831 22-11-2019 15:50:17 5.4 C 29 %
2832 22-11-2019 16:00:17 5.3 C 29 %
2833 22-11-2019 16:10:17 5.3 C 30 %
2834 22-11-2019 16:20:17 5.2 C 30 %
2835 22-11-2019 16:30:17 5.2 C 30 %
2836 22-11-2019 16:40:17 5.1 C 31 %
2837 22-11-2019 16:50:17 5 C 31 %
2838 22-11-2019 17:00:17 4.9 C 32 %
2839 22-11-2019 17:10:17 4.9 C 33 %
2840 22-11-2019 17:20:17 4.8 C 34 %
2841 22-11-2019 17:30:17 4.9 C 33 %
2842 22-11-2019 17:40:17 4.9 C 32 %
2843 22-11-2019 17:50:17 5 C 31 %
2844 22-11-2019 18:00:17 5 C 30 %
2845 22-11-2019 18:10:17 4.8 C 32 %
2846 22-11-2019 18:20:17 4.7 C 34 %
2847 22-11-2019 18:30:17 4.8 C 33 %
2848 22-11-2019 18:40:17 4.8 C 32 %
2849 22-11-2019 18:50:17 4.8 C 32 %
2850 22-11-2019 19:00:17 4.8 C 31 %
Sensor: Nr:Datum:Temp:Feuchte:
Aussen-T/F 2851 22-11-2019 19:10:17 4.7 C 32 %
2852 22-11-2019 19:20:17 4.8 C 30 %
2853 22-11-2019 19:30:17 4.8 C 30 %
2854 22-11-2019 19:40:17 4.8 C 30 %
2855 22-11-2019 19:50:17 4.7 C 31 %
2856 22-11-2019 20:00:17 4.6 C 31 %
2857 22-11-2019 20:10:17 4.6 C 30 %
2858 22-11-2019 20:20:17 4.6 C 30 %
2859 22-11-2019 20:30:17 4.5 C 30 %
2860 22-11-2019 20:40:17 4.5 C 30 %
2861 22-11-2019 20:50:17 4.3 C 30 %
2862 22-11-2019 21:00:17 4.3 C 30 %
2863 22-11-2019 21:10:17 4.4 C 31 %
2864 22-11-2019 21:20:17 4.3 C 31 %
2865 22-11-2019 21:30:17 4.3 C 31 %
2866 22-11-2019 21:40:17 4.3 C 31 %
2867 22-11-2019 21:50:17 4.3 C 30 %
2868 22-11-2019 22:00:17 4.2 C 31 %
2869 22-11-2019 22:10:17 4.2 C 31 %
2870 22-11-2019 22:20:17 4.2 C 30 %
2871 22-11-2019 22:30:17 4.2 C 30 %
2872 22-11-2019 22:40:17 4.2 C 29 %
2873 22-11-2019 22:50:17 4.1 C 30 %
2874 22-11-2019 23:00:17 4 C 30 %
2875 22-11-2019 23:10:17 4.1 C 28 %
Sensor: Nr:Datum:Temp:Feuchte:
Aussen-T/F 2876 22-11-2019 23:20:17 4 C 30 %
2877 22-11-2019 23:30:17 4 C 30 %
2878 22-11-2019 23:40:17 4 C 30 %
2879 22-11-2019 23:50:17 3.9 C 31 %
2880 23-11-2019 00:00:17 4 C 29 %
2881 23-11-2019 00:10:17 4 C 29 %
2882 23-11-2019 00:20:17 4 C 29 %
2883 23-11-2019 00:30:17 4 C 29 %
2884 23-11-2019 00:40:17 4 C 28 %
2885 23-11-2019 00:50:17 4 C 29 %
2886 23-11-2019 01:00:17 4.1 C 28 %
2887 23-11-2019 01:10:17 4.2 C 27 %
2888 23-11-2019 01:20:17 4.1 C 29 %
2889 23-11-2019 01:30:17 4 C 30 %
2890 23-11-2019 01:40:17 4.1 C 29 %
2891 23-11-2019 01:50:17 4 C 29 %
2892 23-11-2019 02:00:17 4.1 C 27 %
2893 23-11-2019 02:10:17 4.1 C 27 %
2894 23-11-2019 02:20:17 4 C 30 %
2895 23-11-2019 02:30:18 3.8 C 32 %
2896 23-11-2019 02:40:18 3.7 C 32 %
2897 23-11-2019 02:50:17 3.6 C 32 %
2898 23-11-2019 03:00:17 3.6 C 33 %
2899 23-11-2019 03:10:17 3.7 C 32 %
2900 23-11-2019 03:20:17 3.8 C 31 %
Sensor: Nr:Datum:Temp:Feuchte:
Aussen-T/F 2901 23-11-2019 03:30:17 3.7 C 32 %
2902 23-11-2019 03:40:17 3.5 C 33 %
2903 23-11-2019 03:50:17 3.2 C 34 %
2904 23-11-2019 04:00:17 3.2 C 35 %
2905 23-11-2019 04:10:17 3.1 C 38 %
2906 23-11-2019 04:20:17 3.3 C 36 %
2907 23-11-2019 04:30:17 3 C 36 %
2908 23-11-2019 04:40:17 3 C 37 %
2909 23-11-2019 04:50:17 3 C 37 %
2910 23-11-2019 05:00:17 3 C 38 %
2911 23-11-2019 05:10:17 3 C 39 %
2912 23-11-2019 05:20:17 2.7 C 39 %
2913 23-11-2019 05:30:17 2.9 C 40 %
2914 23-11-2019 05:40:17 2.8 C 40 %
2915 23-11-2019 05:50:17 2.9 C 40 %
2916 23-11-2019 06:00:17 3 C 39 %
2917 23-11-2019 06:10:17 3 C 39 %
2918 23-11-2019 06:20:17 3 C 39 %
2919 23-11-2019 06:30:17 3 C 40 %
2920 23-11-2019 06:40:17 3.1 C 40 %
2921 23-11-2019 06:50:17 3 C 40 %
2922 23-11-2019 07:00:17 3.2 C 40 %
2923 23-11-2019 07:10:17 3.2 C 39 %
2924 23-11-2019 07:20:17 3.3 C 40 %
2925 23-11-2019 07:30:17 3.2 C 39 %
Sensor: Nr:Datum:Temp:Feuchte:
Aussen-T/F 2926 23-11-2019 07:40:17 3.3 C 40 %
2927 23-11-2019 07:50:17 3.2 C 40 %
2928 23-11-2019 08:00:17 3.3 C 39 %
2929 23-11-2019 08:10:17 3.3 C 40 %
2930 23-11-2019 08:20:17 3.2 C 40 %
2931 23-11-2019 08:30:17 3.3 C 40 %
2932 23-11-2019 08:40:17 3.4 C 40 %
2933 23-11-2019 08:50:17 3.8 C 37 %
2934 23-11-2019 09:00:17 4.2 C 33 %
2935 23-11-2019 09:10:17 4.3 C 33 %
2936 23-11-2019 09:20:17 4.5 C 33 %
2937 23-11-2019 09:30:17 4.9 C 31 %
2938 23-11-2019 09:40:17 5.1 C 31 %
2939 23-11-2019 09:50:17 5.4 C 27 %
2940 23-11-2019 10:00:17 5.4 C 26 %
2941 23-11-2019 10:10:17 5.7 C 26 %
2942 23-11-2019 10:20:17 6 C 26 %
2943 23-11-2019 10:30:17 6 C 25 %
2944 23-11-2019 10:40:17 6.1 C 26 %
2945 23-11-2019 10:50:17 6.2 C 25 %
2946 23-11-2019 11:00:17 6.4 C 25 %
2947 23-11-2019 11:10:17 6.6 C 25 %
2948 23-11-2019 11:20:17 6.7 C 25 %
2949 23-11-2019 11:30:17 7.1 C 21 %
2950 23-11-2019 11:40:17 7.1 C 23 %
Sensor: Nr:Datum:Temp:Feuchte:
Aussen-T/F 2951 23-11-2019 11:50:17 7 C 25 %
2952 23-11-2019 12:00:17 6.4 C 28 %
2953 23-11-2019 12:10:17 6.4 C 28 %
2954 23-11-2019 12:20:17 6.5 C 27 %
2955 23-11-2019 12:30:17 6.5 C 28 %
2956 23-11-2019 12:40:17 6.5 C 29 %
2957 23-11-2019 12:50:17 7.3 C 25 %
2958 23-11-2019 13:00:17 7.3 C 25 %
2959 23-11-2019 13:10:17 6.7 C 28 %
2960 23-11-2019 13:20:17 6.8 C 29 %
2961 23-11-2019 13:30:17 6.6 C 29 %
2962 23-11-2019 13:40:17 6.6 C 30 %
2963 23-11-2019 13:50:17 6.6 C 30 %
2964 23-11-2019 14:00:17 6.6 C 30 %
2965 23-11-2019 14:10:17 6.8 C 30 %
2966 23-11-2019 14:20:17 7 C 29 %
2967 23-11-2019 14:30:17 7.2 C 27 %
2968 23-11-2019 14:40:17 7.1 C 28 %
2969 23-11-2019 14:50:17 7.2 C 28 %
2970 23-11-2019 15:00:17 7.7 C 26 %
2971 23-11-2019 15:10:17 8.1 C 26 %
2972 23-11-2019 15:20:17 8.4 C 23 %
2973 23-11-2019 15:30:17 8.4 C 25 %
2974 23-11-2019 15:40:17 8.1 C 25 %
2975 23-11-2019 15:50:17 7.5 C 26 %
Sensor: Nr:Datum:Temp:Feuchte:
Aussen-T/F 2976 23-11-2019 16:00:17 7.5 C 26 %
2977 23-11-2019 16:10:17 7.3 C 25 %
2978 23-11-2019 16:20:17 7.3 C 25 %
2979 23-11-2019 16:30:17 6.5 C 28 %
2980 23-11-2019 16:40:17 5.9 C 31 %
2981 23-11-2019 16:50:17 5.7 C 32 %
2982 23-11-2019 17:00:17 5.7 C 32 %
2983 23-11-2019 17:10:17 5.8 C 31 %
2984 23-11-2019 17:20:17 5.6 C 32 %
2985 23-11-2019 17:30:17 5.5 C 33 %
2986 23-11-2019 17:40:17 5.3 C 32 %
2987 23-11-2019 17:50:17 5.3 C 33 %
2988 23-11-2019 18:00:17 5.3 C 33 %
2989 23-11-2019 18:10:17 5 C 34 %
2990 23-11-2019 18:20:17 5.3 C 34 %
2991 23-11-2019 18:30:17 5.3 C 34 %
2992 23-11-2019 18:40:17 5.3 C 34 %
2993 23-11-2019 18:50:17 4.9 C 36 %
2994 23-11-2019 19:00:17 5.1 C 35 %
2995 23-11-2019 19:10:17 5 C 36 %
2996 23-11-2019 19:20:17 5 C 36 %
2997 23-11-2019 19:30:17 5 C 36 %
2998 23-11-2019 19:40:17 4.7 C 36 %
2999 23-11-2019 19:50:17 4.7 C 38 %
3000 23-11-2019 20:00:17 4.5 C 40 %
Sensor: Nr:Datum:Temp:Feuchte:
Aussen-T/F 3001 23-11-2019 20:10:17 4.2 C 39 %
3002 23-11-2019 20:20:17 4.1 C 40 %
3003 23-11-2019 20:30:17 3.6 C 40 %
3004 23-11-2019 20:40:18 3.6 C 40 %
3005 23-11-2019 20:50:17 3.6 C 42 %
3006 23-11-2019 21:00:17 3.6 C 42 %
3007 23-11-2019 21:10:17 3.5 C 42 %
3008 23-11-2019 21:20:17 3.3 C 41 %
3009 23-11-2019 21:30:17 3.2 C 41 %
3010 23-11-2019 21:40:17 3.2 C 42 %
3011 23-11-2019 21:50:17 3.2 C 42 %
3012 23-11-2019 22:00:17 3.1 C 42 %
3013 23-11-2019 22:10:17 2.8 C 42 %
3014 23-11-2019 22:20:17 2.6 C 42 %
3015 23-11-2019 22:30:17 2.7 C 42 %
3016 23-11-2019 22:40:17 2.6 C 42 %
3017 23-11-2019 22:50:17 2.6 C 42 %
3018 23-11-2019 23:00:17 2.5 C 42 %
3019 23-11-2019 23:10:17 2.2 C 42 %
3020 23-11-2019 23:20:17 2.2 C 42 %
3021 23-11-2019 23:30:17 2 C 42 %
3022 23-11-2019 23:40:17 2.1 C 42 %
3023 23-11-2019 23:50:17 2.1 C 42 %
3024 24-11-2019 00:00:17 1.9 C 43 %
3025 24-11-2019 00:10:17 1.7 C 43 %
Sensor: Nr:Datum:Temp:Feuchte:
Aussen-T/F 3026 24-11-2019 00:20:17 1.7 C 43 %
3027 24-11-2019 00:30:17 1.6 C 43 %
3028 24-11-2019 00:40:17 1.4 C 42 %
3029 24-11-2019 00:50:18 1.1 C 42 %
3030 24-11-2019 01:00:18 1.2 C 43 %
3031 24-11-2019 01:10:18 1.4 C 43 %
3032 24-11-2019 01:20:17 1.3 C 43 %
3033 24-11-2019 01:30:17 1.2 C 42 %
3034 24-11-2019 01:40:17 1.2 C 43 %
3035 24-11-2019 01:50:17 1.1 C 43 %
3036 24-11-2019 02:00:17 1.1 C 43 %
3037 24-11-2019 02:10:17 1.1 C 43 %
3038 24-11-2019 02:20:17 1.2 C 43 %
3039 24-11-2019 02:30:17 1 C 42 %
3040 24-11-2019 02:40:17 1.1 C 42 %
3041 24-11-2019 02:50:17 1.1 C 42 %
3042 24-11-2019 03:00:17 0.9 C 44 %
3043 24-11-2019 03:10:17 1.1 C 43 %
3044 24-11-2019 03:20:17 1.2 C 42 %
3045 24-11-2019 03:30:17 1 C 42 %
3046 24-11-2019 03:40:17 0.7 C 43 %
3047 24-11-2019 03:50:17 0.6 C 43 %
3048 24-11-2019 04:00:17 0.5 C 43 %
3049 24-11-2019 04:10:17 0.5 C 43 %
3050 24-11-2019 04:20:17 0.6 C 43 %
Sensor: Nr:Datum:Temp:Feuchte:
Aussen-T/F 3051 24-11-2019 04:30:17 0.5 C 43 %
3052 24-11-2019 04:40:17 0.5 C 43 %
3053 24-11-2019 04:50:17 0.6 C 44 %
3054 24-11-2019 05:00:17 0.6 C 44 %
3055 24-11-2019 05:10:17 0.8 C 44 %
3056 24-11-2019 05:20:17 1 C 42 %
3057 24-11-2019 05:30:17 1.1 C 42 %
3058 24-11-2019 05:40:17 1 C 42 %
3059 24-11-2019 05:50:17 0.6 C 43 %
3060 24-11-2019 06:00:18 0.4 C 43 %
3061 24-11-2019 06:10:18 0.5 C 43 %
3062 24-11-2019 06:20:17 0.5 C 43 %
3063 24-11-2019 06:30:17 0.5 C 43 %
3064 24-11-2019 06:40:17 0.5 C 43 %
3065 24-11-2019 06:50:17 0.3 C 43 %
3066 24-11-2019 07:00:18 0.4 C 43 %
3067 24-11-2019 07:10:18 0.1 C 43 %
3068 24-11-2019 07:20:18 0.1 C 43 %
3069 24-11-2019 07:30:17 0.1 C 43 %
3070 24-11-2019 07:40:17 -0.3 C 43 %
3071 24-11-2019 07:50:18 -0.3 C 43 %
3072 24-11-2019 08:00:18 -0.1 C 43 %
3073 24-11-2019 08:10:18 0.1 C 43 %
3074 24-11-2019 08:20:17 -0.1 C 43 %
3075 24-11-2019 08:30:17 0.3 C 43 %
Sensor: Nr:Datum:Temp:Feuchte:
Aussen-T/F 3076 24-11-2019 08:40:17 0.5 C 43 %
3077 24-11-2019 08:50:17 0.5 C 43 %
3078 24-11-2019 09:00:17 0.6 C 43 %
3079 24-11-2019 09:10:17 0.7 C 43 %
3080 24-11-2019 09:20:17 0.8 C 43 %
3081 24-11-2019 09:30:17 0.8 C 43 %
3082 24-11-2019 09:40:17 1 C 42 %
3083 24-11-2019 09:50:17 1.1 C 42 %
3084 24-11-2019 10:00:17 1.2 C 42 %
3085 24-11-2019 10:10:17 1.5 C 42 %
3086 24-11-2019 10:20:17 1.7 C 42 %
3087 24-11-2019 10:30:17 2 C 42 %
3088 24-11-2019 10:40:17 2.2 C 41 %
3089 24-11-2019 10:50:17 2.7 C 42 %
3090 24-11-2019 11:00:17 2.5 C 41 %
3091 24-11-2019 11:10:17 2.1 C 40 %
3092 24-11-2019 11:20:17 2.2 C 40 %
3093 24-11-2019 11:30:17 2.2 C 40 %
3094 24-11-2019 11:40:17 2.3 C 40 %
3095 24-11-2019 11:50:17 2.5 C 40 %
3096 24-11-2019 12:00:17 2.7 C 41 %
3097 24-11-2019 12:10:17 3 C 40 %
3098 24-11-2019 12:20:17 3.4 C 40 %
3099 24-11-2019 12:30:17 3.8 C 40 %
3100 24-11-2019 12:40:17 4 C 38 %
Sensor: Nr:Datum:Temp:Feuchte:
Aussen-T/F 3101 24-11-2019 12:50:17 4.2 C 38 %
3102 24-11-2019 13:00:17 4.6 C 38 %
3103 24-11-2019 13:10:17 5.1 C 35 %
3104 24-11-2019 13:20:17 5 C 35 %
3105 24-11-2019 13:30:17 5 C 35 %
3106 24-11-2019 13:40:17 4.7 C 35 %
3107 24-11-2019 13:50:17 4.8 C 35 %
3108 24-11-2019 14:00:17 5.1 C 35 %
3109 24-11-2019 14:10:17 5.1 C 35 %
3110 24-11-2019 14:20:17 5 C 35 %
3111 24-11-2019 14:30:17 4.8 C 37 %
3112 24-11-2019 14:40:17 4.6 C 37 %
3113 24-11-2019 14:50:17 4.6 C 39 %
3114 24-11-2019 15:00:17 4.5 C 38 %
3115 24-11-2019 15:10:17 4.7 C 40 %
3116 24-11-2019 15:20:17 4.9 C 39 %
3117 24-11-2019 15:30:17 4.8 C 38 %
3118 24-11-2019 15:40:17 4.7 C 38 %
3119 24-11-2019 15:50:17 4.6 C 38 %
3120 24-11-2019 16:00:17 4.5 C 40 %
3121 24-11-2019 16:10:17 4.2 C 39 %
3122 24-11-2019 16:20:17 3.9 C 40 %
3123 24-11-2019 16:30:17 3.7 C 41 %
3124 24-11-2019 16:40:17 3.5 C 41 %
3125 24-11-2019 16:50:17 3.2 C 41 %
Sensor: Nr:Datum:Temp:Feuchte:
Aussen-T/F 3126 24-11-2019 17:00:17 3 C 41 %
3127 24-11-2019 17:10:17 2.8 C 42 %
3128 24-11-2019 17:20:17 2.7 C 42 %
3129 24-11-2019 17:30:17 2.6 C 42 %
3130 24-11-2019 17:40:17 2.4 C 42 %
3131 24-11-2019 17:50:17 2.6 C 43 %
3132 24-11-2019 18:00:17 2.5 C 42 %
3133 24-11-2019 18:10:17 2.8 C 43 %
3134 24-11-2019 18:20:17 2.6 C 42 %
3135 24-11-2019 18:30:17 2.9 C 43 %
3136 24-11-2019 18:40:17 2.6 C 42 %
3137 24-11-2019 18:50:17 2.7 C 42 %
3138 24-11-2019 19:00:17 2.5 C 42 %
3139 24-11-2019 19:10:17 2.6 C 42 %
3140 24-11-2019 19:20:17 2.6 C 42 %
3141 24-11-2019 19:30:17 2.8 C 42 %
3142 24-11-2019 19:40:17 2.7 C 42 %
3143 24-11-2019 19:50:17 2.7 C 42 %
3144 24-11-2019 20:00:17 2.5 C 42 %
3145 24-11-2019 20:10:17 2.4 C 42 %
3146 24-11-2019 20:20:17 2.1 C 41 %
3147 24-11-2019 20:30:17 2 C 41 %
3148 24-11-2019 20:40:17 2 C 41 %
3149 24-11-2019 20:50:17 2 C 42 %
3150 24-11-2019 21:00:17 1.8 C 42 %
Sensor: Nr:Datum:Temp:Feuchte:
Aussen-T/F 3151 24-11-2019 21:10:17 2.2 C 42 %
3152 24-11-2019 21:20:17 2 C 42 %
3153 24-11-2019 21:30:17 2 C 42 %
3154 24-11-2019 21:40:17 1.8 C 43 %
3155 24-11-2019 21:50:17 1.8 C 43 %
3156 24-11-2019 22:00:17 1.7 C 42 %
3157 24-11-2019 22:10:17 1.3 C 42 %
3158 24-11-2019 22:20:17 1.2 C 42 %
3159 24-11-2019 22:30:17 1.2 C 42 %
3160 24-11-2019 22:40:17 1 C 42 %
3161 24-11-2019 22:50:17 1 C 42 %
3162 24-11-2019 23:00:17 1.2 C 42 %
3163 24-11-2019 23:10:17 1 C 42 %
3164 24-11-2019 23:20:17 1 C 42 %
3165 24-11-2019 23:30:17 0.8 C 43 %
3166 24-11-2019 23:40:17 0.8 C 43 %
3167 24-11-2019 23:50:17 0.9 C 43 %
3168 25-11-2019 00:00:18 0.8 C 43 %
3169 25-11-2019 00:10:18 0.9 C 43 %
3170 25-11-2019 00:20:17 1.2 C 42 %
3171 25-11-2019 00:30:17 1.4 C 42 %
3172 25-11-2019 00:40:17 1.5 C 42 %
3173 25-11-2019 00:50:18 1.5 C 42 %
3174 25-11-2019 01:00:18 1.5 C 42 %
3175 25-11-2019 01:10:18 1.5 C 42 %
Sensor: Nr:Datum:Temp:Feuchte:
Aussen-T/F 3176 25-11-2019 01:20:17 1.6 C 42 %
3177 25-11-2019 01:30:17 1.5 C 42 %
3178 25-11-2019 01:40:17 1.4 C 42 %
3179 25-11-2019 01:50:17 1.3 C 42 %
3180 25-11-2019 02:00:17 1.3 C 42 %
3181 25-11-2019 02:10:17 1.3 C 42 %
3182 25-11-2019 02:20:17 1.2 C 42 %
3183 25-11-2019 02:30:17 1.3 C 42 %
3184 25-11-2019 02:40:17 1.4 C 42 %
3185 25-11-2019 02:50:17 1.5 C 42 %
3186 25-11-2019 03:00:17 1.6 C 42 %
3187 25-11-2019 03:10:17 1.5 C 42 %
3188 25-11-2019 03:20:17 1.5 C 42 %
3189 25-11-2019 03:30:17 1.5 C 42 %
3190 25-11-2019 03:40:17 1.6 C 42 %
3191 25-11-2019 03:50:17 1.7 C 42 %
3192 25-11-2019 04:00:17 1.8 C 42 %
3193 25-11-2019 04:10:17 1.8 C 42 %
3194 25-11-2019 04:20:17 1.9 C 42 %
3195 25-11-2019 04:30:17 2 C 41 %
3196 25-11-2019 04:40:17 2.1 C 41 %
3197 25-11-2019 04:50:17 2.1 C 41 %
3198 25-11-2019 05:00:17 2.2 C 41 %
3199 25-11-2019 05:10:17 2.1 C 41 %
3200 25-11-2019 05:20:17 2.2 C 41 %
Sensor: Nr:Datum:Temp:Feuchte:
Aussen-T/F 3201 25-11-2019 05:30:17 2.4 C 41 %
3202 25-11-2019 05:40:17 2.4 C 41 %
3203 25-11-2019 05:50:17 2.5 C 41 %
3204 25-11-2019 06:00:17 2.5 C 41 %
3205 25-11-2019 06:10:17 2.5 C 41 %
3206 25-11-2019 06:20:17 2.5 C 41 %
3207 25-11-2019 06:30:17 2.6 C 41 %
3208 25-11-2019 06:40:17 2.6 C 41 %
3209 25-11-2019 06:50:17 2.8 C 41 %
3210 25-11-2019 07:00:17 2.8 C 41 %
3211 25-11-2019 07:10:17 2.8 C 41 %
3212 25-11-2019 07:20:17 2.8 C 41 %
3213 25-11-2019 07:30:17 2.8 C 41 %
3214 25-11-2019 07:40:17 2.8 C 41 %
3215 25-11-2019 07:50:17 2.8 C 41 %
3216 25-11-2019 08:00:17 2.9 C 41 %
3217 25-11-2019 08:10:17 3 C 41 %
3218 25-11-2019 08:20:17 3.1 C 41 %
3219 25-11-2019 08:30:18 3.2 C 41 %
3220 25-11-2019 08:40:18 3.3 C 42 %
3221 25-11-2019 08:50:17 3.4 C 42 %
3222 25-11-2019 09:00:17 3.6 C 43 %
3223 25-11-2019 09:10:17 3.6 C 43 %
3224 25-11-2019 09:20:17 3.7 C 43 %
3225 25-11-2019 09:30:17 3.6 C 43 %
Sensor: Nr:Datum:Temp:Feuchte:
Aussen-T/F 3226 25-11-2019 09:40:17 3.8 C 43 %
3227 25-11-2019 09:50:17 3.8 C 42 %
3228 25-11-2019 10:00:17 4.1 C 42 %
3229 25-11-2019 10:10:17 4.5 C 43 %
3230 25-11-2019 10:20:17 4.5 C 43 %
3231 25-11-2019 10:30:17 5.1 C 40 %
3232 25-11-2019 10:40:17 5.1 C 38 %
3233 25-11-2019 10:50:17 5.1 C 37 %
3234 25-11-2019 11:00:17 5.1 C 37 %
3235 25-11-2019 11:10:17 5.2 C 37 %
3236 25-11-2019 11:20:17 5.3 C 37 %
3237 25-11-2019 11:30:17 5.4 C 37 %
3238 25-11-2019 11:40:17 5.8 C 37 %
3239 25-11-2019 11:50:17 6.3 C 36 %
3240 25-11-2019 12:00:17 6.1 C 33 %
3241 25-11-2019 12:10:17 6.4 C 33 %
3242 25-11-2019 12:20:17 6.3 C 33 %
3243 25-11-2019 12:30:17 6.3 C 32 %
3244 25-11-2019 12:40:17 6.6 C 32 %
3245 25-11-2019 12:50:17 6.6 C 32 %
3246 25-11-2019 13:00:17 6.7 C 31 %
3247 25-11-2019 13:10:17 6.8 C 33 %
3248 25-11-2019 13:20:17 7 C 32 %
3249 25-11-2019 13:30:17 7 C 32 %
3250 25-11-2019 13:40:17 7 C 33 %
Sensor: Nr:Datum:Temp:Feuchte:
Aussen-T/F 3251 25-11-2019 13:50:17 6.9 C 32 %
3252 25-11-2019 14:00:17 6.9 C 33 %
3253 25-11-2019 14:10:17 6.8 C 31 %
3254 25-11-2019 14:20:17 6.8 C 35 %
3255 25-11-2019 14:30:17 6.8 C 36 %
3256 25-11-2019 14:40:17 6.9 C 36 %
3257 25-11-2019 14:50:17 6.8 C 35 %
3258 25-11-2019 15:00:17 6.7 C 35 %
3259 25-11-2019 15:10:17 6.7 C 35 %
3260 25-11-2019 15:20:17 6.7 C 34 %
3261 25-11-2019 15:30:17 6.7 C 35 %
3262 25-11-2019 15:40:17 6.6 C 33 %
3263 25-11-2019 15:50:17 6.5 C 34 %
3264 25-11-2019 16:00:17 6.5 C 35 %
3265 25-11-2019 16:10:17 6.4 C 36 %
3266 25-11-2019 16:20:17 6.3 C 36 %
3267 25-11-2019 16:30:17 6.2 C 37 %
3268 25-11-2019 16:40:17 6.1 C 38 %
3269 25-11-2019 16:50:17 6.1 C 38 %
3270 25-11-2019 17:00:17 6 C 38 %
3271 25-11-2019 17:10:17 6 C 38 %
3272 25-11-2019 17:20:17 5.9 C 38 %
3273 25-11-2019 17:30:17 5.9 C 39 %
3274 25-11-2019 17:40:17 5.8 C 39 %
3275 25-11-2019 17:50:17 5.9 C 39 %
Sensor: Nr:Datum:Temp:Feuchte:
Aussen-T/F 3276 25-11-2019 18:00:18 5.9 C 39 %
3277 25-11-2019 18:10:18 5.9 C 40 %
3278 25-11-2019 18:20:17 5.9 C 39 %
3279 25-11-2019 18:30:17 5.9 C 40 %
3280 25-11-2019 18:40:17 5.9 C 40 %
3281 25-11-2019 18:50:17 5.8 C 40 %
3282 25-11-2019 19:00:17 5.8 C 39 %
3283 25-11-2019 19:10:17 5.4 C 38 %
3284 25-11-2019 19:20:17 5 C 38 %
3285 25-11-2019 19:30:17 5.1 C 40 %
3286 25-11-2019 19:40:17 5 C 40 %
3287 25-11-2019 19:50:17 5.2 C 40 %
3288 25-11-2019 20:00:17 5.1 C 41 %
3289 25-11-2019 20:10:17 5.3 C 41 %
3290 25-11-2019 20:20:17 5.4 C 41 %
3291 25-11-2019 20:30:17 5.4 C 41 %
3292 25-11-2019 20:40:17 5.2 C 40 %
3293 25-11-2019 20:50:17 5.1 C 40 %
3294 25-11-2019 21:00:17 5.3 C 40 %
3295 25-11-2019 21:10:17 5.1 C 39 %
3296 25-11-2019 21:20:17 5.1 C 39 %
3297 25-11-2019 21:30:17 5.2 C 40 %
3298 25-11-2019 21:40:17 5 C 40 %
3299 25-11-2019 21:50:17 4.7 C 40 %
3300 25-11-2019 22:00:17 4.7 C 40 %
Sensor: Nr:Datum:Temp:Feuchte:
Aussen-T/F 3301 25-11-2019 22:10:17 4.3 C 40 %
3302 25-11-2019 22:20:17 4.1 C 40 %
3303 25-11-2019 22:30:17 3.9 C 41 %
3304 25-11-2019 22:40:17 4.1 C 41 %
3305 25-11-2019 22:50:17 3.8 C 42 %
3306 25-11-2019 23:00:17 3.5 C 42 %
3307 25-11-2019 23:10:17 3.3 C 42 %
3308 25-11-2019 23:20:17 3.1 C 42 %
3309 25-11-2019 23:30:17 2.7 C 42 %
3310 25-11-2019 23:40:17 3 C 42 %
3311 25-11-2019 23:50:17 2.8 C 43 %
3312 26-11-2019 00:00:17 2.3 C 42 %
3313 26-11-2019 00:10:17 2.3 C 42 %
3314 26-11-2019 00:20:17 2.5 C 42 %
3315 26-11-2019 00:30:17 2.4 C 42 %
3316 26-11-2019 00:40:17 2.5 C 43 %
3317 26-11-2019 00:50:17 3.1 C 42 %
3318 26-11-2019 01:00:17 3.3 C 42 %
3319 26-11-2019 01:10:17 3.4 C 42 %
3320 26-11-2019 01:20:17 3.4 C 42 %
3321 26-11-2019 01:30:17 3.4 C 42 %
3322 26-11-2019 01:40:17 3.5 C 42 %
3323 26-11-2019 01:50:17 3.6 C 42 %
3324 26-11-2019 02:00:17 3.8 C 42 %
3325 26-11-2019 02:10:17 3.8 C 42 %
Sensor: Nr:Datum:Temp:Feuchte:
Aussen-T/F 3326 26-11-2019 02:20:17 3.8 C 41 %
3327 26-11-2019 02:30:17 3.8 C 41 %
3328 26-11-2019 02:40:17 3.9 C 41 %
3329 26-11-2019 02:50:17 4.3 C 41 %
3330 26-11-2019 03:00:17 4.5 C 41 %
3331 26-11-2019 03:10:17 4.5 C 41 %
3332 26-11-2019 03:20:17 4.5 C 41 %
3333 26-11-2019 03:30:17 4.1 C 40 %
3334 26-11-2019 03:40:17 4.4 C 40 %
3335 26-11-2019 03:50:17 4.6 C 41 %
3336 26-11-2019 04:00:17 4.8 C 41 %
3337 26-11-2019 04:10:17 5.1 C 40 %
3338 26-11-2019 04:20:17 5.2 C 40 %
3339 26-11-2019 04:30:18 5.2 C 40 %
3340 26-11-2019 04:40:18 5.4 C 40 %
3341 26-11-2019 04:50:17 5.6 C 40 %
3342 26-11-2019 05:00:18 5.7 C 40 %
3343 26-11-2019 05:10:18 5.7 C 40 %
3344 26-11-2019 05:20:17 5.8 C 40 %
3345 26-11-2019 05:30:17 5.8 C 40 %
3346 26-11-2019 05:40:17 5.8 C 40 %
3347 26-11-2019 05:50:17 5.9 C 40 %
3348 26-11-2019 06:00:17 5.9 C 40 %
3349 26-11-2019 06:10:17 5.9 C 40 %
3350 26-11-2019 06:20:17 6 C 39 %
Sensor: Nr:Datum:Temp:Feuchte:
Aussen-T/F 3351 26-11-2019 06:30:17 6.2 C 40 %
3352 26-11-2019 06:40:17 6.2 C 39 %
3353 26-11-2019 06:50:17 6.2 C 39 %
3354 26-11-2019 07:00:17 6.5 C 40 %
3355 26-11-2019 07:10:17 6.5 C 40 %
3356 26-11-2019 07:20:17 6.6 C 39 %
3357 26-11-2019 07:30:17 6.6 C 39 %
3358 26-11-2019 07:40:17 6.6 C 39 %
3359 26-11-2019 07:50:17 6.7 C 39 %
3360 26-11-2019 08:00:17 6.8 C 39 %
3361 26-11-2019 08:10:17 6.9 C 39 %
3362 26-11-2019 08:20:17 6.8 C 38 %
3363 26-11-2019 08:30:17 6.8 C 38 %
3364 26-11-2019 08:40:17 6.7 C 38 %
3365 26-11-2019 08:50:17 6.8 C 38 %
3366 26-11-2019 09:00:17 7 C 37 %
3367 26-11-2019 09:10:17 7.4 C 38 %
3368 26-11-2019 09:20:17 7.6 C 37 %
3369 26-11-2019 09:30:17 7.9 C 36 %
3370 26-11-2019 09:40:17 8.3 C 33 %
3371 26-11-2019 09:50:17 8.5 C 31 %
3372 26-11-2019 10:00:17 8.8 C 32 %
3373 26-11-2019 10:10:17 9.1 C 32 %
3374 26-11-2019 10:20:17 9.4 C 32 %
3375 26-11-2019 10:30:17 9.6 C 32 %
Sensor: Nr:Datum:Temp:Feuchte:
Aussen-T/F 3376 26-11-2019 10:40:17 9.7 C 31 %
3377 26-11-2019 10:50:17 9.9 C 31 %
3378 26-11-2019 11:00:17 10.3 C 29 %
3379 26-11-2019 11:10:17 10.5 C 29 %
3380 26-11-2019 11:20:17 10.6 C 26 %
3381 26-11-2019 11:30:17 10.7 C 26 %
3382 26-11-2019 11:40:17 10.6 C 26 %
3383 26-11-2019 11:50:17 10.5 C 26 %
3384 26-11-2019 12:00:17 10.6 C 27 %
3385 26-11-2019 12:10:17 10.6 C 28 %
3386 26-11-2019 12:20:17 10.4 C 26 %
3387 26-11-2019 12:30:17 10.4 C 27 %
3388 26-11-2019 12:40:17 10.8 C 27 %
3389 26-11-2019 12:50:17 10.7 C 26 %
3390 26-11-2019 13:00:17 10.8 C 27 %
3391 26-11-2019 13:10:17 10.8 C 27 %
3392 26-11-2019 13:20:17 11 C 26 %
3393 26-11-2019 13:30:17 10.8 C 26 %
3394 26-11-2019 13:40:17 10.6 C 26 %
3395 26-11-2019 13:50:17 10.5 C 27 %
3396 26-11-2019 14:00:17 10.2 C 30 %
3397 26-11-2019 14:10:17 10.2 C 30 %
3398 26-11-2019 14:20:17 10.5 C 30 %
3399 26-11-2019 14:30:17 10.2 C 28 %
3400 26-11-2019 14:40:17 10.6 C 28 %
Sensor: Nr:Datum:Temp:Feuchte:
Aussen-T/F 3401 26-11-2019 14:50:17 10.6 C 28 %
3402 26-11-2019 15:00:17 10.7 C 27 %
3403 26-11-2019 15:10:17 10.9 C 26 %
3404 26-11-2019 15:20:17 11.1 C 26 %
3405 26-11-2019 15:30:17 11.1 C 26 %
3406 26-11-2019 15:40:17 10.6 C 27 %
3407 26-11-2019 15:50:17 10.5 C 28 %
3408 26-11-2019 16:00:17 10.1 C 30 %
3409 26-11-2019 16:10:17 10 C 30 %
3410 26-11-2019 16:20:17 9.9 C 31 %
3411 26-11-2019 16:30:17 10 C 30 %
3412 26-11-2019 16:40:17 10 C 29 %
3413 26-11-2019 16:50:17 9.7 C 30 %
3414 26-11-2019 17:00:17 9.6 C 30 %
3415 26-11-2019 17:10:17 9.4 C 31 %
3416 26-11-2019 17:20:17 9.3 C 31 %
3417 26-11-2019 17:30:17 9.2 C 31 %
3418 26-11-2019 17:40:17 9.1 C 31 %
3419 26-11-2019 17:50:17 8.9 C 32 %
3420 26-11-2019 18:00:17 8.8 C 34 %
3421 26-11-2019 18:10:17 8.9 C 36 %
3422 26-11-2019 18:20:17 8.9 C 37 %
3423 26-11-2019 18:30:17 9 C 35 %
3424 26-11-2019 18:40:17 8.9 C 35 %
3425 26-11-2019 18:50:17 9.1 C 34 %
Sensor: Nr:Datum:Temp:Feuchte:
Aussen-T/F 3426 26-11-2019 19:00:17 9.7 C 31 %
3427 26-11-2019 19:10:17 9.5 C 31 %
3428 26-11-2019 19:20:17 9.6 C 30 %
3429 26-11-2019 19:30:17 9.6 C 30 %
3430 26-11-2019 19:40:17 9.7 C 30 %
3431 26-11-2019 19:50:17 9.5 C 30 %
3432 26-11-2019 20:00:17 9.5 C 30 %
3433 26-11-2019 20:10:17 9.2 C 31 %
3434 26-11-2019 20:20:17 8.9 C 32 %
3435 26-11-2019 20:30:17 8.4 C 35 %
3436 26-11-2019 20:40:17 8.2 C 35 %
3437 26-11-2019 20:50:17 8 C 37 %
3438 26-11-2019 21:00:17 7.9 C 38 %
3439 26-11-2019 21:10:17 8.3 C 39 %
3440 26-11-2019 21:20:17 8.5 C 37 %
3441 26-11-2019 21:30:17 8.7 C 36 %
3442 26-11-2019 21:40:17 8.8 C 35 %
3443 26-11-2019 21:50:17 8.8 C 35 %
3444 26-11-2019 22:00:17 8.9 C 35 %
3445 26-11-2019 22:10:17 8.8 C 34 %
3446 26-11-2019 22:20:17 8.6 C 34 %
3447 26-11-2019 22:30:17 8.4 C 35 %
3448 26-11-2019 22:40:17 8.1 C 35 %
3449 26-11-2019 22:50:17 7.8 C 36 %
3450 26-11-2019 23:00:17 7.9 C 39 %
Sensor: Nr:Datum:Temp:Feuchte:
Aussen-T/F 3451 26-11-2019 23:10:17 7.9 C 39 %
3452 26-11-2019 23:20:17 8 C 38 %
3453 26-11-2019 23:30:17 7.8 C 38 %
3454 26-11-2019 23:40:17 7.7 C 38 %
3455 26-11-2019 23:50:17 7.8 C 39 %
3456 27-11-2019 00:00:17 7.6 C 39 %
3457 27-11-2019 00:10:17 7.5 C 39 %
3458 27-11-2019 00:20:17 7.6 C 40 %
3459 27-11-2019 00:30:17 7.6 C 39 %
3460 27-11-2019 00:40:17 7.9 C 40 %
3461 27-11-2019 00:50:17 7.7 C 39 %
3462 27-11-2019 01:00:17 7.4 C 39 %
3463 27-11-2019 01:10:17 7.6 C 40 %
3464 27-11-2019 01:20:17 7.6 C 40 %
3465 27-11-2019 01:30:17 7.8 C 40 %
3466 27-11-2019 01:40:17 7.8 C 40 %
3467 27-11-2019 01:50:17 8 C 39 %
3468 27-11-2019 02:00:17 8.1 C 39 %
3469 27-11-2019 02:10:17 8.1 C 38 %
3470 27-11-2019 02:20:17 8.1 C 38 %
3471 27-11-2019 02:30:17 8 C 39 %
3472 27-11-2019 02:40:17 7.8 C 40 %
3473 27-11-2019 02:50:17 7.7 C 40 %
3474 27-11-2019 03:00:17 7.8 C 40 %
3475 27-11-2019 03:10:17 7.6 C 41 %
Sensor: Nr:Datum:Temp:Feuchte:
Aussen-T/F 3476 27-11-2019 03:20:17 7.5 C 40 %
3477 27-11-2019 03:30:17 7.2 C 40 %
3478 27-11-2019 03:40:17 7.1 C 40 %
3479 27-11-2019 03:50:17 7 C 40 %
3480 27-11-2019 04:00:17 7.1 C 40 %
3481 27-11-2019 04:10:17 7.3 C 40 %
3482 27-11-2019 04:20:17 7.5 C 40 %
3483 27-11-2019 04:30:17 7.6 C 40 %
3484 27-11-2019 04:40:17 7.6 C 40 %
3485 27-11-2019 04:50:17 7.4 C 39 %
3486 27-11-2019 05:00:17 7.1 C 38 %
3487 27-11-2019 05:10:17 7.4 C 39 %
3488 27-11-2019 05:20:17 7.8 C 37 %
3489 27-11-2019 05:30:17 7.7 C 37 %
3490 27-11-2019 05:40:17 8 C 35 %
3491 27-11-2019 05:50:17 8 C 35 %
3492 27-11-2019 06:00:18 8 C 34 %
3493 27-11-2019 06:10:18 7.8 C 35 %
3494 27-11-2019 06:20:17 7.8 C 36 %
3495 27-11-2019 06:30:17 7.6 C 37 %
3496 27-11-2019 06:40:17 7.7 C 39 %
3497 27-11-2019 06:50:17 7.6 C 39 %
3498 27-11-2019 07:00:17 7.8 C 37 %
3499 27-11-2019 07:10:17 7.8 C 35 %
3500 27-11-2019 07:20:17 7.9 C 35 %
Sensor: Nr:Datum:Temp:Feuchte:
Aussen-T/F 3501 27-11-2019 07:30:17 8.1 C 34 %
3502 27-11-2019 07:40:17 8 C 32 %
3503 27-11-2019 07:50:17 8 C 34 %
3504 27-11-2019 08:00:17 8.2 C 33 %
3505 27-11-2019 08:10:17 8.2 C 33 %
3506 27-11-2019 08:20:17 8.3 C 34 %
3507 27-11-2019 08:30:17 8.4 C 33 %
3508 27-11-2019 08:40:17 8.4 C 33 %
3509 27-11-2019 08:50:17 8.4 C 35 %
3510 27-11-2019 09:00:17 8.6 C 35 %
3511 27-11-2019 09:10:17 8.6 C 36 %
3512 27-11-2019 09:20:17 8.8 C 36 %
3513 27-11-2019 09:30:17 9.1 C 33 %
3514 27-11-2019 09:40:17 9 C 34 %
3515 27-11-2019 09:50:17 9 C 34 %
3516 27-11-2019 10:00:17 9.1 C 35 %
3517 27-11-2019 10:10:17 9.2 C 35 %
3518 27-11-2019 10:20:17 9.3 C 35 %
3519 27-11-2019 10:30:17 9.7 C 31 %
3520 27-11-2019 10:40:17 10 C 29 %
3521 27-11-2019 10:50:17 10.4 C 27 %
3522 27-11-2019 11:00:17 11 C 25 %
3523 27-11-2019 11:10:17 11.3 C 24 %
3524 27-11-2019 11:20:17 11.6 C 22 %
3525 27-11-2019 11:30:17 11.7 C 22 %
Sensor: Nr:Datum:Temp:Feuchte:
Aussen-T/F 3526 27-11-2019 11:40:17 12.1 C 20 %
3527 27-11-2019 11:50:17 12.4 C 20 %
3528 27-11-2019 12:00:17 12.7 C 20 %
3529 27-11-2019 12:10:17 12.7 C 20 %
3530 27-11-2019 12:20:18 12.7 C 20 %
3531 27-11-2019 12:30:17 12.7 C 20 %
3532 27-11-2019 12:40:17 12.8 C 20 %
3533 27-11-2019 12:50:17 12.8 C 20 %
3534 27-11-2019 13:00:17 12.7 C 20 %
3535 27-11-2019 13:10:17 12.8 C 20 %
3536 27-11-2019 13:20:17 12.8 C 20 %
3537 27-11-2019 13:30:17 12.6 C 20 %
3538 27-11-2019 13:40:17 12.7 C 20 %
3539 27-11-2019 13:50:17 12.9 C 20 %
3540 27-11-2019 14:00:17 13.1 C 20 %
3541 27-11-2019 14:10:17 13 C 20 %
3542 27-11-2019 14:20:17 12.9 C 20 %
3543 27-11-2019 14:30:17 12.9 C 20 %
3544 27-11-2019 14:40:17 12.9 C 20 %
3545 27-11-2019 14:50:17 12.9 C 20 %
3546 27-11-2019 15:00:17 12.7 C 20 %
3547 27-11-2019 15:10:17 12.8 C 20 %
3548 27-11-2019 15:20:17 12.8 C 20 %
3549 27-11-2019 15:30:17 12.8 C 20 %
3550 27-11-2019 15:40:17 12.5 C 20 %
Sensor: Nr:Datum:Temp:Feuchte:
Aussen-T/F 3551 27-11-2019 15:50:17 12.2 C 20 %
3552 27-11-2019 16:00:17 11.5 C 20 %
3553 27-11-2019 16:10:17 11.1 C 20 %
3554 27-11-2019 16:20:17 10.8 C 25 %
3555 27-11-2019 16:30:17 10.3 C 26 %
3556 27-11-2019 16:40:17 9.9 C 29 %
3557 27-11-2019 16:50:18 9.7 C 30 %
3558 27-11-2019 17:00:17 9.5 C 31 %
3559 27-11-2019 17:10:17 9.8 C 31 %
3560 27-11-2019 17:20:17 9.8 C 31 %
3561 27-11-2019 17:30:17 9.8 C 31 %
3562 27-11-2019 17:40:17 9.7 C 33 %
3563 27-11-2019 17:50:17 9.6 C 33 %
3564 27-11-2019 18:00:17 9.7 C 32 %
3565 27-11-2019 18:10:17 9.7 C 32 %
3566 27-11-2019 18:20:17 9.9 C 31 %
3567 27-11-2019 18:30:17 9.9 C 31 %
3568 27-11-2019 18:40:17 9.8 C 32 %
3569 27-11-2019 18:50:17 9.7 C 34 %
3570 27-11-2019 19:00:17 9.7 C 36 %
3571 27-11-2019 19:10:17 9.8 C 34 %
3572 27-11-2019 19:20:17 9.7 C 33 %
3573 27-11-2019 19:30:17 10 C 31 %
3574 27-11-2019 19:40:17 10 C 31 %
3575 27-11-2019 19:50:17 10.4 C 28 %
Sensor: Nr:Datum:Temp:Feuchte:
Aussen-T/F 3576 27-11-2019 20:00:17 10.8 C 26 %
3577 27-11-2019 20:10:17 10.9 C 26 %
3578 27-11-2019 20:20:17 11 C 25 %
3579 27-11-2019 20:30:17 10.6 C 26 %
3580 27-11-2019 20:40:17 9.9 C 30 %
3581 27-11-2019 20:50:17 9.7 C 31 %
3582 27-11-2019 21:00:17 9.8 C 33 %
3583 27-11-2019 21:10:17 9.8 C 32 %
3584 27-11-2019 21:20:17 9.6 C 33 %
3585 27-11-2019 21:30:17 9.8 C 32 %
3586 27-11-2019 21:40:17 10.1 C 31 %
3587 27-11-2019 21:50:17 10.2 C 29 %
3588 27-11-2019 22:00:17 10.3 C 28 %
3589 27-11-2019 22:10:17 10.6 C 27 %
3590 27-11-2019 22:20:17 10.9 C 26 %
3591 27-11-2019 22:30:17 10.9 C 26 %
3592 27-11-2019 22:40:17 10.8 C 25 %
3593 27-11-2019 22:50:17 10.7 C 25 %
3594 27-11-2019 23:00:17 11.1 C 24 %
3595 27-11-2019 23:10:17 11.3 C 23 %
3596 27-11-2019 23:20:17 11.1 C 23 %
3597 27-11-2019 23:30:17 11.5 C 21 %
3598 27-11-2019 23:40:18 11.5 C 21 %
3599 27-11-2019 23:50:17 11.2 C 21 %
3600 28-11-2019 00:00:18 11.2 C 21 %
Sensor: Nr:Datum:Temp:Feuchte:
Aussen-T/F 3601 28-11-2019 00:10:18 11.3 C 20 %
3602 28-11-2019 00:20:17 11.2 C 20 %
3603 28-11-2019 00:30:17 11.2 C 20 %
3604 28-11-2019 00:40:17 11.5 C 20 %
3605 28-11-2019 00:50:17 11.3 C 20 %
3606 28-11-2019 01:00:17 11.4 C 20 %
3607 28-11-2019 01:10:17 11.4 C 20 %
3608 28-11-2019 01:20:17 11.4 C 20 %
3609 28-11-2019 01:30:17 11.4 C 20 %
3610 28-11-2019 01:40:17 11.1 C 20 %
3611 28-11-2019 01:50:17 11.1 C 20 %
3612 28-11-2019 02:00:18 10.8 C 20 %
3613 28-11-2019 02:10:18 10.5 C 20 %
3614 28-11-2019 02:20:17 10.7 C 20 %
3615 28-11-2019 02:30:17 11 C 20 %
3616 28-11-2019 02:40:17 10.5 C 21 %
3617 28-11-2019 02:50:17 10.8 C 20 %
3618 28-11-2019 03:00:17 10.9 C 20 %
3619 28-11-2019 03:10:17 10.3 C 20 %
3620 28-11-2019 03:20:18 10.8 C 20 %
3621 28-11-2019 03:30:18 10.6 C 20 %
3622 28-11-2019 03:40:18 10.9 C 20 %
3623 28-11-2019 03:50:18 10.9 C 20 %
3624 28-11-2019 04:00:18 10.7 C 20 %
3625 28-11-2019 04:10:18 10.6 C 20 %
Sensor: Nr:Datum:Temp:Feuchte:
Aussen-T/F 3626 28-11-2019 04:20:17 10.6 C 20 %
3627 28-11-2019 04:30:17 10.6 C 20 %
3628 28-11-2019 04:40:17 10.5 C 20 %
3629 28-11-2019 04:50:17 10.3 C 20 %
3630 28-11-2019 05:00:17 10.5 C 20 %
3631 28-11-2019 05:10:17 10.2 C 20 %
3632 28-11-2019 05:20:17 10.1 C 20 %
3633 28-11-2019 05:30:17 10.4 C 20 %
3634 28-11-2019 05:40:17 10.1 C 20 %
3635 28-11-2019 05:50:17 10.2 C 20 %
3636 28-11-2019 06:00:17 9.9 C 20 %
3637 28-11-2019 06:10:17 10.1 C 20 %
3638 28-11-2019 06:20:17 10.2 C 20 %
3639 28-11-2019 06:30:17 10.5 C 20 %
3640 28-11-2019 06:40:17 10.6 C 20 %
3641 28-11-2019 06:50:17 10.5 C 20 %
3642 28-11-2019 07:00:17 10.4 C 20 %
3643 28-11-2019 07:10:17 10 C 20 %
3644 28-11-2019 07:20:17 10 C 20 %
3645 28-11-2019 07:30:17 10 C 20 %
3646 28-11-2019 07:40:17 10.2 C 20 %
3647 28-11-2019 07:50:17 10.3 C 20 %
3648 28-11-2019 08:00:17 10.4 C 20 %
3649 28-11-2019 08:10:17 10.2 C 20 %
3650 28-11-2019 08:20:17 10.2 C 20 %
Sensor: Nr:Datum:Temp:Feuchte:
Aussen-T/F 3651 28-11-2019 08:30:17 10.1 C 20 %
3652 28-11-2019 08:40:17 10.1 C 20 %
3653 28-11-2019 08:50:17 10.1 C 20 %
3654 28-11-2019 09:00:17 10.3 C 20 %
3655 28-11-2019 09:10:17 10.7 C 20 %
3656 28-11-2019 09:20:17 11 C 20 %
3657 28-11-2019 09:30:17 11 C 20 %
3658 28-11-2019 09:40:17 11.1 C 20 %
3659 28-11-2019 09:50:17 11.1 C 20 %
3660 28-11-2019 10:00:17 11.3 C 20 %
3661 28-11-2019 10:10:17 11.3 C 20 %
3662 28-11-2019 10:20:17 11.5 C 20 %
3663 28-11-2019 10:30:17 11.6 C 20 %
3664 28-11-2019 10:40:17 11.7 C 20 %
3665 28-11-2019 10:50:17 11.7 C 20 %
3666 28-11-2019 11:00:17 11.7 C 20 %
3667 28-11-2019 11:10:17 11.8 C 20 %
3668 28-11-2019 11:20:17 11.9 C 20 %
3669 28-11-2019 11:30:17 11.9 C 20 %
3670 28-11-2019 11:40:17 12.2 C 20 %
3671 28-11-2019 11:50:17 11.9 C 20 %
3672 28-11-2019 12:00:17 11.6 C 20 %
3673 28-11-2019 12:10:17 11.5 C 20 %
3674 28-11-2019 12:20:17 11.1 C 20 %
3675 28-11-2019 12:30:17 11.1 C 20 %
Sensor: Nr:Datum:Temp:Feuchte:
Aussen-T/F 3676 28-11-2019 12:40:17 10.9 C 20 %
3677 28-11-2019 12:50:17 11.2 C 20 %
3678 28-11-2019 13:00:17 11.2 C 20 %
3679 28-11-2019 13:10:17 11.7 C 20 %
3680 28-11-2019 13:20:17 11.8 C 20 %
3681 28-11-2019 13:30:17 12.1 C 20 %
3682 28-11-2019 13:40:17 11.4 C 20 %
3683 28-11-2019 13:50:17 11.4 C 20 %
3684 28-11-2019 14:00:17 11.3 C 20 %
3685 28-11-2019 14:10:17 11.4 C 20 %
3686 28-11-2019 14:20:17 11.2 C 20 %
3687 28-11-2019 14:30:17 11.1 C 20 %
3688 28-11-2019 14:40:17 11.2 C 20 %
3689 28-11-2019 14:50:17 11.2 C 20 %
3690 28-11-2019 15:00:17 11.2 C 20 %
3691 28-11-2019 15:10:17 11.1 C 20 %
3692 28-11-2019 15:20:17 11 C 20 %
3693 28-11-2019 15:30:17 10.2 C 23 %
3694 28-11-2019 15:40:17 10.2 C 21 %
3695 28-11-2019 15:50:17 10.3 C 21 %
3696 28-11-2019 16:00:17 10.5 C 21 %
3697 28-11-2019 16:10:17 10.3 C 22 %
3698 28-11-2019 16:20:17 10.5 C 21 %
3699 28-11-2019 16:30:17 10.6 C 21 %
3700 28-11-2019 16:40:17 10.4 C 21 %
Sensor: Nr:Datum:Temp:Feuchte:
Aussen-T/F 3701 28-11-2019 16:50:17 10.4 C 21 %
3702 28-11-2019 17:00:17 10.3 C 22 %
3703 28-11-2019 17:10:17 9.7 C 27 %
3704 28-11-2019 17:20:17 9.5 C 29 %
3705 28-11-2019 17:30:17 9.4 C 30 %
3706 28-11-2019 17:40:17 9.3 C 30 %
3707 28-11-2019 17:50:17 9.6 C 28 %
3708 28-11-2019 18:00:17 9.8 C 27 %
3709 28-11-2019 18:10:17 10.2 C 25 %
3710 28-11-2019 18:20:17 10.3 C 25 %
3711 28-11-2019 18:30:17 10.2 C 25 %
3712 28-11-2019 18:40:17 10.2 C 25 %
3713 28-11-2019 18:50:17 10.2 C 25 %
3714 28-11-2019 19:00:17 10.1 C 25 %
3715 28-11-2019 19:10:17 9.8 C 26 %
3716 28-11-2019 19:20:17 9.8 C 26 %
3717 28-11-2019 19:30:17 9.8 C 26 %
3718 28-11-2019 19:40:17 9.9 C 26 %
3719 28-11-2019 19:50:17 10.1 C 25 %
3720 28-11-2019 20:00:17 10.1 C 26 %
3721 28-11-2019 20:10:17 9.8 C 26 %
3722 28-11-2019 20:20:17 9.8 C 26 %
3723 28-11-2019 20:30:17 9.8 C 27 %
3724 28-11-2019 20:40:17 10.1 C 26 %
3725 28-11-2019 20:50:17 10 C 25 %
Sensor: Nr:Datum:Temp:Feuchte:
Aussen-T/F 3726 28-11-2019 21:00:17 10.1 C 25 %
3727 28-11-2019 21:10:17 9.7 C 27 %
3728 28-11-2019 21:20:17 9.9 C 27 %
3729 28-11-2019 21:30:17 10.1 C 26 %
3730 28-11-2019 21:40:17 10 C 26 %
3731 28-11-2019 21:50:17 10 C 25 %
3732 28-11-2019 22:00:17 9.6 C 27 %
3733 28-11-2019 22:10:17 9.6 C 28 %
3734 28-11-2019 22:20:17 9.6 C 28 %
3735 28-11-2019 22:30:17 9.5 C 28 %
3736 28-11-2019 22:40:17 9.6 C 28 %
3737 28-11-2019 22:50:17 9.5 C 28 %
3738 28-11-2019 23:00:17 9.5 C 28 %
3739 28-11-2019 23:10:17 9.5 C 29 %
3740 28-11-2019 23:20:17 9.6 C 28 %
3741 28-11-2019 23:30:17 9.2 C 30 %
3742 28-11-2019 23:40:17 9.1 C 32 %
3743 28-11-2019 23:50:17 8.9 C 35 %
3744 29-11-2019 00:00:17 8.9 C 34 %
3745 29-11-2019 00:10:17 8.7 C 36 %
3746 29-11-2019 00:20:17 8.8 C 35 %
3747 29-11-2019 00:30:17 8.7 C 36 %
3748 29-11-2019 00:40:17 8.7 C 35 %
3749 29-11-2019 00:50:17 8.6 C 35 %
3750 29-11-2019 01:00:17 8.6 C 36 %
Sensor: Nr:Datum:Temp:Feuchte:
Aussen-T/F 3751 29-11-2019 01:10:17 8.5 C 37 %
3752 29-11-2019 01:20:17 8.3 C 37 %
3753 29-11-2019 01:30:17 8.3 C 36 %
3754 29-11-2019 01:40:17 8.3 C 36 %
3755 29-11-2019 01:50:17 8.1 C 39 %
3756 29-11-2019 02:00:17 8.1 C 40 %
3757 29-11-2019 02:10:17 8.1 C 40 %
3758 29-11-2019 02:20:17 8.1 C 40 %
3759 29-11-2019 02:30:17 8.1 C 40 %
3760 29-11-2019 02:40:17 8.1 C 40 %
3761 29-11-2019 02:50:17 8 C 40 %
3762 29-11-2019 03:00:17 8 C 40 %
3763 29-11-2019 03:10:17 8 C 40 %
3764 29-11-2019 03:20:17 7.9 C 40 %
3765 29-11-2019 03:30:17 7.8 C 40 %
3766 29-11-2019 03:40:17 7.7 C 40 %
3767 29-11-2019 03:50:17 7.6 C 40 %
3768 29-11-2019 04:00:17 7.6 C 40 %
3769 29-11-2019 04:10:17 7.6 C 40 %
3770 29-11-2019 04:20:17 7.6 C 40 %
3771 29-11-2019 04:30:17 7.5 C 40 %
3772 29-11-2019 04:40:17 7.5 C 40 %
3773 29-11-2019 04:50:17 7.2 C 38 %
3774 29-11-2019 05:00:17 6.8 C 34 %
3775 29-11-2019 05:10:17 6.4 C 33 %
Sensor: Nr:Datum:Temp:Feuchte:
Aussen-T/F 3776 29-11-2019 05:20:17 6.2 C 34 %
3777 29-11-2019 05:30:17 6.2 C 35 %
3778 29-11-2019 05:40:18 6.1 C 36 %
3779 29-11-2019 05:50:17 6 C 36 %
3780 29-11-2019 06:00:17 6 C 38 %
3781 29-11-2019 06:10:17 5.9 C 38 %
3782 29-11-2019 06:20:17 5.9 C 38 %
3783 29-11-2019 06:30:17 5.9 C 40 %
3784 29-11-2019 06:40:17 5.9 C 40 %
3785 29-11-2019 06:50:17 5.8 C 36 %
3786 29-11-2019 07:00:17 5.7 C 35 %
3787 29-11-2019 07:10:17 5.6 C 37 %
3788 29-11-2019 07:20:17 5.4 C 37 %
3789 29-11-2019 07:30:17 5.4 C 40 %
3790 29-11-2019 07:40:17 5.4 C 37 %
3791 29-11-2019 07:50:17 5.4 C 39 %
3792 29-11-2019 08:00:17 5.3 C 40 %
3793 29-11-2019 08:10:17 5.2 C 40 %
3794 29-11-2019 08:20:17 5.1 C 40 %
3795 29-11-2019 08:30:17 5 C 40 %
3796 29-11-2019 08:40:17 5 C 40 %
3797 29-11-2019 08:50:17 5 C 39 %
3798 29-11-2019 09:00:17 5 C 39 %
3799 29-11-2019 09:10:17 5 C 39 %
3800 29-11-2019 09:20:17 4.8 C 37 %
Sensor: Nr:Datum:Temp:Feuchte:
Aussen-T/F 3801 29-11-2019 09:30:17 4.6 C 37 %
3802 29-11-2019 09:40:17 4.6 C 37 %
3803 29-11-2019 09:50:17 4.7 C 36 %
3804 29-11-2019 10:00:17 4.8 C 32 %
3805 29-11-2019 10:10:17 5.1 C 31 %
3806 29-11-2019 10:20:17 5.8 C 27 %
3807 29-11-2019 10:30:17 5.9 C 29 %
3808 29-11-2019 10:40:17 5.7 C 27 %
3809 29-11-2019 10:50:17 5.4 C 28 %
3810 29-11-2019 11:00:17 5.6 C 30 %
3811 29-11-2019 11:10:17 5.9 C 26 %
3812 29-11-2019 11:20:17 6 C 27 %
3813 29-11-2019 11:30:17 6.4 C 26 %
3814 29-11-2019 11:40:17 7 C 23 %
3815 29-11-2019 11:50:17 7.3 C 21 %
3816 29-11-2019 12:00:17 7.2 C 20 %
3817 29-11-2019 12:10:17 7.2 C 20 %
3818 29-11-2019 12:20:17 7.1 C 20 %
3819 29-11-2019 12:30:17 7.6 C 20 %
3820 29-11-2019 12:40:17 7.2 C 20 %
3821 29-11-2019 12:50:17 6.9 C 21 %
3822 29-11-2019 13:00:17 6.6 C 21 %
3823 29-11-2019 13:10:17 6.2 C 23 %
3824 29-11-2019 13:20:17 5.9 C 25 %
3825 29-11-2019 13:30:17 6.1 C 25 %
Sensor: Nr:Datum:Temp:Feuchte:
Aussen-T/F 3826 29-11-2019 13:40:17 6.1 C 25 %
3827 29-11-2019 13:50:17 6.5 C 20 %
3828 29-11-2019 14:00:17 6.5 C 20 %
3829 29-11-2019 14:10:17 7 C 20 %
3830 29-11-2019 14:20:17 7.3 C 20 %
3831 29-11-2019 14:30:17 7.3 C 20 %
3832 29-11-2019 14:40:17 6.9 C 20 %
3833 29-11-2019 14:50:17 6.5 C 20 %
3834 29-11-2019 15:00:17 7.3 C 20 %
3835 29-11-2019 15:10:17 7.3 C 20 %
3836 29-11-2019 15:20:17 7.2 C 20 %
3837 29-11-2019 15:30:17 7.2 C 20 %
3838 29-11-2019 15:40:17 7.2 C 20 %
3839 29-11-2019 15:50:17 6.7 C 20 %
3840 29-11-2019 16:00:17 6.4 C 20 %
3841 29-11-2019 16:10:17 5.6 C 20 %
3842 29-11-2019 16:20:17 6.2 C 20 %
3843 29-11-2019 16:30:17 6 C 20 %
3844 29-11-2019 16:40:18 5.3 C 20 %
3845 29-11-2019 16:50:17 5.3 C 20 %
3846 29-11-2019 17:00:18 4.5 C 23 %
3847 29-11-2019 17:10:18 4 C 26 %
3848 29-11-2019 17:20:17 4 C 26 %
3849 29-11-2019 17:30:18 3.9 C 27 %
3850 29-11-2019 17:40:18 4 C 26 %
Sensor: Nr:Datum:Temp:Feuchte:
Aussen-T/F 3851 29-11-2019 17:50:17 3.8 C 27 %
3852 29-11-2019 18:00:17 4.2 C 26 %
3853 29-11-2019 18:10:18 4.6 C 25 %
3854 29-11-2019 18:20:17 5 C 21 %
3855 29-11-2019 18:30:17 5 C 21 %
3856 29-11-2019 18:40:17 4.8 C 23 %
3857 29-11-2019 18:50:17 4.7 C 26 %
3858 29-11-2019 19:00:17 4.8 C 21 %
3859 29-11-2019 19:10:17 4.8 C 21 %
3860 29-11-2019 19:20:17 4.8 C 21 %
3861 29-11-2019 19:30:17 4.4 C 25 %
3862 29-11-2019 19:40:17 4.6 C 21 %
3863 29-11-2019 19:50:17 4.4 C 25 %
3864 29-11-2019 20:00:17 4 C 26 %
3865 29-11-2019 20:10:17 4 C 26 %
3866 29-11-2019 20:20:17 4.3 C 25 %
3867 29-11-2019 20:30:17 4.7 C 23 %
3868 29-11-2019 20:40:17 4 C 25 %
3869 29-11-2019 20:50:17 3.9 C 26 %
3870 29-11-2019 21:00:17 3.8 C 28 %
3871 29-11-2019 21:10:17 3.9 C 27 %
3872 29-11-2019 21:20:17 3.8 C 27 %
3873 29-11-2019 21:30:17 3.8 C 28 %
3874 29-11-2019 21:40:17 3.9 C 28 %
3875 29-11-2019 21:50:17 3.2 C 30 %
Sensor: Nr:Datum:Temp:Feuchte:
Aussen-T/F 3876 29-11-2019 22:00:17 3.3 C 29 %
3877 29-11-2019 22:10:17 2.6 C 32 %
3878 29-11-2019 22:20:17 2.1 C 35 %
3879 29-11-2019 22:30:17 1.9 C 37 %
3880 29-11-2019 22:40:17 1.7 C 40 %
3881 29-11-2019 22:50:17 1.8 C 41 %
3882 29-11-2019 23:00:17 1.5 C 38 %
3883 29-11-2019 23:10:17 1.1 C 39 %
3884 29-11-2019 23:20:17 1.3 C 41 %
3885 29-11-2019 23:30:17 1.5 C 42 %
3886 29-11-2019 23:40:17 1.6 C 41 %
3887 29-11-2019 23:50:17 1.7 C 41 %
3888 30-11-2019 00:00:17 1.9 C 40 %
3889 30-11-2019 00:10:17 1.8 C 40 %
3890 30-11-2019 00:20:17 1.8 C 40 %
3891 30-11-2019 00:30:17 2 C 37 %
3892 30-11-2019 00:40:17 1.7 C 37 %
3893 30-11-2019 00:50:17 1.6 C 40 %
3894 30-11-2019 01:00:17 1.3 C 40 %
3895 30-11-2019 01:10:17 1 C 40 %
3896 30-11-2019 01:20:17 0.7 C 41 %
3897 30-11-2019 01:30:17 0.5 C 42 %
3898 30-11-2019 01:40:17 0.7 C 44 %
3899 30-11-2019 01:50:17 0.5 C 43 %
3900 30-11-2019 02:00:17 0.4 C 44 %
Sensor: Nr:Datum:Temp:Feuchte:
Aussen-T/F 3901 30-11-2019 02:10:17 0.9 C 45 %
3902 30-11-2019 02:20:17 1.1 C 44 %
3903 30-11-2019 02:30:17 1.2 C 44 %
3904 30-11-2019 02:40:17 0.8 C 43 %
3905 30-11-2019 02:50:17 0.8 C 43 %
3906 30-11-2019 03:00:17 0.9 C 43 %
3907 30-11-2019 03:10:17 0.7 C 43 %
3908 30-11-2019 03:20:17 0.3 C 41 %
3909 30-11-2019 03:30:17 0.5 C 44 %
3910 30-11-2019 03:40:17 0.2 C 43 %
3911 30-11-2019 03:50:17 0.6 C 44 %
3912 30-11-2019 04:00:17 1 C 44 %
3913 30-11-2019 04:10:17 1.3 C 43 %
3914 30-11-2019 04:20:17 1.3 C 41 %
3915 30-11-2019 04:30:17 1.4 C 40 %
3916 30-11-2019 04:40:17 1.3 C 40 %
3917 30-11-2019 04:50:17 1 C 38 %
3918 30-11-2019 05:00:17 0.6 C 40 %
3919 30-11-2019 05:10:17 1.1 C 41 %
3920 30-11-2019 05:20:17 0.8 C 40 %
3921 30-11-2019 05:30:17 0.3 C 40 %
3922 30-11-2019 05:40:17 -0.5 C 40 %
3923 30-11-2019 05:50:17 -0.7 C 41 %
3924 30-11-2019 06:00:17 -0.7 C 43 %
3925 30-11-2019 06:10:17 -0.9 C 43 %
Sensor: Nr:Datum:Temp:Feuchte:
Aussen-T/F 3926 30-11-2019 06:20:17 -1 C 43 %
3927 30-11-2019 06:30:17 -1.2 C 43 %
3928 30-11-2019 06:40:17 -1.3 C 43 %
3929 30-11-2019 06:50:17 -1.2 C 44 %
3930 30-11-2019 07:00:17 -1.4 C 44 %
3931 30-11-2019 07:10:17 -1.4 C 43 %
3932 30-11-2019 07:20:17 -1.4 C 43 %
3933 30-11-2019 07:30:17 -1.5 C 43 %
3934 30-11-2019 07:40:17 -1.2 C 44 %
3935 30-11-2019 07:50:17 -1.1 C 44 %
3936 30-11-2019 08:00:17 -1 C 44 %
3937 30-11-2019 08:10:17 -0.7 C 44 %
3938 30-11-2019 08:20:17 -0.6 C 44 %
3939 30-11-2019 08:30:17 -0.7 C 44 %
3940 30-11-2019 08:40:17 -0.6 C 44 %
3941 30-11-2019 08:50:17 -0.7 C 44 %
3942 30-11-2019 09:00:17 -0.7 C 44 %
3943 30-11-2019 09:10:17 -0.6 C 44 %
3944 30-11-2019 09:20:17 -0.7 C 44 %
3945 30-11-2019 09:30:17 -0.7 C 44 %
3946 30-11-2019 09:40:17 -0.6 C 44 %
3947 30-11-2019 09:50:17 -0.3 C 44 %
3948 30-11-2019 10:00:17 -0.3 C 44 %
3949 30-11-2019 10:10:17 0 C 44 %
3950 30-11-2019 10:20:17 0.1 C 43 %
Sensor: Nr:Datum:Temp:Feuchte:
Aussen-T/F 3951 30-11-2019 10:30:17 0.4 C 43 %
3952 30-11-2019 10:40:17 0.5 C 43 %
3953 30-11-2019 10:50:17 0.4 C 43 %
3954 30-11-2019 11:00:18 0.5 C 42 %
3955 30-11-2019 11:10:18 0.6 C 42 %
3956 30-11-2019 11:20:17 0.6 C 42 %
3957 30-11-2019 11:30:17 0.4 C 41 %
3958 30-11-2019 11:40:17 0.6 C 41 %
3959 30-11-2019 11:50:17 0.9 C 41 %
3960 30-11-2019 12:00:17 1.1 C 40 %
3961 30-11-2019 12:10:17 0.9 C 38 %
3962 30-11-2019 12:20:17 1.3 C 39 %
3963 30-11-2019 12:30:17 1.4 C 37 %
3964 30-11-2019 12:40:17 1.4 C 36 %
3965 30-11-2019 12:50:17 2.3 C 36 %
3966 30-11-2019 13:00:17 2.4 C 36 %
3967 30-11-2019 13:10:17 1.8 C 36 %
3968 30-11-2019 13:20:17 2.2 C 36 %
3969 30-11-2019 13:30:17 2.1 C 36 %
3970 30-11-2019 13:40:17 2.3 C 36 %
3971 30-11-2019 13:50:17 2.3 C 36 %
3972 30-11-2019 14:00:17 2 C 36 %
3973 30-11-2019 14:10:17 2.1 C 38 %
3974 30-11-2019 14:20:17 2.2 C 38 %
3975 30-11-2019 14:30:17 2.2 C 38 %
Sensor: Nr:Datum:Temp:Feuchte:
Aussen-T/F 3976 30-11-2019 14:40:17 2.4 C 38 %
3977 30-11-2019 14:50:17 2.2 C 37 %
3978 30-11-2019 15:00:17 1.9 C 39 %
3979 30-11-2019 15:10:17 1.8 C 40 %
3980 30-11-2019 15:20:18 1.9 C 41 %
3981 30-11-2019 15:30:17 1.8 C 41 %
3982 30-11-2019 15:40:17 1.6 C 41 %
3983 30-11-2019 15:50:17 1.7 C 42 %
3984 30-11-2019 16:00:17 1.5 C 42 %
3985 30-11-2019 16:10:17 1.5 C 42 %
3986 30-11-2019 16:20:17 1.4 C 43 %
3987 30-11-2019 16:30:17 1.3 C 43 %
3988 30-11-2019 16:40:17 1.3 C 43 %
3989 30-11-2019 16:50:17 1.1 C 43 %
3990 30-11-2019 17:00:17 0.9 C 44 %
3991 30-11-2019 17:10:17 0.9 C 44 %
3992 30-11-2019 17:20:17 0.6 C 44 %
3993 30-11-2019 17:30:17 0.6 C 44 %
3994 30-11-2019 17:40:17 0.6 C 44 %
3995 30-11-2019 17:50:17 0.5 C 44 %
3996 30-11-2019 18:00:17 0.4 C 44 %
3997 30-11-2019 18:10:17 0.3 C 44 %
3998 30-11-2019 18:20:17 0.3 C 44 %
3999 30-11-2019 18:30:17 0.4 C 44 %
4000 30-11-2019 18:40:17 0.4 C 44 %
Sensor: Nr:Datum:Temp:Feuchte:
Aussen-T/F 4001 30-11-2019 18:50:17 0.4 C 44 %
4002 30-11-2019 19:00:17 0.2 C 44 %
4003 30-11-2019 19:10:17 0 C 44 %
4004 30-11-2019 19:20:17 0 C 44 %
4005 30-11-2019 19:30:17 0 C 44 %
4006 30-11-2019 19:40:17 -0.1 C 44 %
4007 30-11-2019 19:50:17 -0.1 C 44 %
4008 30-11-2019 20:00:17 -0.2 C 44 %
4009 30-11-2019 20:10:18 -0.2 C 44 %
4010 30-11-2019 20:20:18 -0.2 C 44 %
4011 30-11-2019 20:30:17 -0.2 C 44 %
4012 30-11-2019 20:40:17 -0.4 C 44 %
4013 30-11-2019 20:50:17 -0.3 C 44 %
4014 30-11-2019 21:00:17 -0.2 C 44 %
4015 30-11-2019 21:10:17 -0.3 C 44 %
4016 30-11-2019 21:20:17 -0.3 C 44 %
4017 30-11-2019 21:30:17 -0.4 C 44 %
4018 30-11-2019 21:40:17 -0.2 C 44 %
4019 30-11-2019 21:50:17 -0.3 C 44 %
4020 30-11-2019 22:00:17 -0.3 C 44 %
4021 30-11-2019 22:10:17 -0.3 C 44 %
4022 30-11-2019 22:20:17 -0.3 C 44 %
4023 30-11-2019 22:30:17 -0.1 C 44 %
4024 30-11-2019 22:40:17 0 C 44 %
4025 30-11-2019 22:50:17 0 C 44 %
Sensor: Nr:Datum:Temp:Feuchte:
Aussen-T/F 4026 30-11-2019 23:00:17 0 C 44 %
4027 30-11-2019 23:10:17 0 C 44 %
4028 30-11-2019 23:20:17 -0.1 C 44 %
4029 30-11-2019 23:30:17 -0.4 C 43 %
4030 30-11-2019 23:40:17 -0.5 C 43 %
4031 30-11-2019 23:50:17 -0.4 C 43 %
4032 01-12-2019 00:00:17 -0.2 C 43 %
4033 01-12-2019 00:10:17 -0.3 C 43 %
4034 01-12-2019 00:20:17 -0.3 C 43 %
4035 01-12-2019 00:30:17 -0.3 C 43 %
4036 01-12-2019 00:40:17 -0.3 C 43 %
4037 01-12-2019 00:50:18 -0.2 C 43 %
4038 01-12-2019 01:00:17 0 C 44 %
4039 01-12-2019 01:10:17 -0.1 C 43 %
4040 01-12-2019 01:20:17 -0.1 C 43 %
4041 01-12-2019 01:30:17 -0.1 C 43 %
4042 01-12-2019 01:40:17 -0.1 C 43 %
4043 01-12-2019 01:50:17 -0.2 C 43 %
4044 01-12-2019 02:00:17 -0.1 C 43 %
4045 01-12-2019 02:10:17 -0.2 C 43 %
4046 01-12-2019 02:20:17 -0.2 C 43 %
4047 01-12-2019 02:30:17 -0.2 C 43 %
4048 01-12-2019 02:40:17 -0.3 C 43 %
4049 01-12-2019 02:50:17 -0.2 C 43 %
4050 01-12-2019 03:00:17 -0.3 C 43 %
Sensor: Nr:Datum:Temp:Feuchte:
Aussen-T/F 4051 01-12-2019 03:10:17 -0.3 C 43 %
4052 01-12-2019 03:20:17 -0.4 C 43 %
4053 01-12-2019 03:30:17 -0.4 C 43 %
4054 01-12-2019 03:40:17 -0.4 C 43 %
4055 01-12-2019 03:50:17 -0.4 C 43 %
4056 01-12-2019 04:00:17 -0.4 C 43 %
4057 01-12-2019 04:10:17 -0.8 C 42 %
4058 01-12-2019 04:20:17 -1.1 C 42 %
4059 01-12-2019 04:30:17 -1.3 C 42 %
4060 01-12-2019 04:40:17 -0.9 C 43 %
4061 01-12-2019 04:50:17 -0.9 C 43 %
4062 01-12-2019 05:00:17 -0.7 C 43 %
4063 01-12-2019 05:10:17 -0.8 C 43 %
4064 01-12-2019 05:20:17 -0.9 C 43 %
4065 01-12-2019 05:30:17 -1.1 C 43 %
4066 01-12-2019 05:40:17 -1 C 43 %
4067 01-12-2019 05:50:17 -0.9 C 43 %
4068 01-12-2019 06:00:17 -1 C 43 %
4069 01-12-2019 06:10:17 -1.1 C 43 %
4070 01-12-2019 06:20:17 -1.3 C 43 %
4071 01-12-2019 06:30:17 -1 C 43 %
4072 01-12-2019 06:40:17 -0.9 C 43 %
4073 01-12-2019 06:50:17 -0.9 C 43 %
4074 01-12-2019 07:00:17 -0.8 C 43 %
4075 01-12-2019 07:10:17 -0.7 C 43 %
Sensor: Nr:Datum:Temp:Feuchte:
Aussen-T/F 4076 01-12-2019 07:20:17 -0.5 C 43 %
4077 01-12-2019 07:30:17 -0.5 C 43 %
4078 01-12-2019 07:40:17 -0.3 C 43 %
4079 01-12-2019 07:50:17 -0.2 C 43 %
4080 01-12-2019 08:00:17 -0.1 C 43 %
4081 01-12-2019 08:10:17 -0.1 C 43 %
4082 01-12-2019 08:20:17 -0.2 C 43 %
4083 01-12-2019 08:30:17 -0.2 C 43 %
4084 01-12-2019 08:40:17 -0.2 C 43 %
4085 01-12-2019 08:50:17 0 C 43 %
4086 01-12-2019 09:00:17 0 C 42 %
4087 01-12-2019 09:10:17 0.2 C 42 %
4088 01-12-2019 09:20:17 0.1 C 42 %
4089 01-12-2019 09:30:17 0.1 C 42 %
4090 01-12-2019 09:40:17 0.2 C 41 %
4091 01-12-2019 09:50:17 0.3 C 41 %
4092 01-12-2019 10:00:17 0.5 C 41 %
4093 01-12-2019 10:10:17 0.6 C 41 %
4094 01-12-2019 10:20:17 0.7 C 40 %
4095 01-12-2019 10:30:17 0.8 C 39 %
4096 01-12-2019 10:40:17 1 C 38 %
4097 01-12-2019 10:50:17 1.1 C 37 %
4098 01-12-2019 11:00:17 1.4 C 36 %
4099 01-12-2019 11:10:17 1.9 C 34 %
4100 01-12-2019 11:20:17 2.1 C 32 %
Sensor: Nr:Datum:Temp:Feuchte:
Aussen-T/F 4101 01-12-2019 11:30:17 2.7 C 30 %
4102 01-12-2019 11:40:17 3 C 27 %
4103 01-12-2019 11:50:17 2.9 C 20 %
4104 01-12-2019 12:00:17 3 C 21 %
4105 01-12-2019 12:10:17 3.1 C 20 %
4106 01-12-2019 12:20:17 3.3 C 20 %
4107 01-12-2019 12:30:18 3.3 C 20 %
4108 01-12-2019 12:40:18 3.3 C 20 %
4109 01-12-2019 12:50:18 3.4 C 20 %
4110 01-12-2019 13:00:17 3.3 C 20 %
4111 01-12-2019 13:10:17 3.4 C 20 %
4112 01-12-2019 13:20:18 3.5 C 20 %
4113 01-12-2019 13:30:18 3.5 C 20 %
4114 01-12-2019 13:40:18 3.6 C 20 %
4115 01-12-2019 13:50:17 3.8 C 20 %
4116 01-12-2019 14:00:17 3.9 C 20 %
4117 01-12-2019 14:10:18 3.9 C 20 %
4118 01-12-2019 14:20:18 3.7 C 20 %
4119 01-12-2019 14:30:17 3.7 C 20 %
4120 01-12-2019 14:40:17 3.6 C 20 %
4121 01-12-2019 14:50:17 3.6 C 20 %
4122 01-12-2019 15:00:17 3.5 C 20 %
4123 01-12-2019 15:10:17 3.3 C 20 %
4124 01-12-2019 15:20:17 3.2 C 21 %
4125 01-12-2019 15:30:17 3 C 20 %
Sensor: Nr:Datum:Temp:Feuchte:
Aussen-T/F 4126 01-12-2019 15:40:17 3 C 21 %
4127 01-12-2019 15:50:17 2.7 C 25 %
4128 01-12-2019 16:00:17 2.6 C 25 %
4129 01-12-2019 16:10:17 2.5 C 25 %
4130 01-12-2019 16:20:17 2.4 C 25 %
4131 01-12-2019 16:30:18 2.4 C 25 %
4132 01-12-2019 16:40:18 2.2 C 25 %
4133 01-12-2019 16:50:18 2.2 C 25 %
4134 01-12-2019 17:00:18 2.2 C 25 %
4135 01-12-2019 17:10:18 2.2 C 25 %
4136 01-12-2019 17:20:17 2.3 C 25 %
4137 01-12-2019 17:30:17 2.3 C 25 %
4138 01-12-2019 17:40:17 2.3 C 25 %
4139 01-12-2019 17:50:17 2.3 C 25 %
4140 01-12-2019 18:00:17 2.3 C 25 %
4141 01-12-2019 18:10:17 2.3 C 25 %
4142 01-12-2019 18:20:17 2.3 C 25 %
4143 01-12-2019 18:30:17 2.3 C 25 %
4144 01-12-2019 18:40:17 2.3 C 25 %
4145 01-12-2019 18:50:17 2.3 C 23 %
4146 01-12-2019 19:00:17 2.3 C 23 %
4147 01-12-2019 19:10:18 2.4 C 25 %
4148 01-12-2019 19:20:17 2.3 C 25 %
4149 01-12-2019 19:30:17 2.3 C 25 %
4150 01-12-2019 19:40:17 2.3 C 25 %
Sensor: Nr:Datum:Temp:Feuchte:
Aussen-T/F 4151 01-12-2019 19:50:17 2.2 C 26 %
4152 01-12-2019 20:00:17 2.5 C 25 %
4153 01-12-2019 20:10:17 2.2 C 25 %
4154 01-12-2019 20:20:17 2.1 C 25 %
4155 01-12-2019 20:30:18 2.1 C 25 %
4156 01-12-2019 20:40:18 2.1 C 25 %
4157 01-12-2019 20:50:17 2 C 27 %
4158 01-12-2019 21:00:17 1.9 C 27 %
4159 01-12-2019 21:10:17 1.8 C 28 %
4160 01-12-2019 21:20:17 1.6 C 30 %
4161 01-12-2019 21:30:18 1.5 C 29 %
4162 01-12-2019 21:40:18 1.6 C 28 %
4163 01-12-2019 21:50:17 1.6 C 28 %
4164 01-12-2019 22:00:17 1.5 C 29 %
4165 01-12-2019 22:10:17 1.4 C 29 %
4166 01-12-2019 22:20:17 1.4 C 30 %
4167 01-12-2019 22:30:18 1.3 C 28 %
4168 01-12-2019 22:40:18 1.2 C 29 %
4169 01-12-2019 22:50:17 1.1 C 29 %
4170 01-12-2019 23:00:17 0.8 C 30 %
4171 01-12-2019 23:10:17 0.8 C 30 %
4172 01-12-2019 23:20:18 0.7 C 30 %
4173 01-12-2019 23:30:17 0.5 C 32 %
4174 01-12-2019 23:40:17 0.3 C 33 %
4175 01-12-2019 23:50:17 0.2 C 33 %
Sensor: Nr:Datum:Temp:Feuchte:
G-T/H 1 03-11-2019 00:08:17 12.9 C 75 %
2 03-11-2019 00:18:18 12.8 C 75 %
3 03-11-2019 00:28:18 12.9 C 75 %
4 03-11-2019 00:38:17 12.8 C 75 %
5 03-11-2019 00:48:17 12.8 C 75 %
6 03-11-2019 00:58:17 12.8 C 75 %
7 03-11-2019 01:08:17 12.8 C 75 %
8 03-11-2019 01:18:17 12.8 C 75 %
9 03-11-2019 01:28:17 12.8 C 75 %
10 03-11-2019 01:38:17 12.8 C 75 %
11 03-11-2019 01:48:17 12.8 C 75 %
12 03-11-2019 01:58:17 12.8 C 75 %
13 03-11-2019 02:08:17 12.8 C 75 %
14 03-11-2019 02:18:17 12.8 C 75 %
15 03-11-2019 02:28:17 12.8 C 75 %
16 03-11-2019 02:38:17 12.8 C 75 %
17 03-11-2019 02:48:17 12.8 C 75 %
18 03-11-2019 02:58:17 12.8 C 75 %
19 03-11-2019 03:08:17 12.8 C 75 %
20 03-11-2019 03:18:17 12.8 C 75 %
21 03-11-2019 03:28:17 12.8 C 75 %
22 03-11-2019 03:38:17 12.8 C 75 %
23 03-11-2019 03:48:18 12.8 C 75 %
24 03-11-2019 03:58:18 12.7 C 75 %
25 03-11-2019 04:08:17 12.7 C 75 %
Sensor: Nr:Datum:Temp:Feuchte:
G-T/H 26 03-11-2019 04:18:17 12.7 C 75 %
27 03-11-2019 04:28:17 12.7 C 75 %
28 03-11-2019 04:38:17 12.7 C 75 %
29 03-11-2019 04:48:17 12.7 C 75 %
30 03-11-2019 04:58:17 12.7 C 75 %
31 03-11-2019 05:08:18 12.7 C 75 %
32 03-11-2019 05:18:17 12.7 C 75 %
33 03-11-2019 05:28:17 12.7 C 75 %
34 03-11-2019 05:38:17 12.8 C 75 %
35 03-11-2019 05:48:18 12.8 C 75 %
36 03-11-2019 05:58:18 12.7 C 75 %
37 03-11-2019 06:08:17 12.7 C 75 %
38 03-11-2019 06:18:17 12.7 C 75 %
39 03-11-2019 06:28:17 12.7 C 75 %
40 03-11-2019 06:38:17 12.7 C 75 %
41 03-11-2019 06:48:17 12.7 C 75 %
42 03-11-2019 06:58:18 12.7 C 75 %
43 03-11-2019 07:08:17 12.7 C 75 %
44 03-11-2019 07:18:17 12.7 C 75 %
45 03-11-2019 07:28:17 12.7 C 75 %
46 03-11-2019 07:38:17 12.7 C 75 %
47 03-11-2019 07:48:17 12.7 C 75 %
48 03-11-2019 07:58:17 12.7 C 75 %
49 03-11-2019 08:08:17 12.7 C 75 %
50 03-11-2019 08:18:17 12.7 C 75 %
Sensor: Nr:Datum:Temp:Feuchte:
G-T/H 51 03-11-2019 08:28:17 12.7 C 75 %
52 03-11-2019 08:38:17 12.7 C 75 %
53 03-11-2019 08:48:17 12.7 C 75 %
54 03-11-2019 08:58:17 12.7 C 75 %
55 03-11-2019 09:08:17 12.7 C 76 %
56 03-11-2019 09:18:17 12.7 C 76 %
57 03-11-2019 09:28:17 12.7 C 76 %
58 03-11-2019 09:38:17 12.7 C 76 %
59 03-11-2019 09:48:17 12.7 C 76 %
60 03-11-2019 09:58:17 12.7 C 76 %
61 03-11-2019 10:08:17 12.7 C 76 %
62 03-11-2019 10:18:17 12.7 C 76 %
63 03-11-2019 10:28:17 12.7 C 76 %
64 03-11-2019 10:38:18 12.8 C 76 %
65 03-11-2019 10:48:17 12.7 C 76 %
66 03-11-2019 10:58:17 12.7 C 76 %
67 03-11-2019 11:08:17 12.7 C 76 %
68 03-11-2019 11:18:17 12.7 C 76 %
69 03-11-2019 11:28:17 12.7 C 76 %
70 03-11-2019 11:38:17 12.7 C 76 %
71 03-11-2019 11:48:17 12.8 C 76 %
72 03-11-2019 11:58:17 12.8 C 76 %
73 03-11-2019 12:08:17 12.8 C 76 %
74 03-11-2019 12:18:17 12.8 C 76 %
75 03-11-2019 12:28:17 12.8 C 76 %
Sensor: Nr:Datum:Temp:Feuchte:
G-T/H 76 03-11-2019 12:38:17 12.8 C 76 %
77 03-11-2019 12:48:17 12.9 C 76 %
78 03-11-2019 12:58:17 12.8 C 76 %
79 03-11-2019 13:08:17 12.8 C 76 %
80 03-11-2019 13:18:17 12.9 C 76 %
81 03-11-2019 13:28:17 12.9 C 76 %
82 03-11-2019 13:38:17 12.9 C 76 %
83 03-11-2019 13:48:17 12.9 C 76 %
84 03-11-2019 13:58:17 12.9 C 76 %
85 03-11-2019 14:08:17 13 C 75 %
86 03-11-2019 14:18:17 13 C 75 %
87 03-11-2019 14:28:17 13 C 75 %
88 03-11-2019 14:38:17 13 C 75 %
89 03-11-2019 14:48:17 13 C 75 %
90 03-11-2019 14:58:17 13 C 75 %
91 03-11-2019 15:08:17 13 C 75 %
92 03-11-2019 15:18:17 13 C 75 %
93 03-11-2019 15:28:17 13 C 75 %
94 03-11-2019 15:38:17 13 C 75 %
95 03-11-2019 15:48:17 13 C 75 %
96 03-11-2019 15:58:17 13.1 C 75 %
97 03-11-2019 16:08:17 13 C 75 %
98 03-11-2019 16:18:17 13.1 C 75 %
99 03-11-2019 16:28:17 13.1 C 75 %
100 03-11-2019 16:38:17 13.1 C 75 %
Sensor: Nr:Datum:Temp:Feuchte:
G-T/H 101 03-11-2019 16:48:17 13.1 C 75 %
102 03-11-2019 16:58:17 13.1 C 75 %
103 03-11-2019 17:08:18 13.1 C 75 %
104 03-11-2019 17:18:17 13.1 C 75 %
105 03-11-2019 17:28:17 13.1 C 76 %
106 03-11-2019 17:38:17 13.1 C 76 %
107 03-11-2019 17:48:17 13.1 C 76 %
108 03-11-2019 17:58:17 13.2 C 76 %
109 03-11-2019 18:08:17 13.2 C 76 %
110 03-11-2019 18:18:17 13.2 C 76 %
111 03-11-2019 18:28:17 13.2 C 76 %
112 03-11-2019 18:38:18 13.2 C 76 %
113 03-11-2019 18:48:17 13.2 C 76 %
114 03-11-2019 18:58:17 13.2 C 76 %
115 03-11-2019 19:08:17 13.2 C 76 %
116 03-11-2019 19:18:17 13.2 C 76 %
117 03-11-2019 19:28:17 13.2 C 76 %
118 03-11-2019 19:38:17 13.2 C 76 %
119 03-11-2019 19:48:18 13.2 C 76 %
120 03-11-2019 19:58:18 13.2 C 76 %
121 03-11-2019 20:08:17 13.2 C 76 %
122 03-11-2019 20:18:17 13.2 C 76 %
123 03-11-2019 20:28:17 13.2 C 76 %
124 03-11-2019 20:38:17 13.2 C 76 %
125 03-11-2019 20:48:18 13.2 C 76 %
Sensor: Nr:Datum:Temp:Feuchte:
G-T/H 126 03-11-2019 20:58:18 13.2 C 76 %
127 03-11-2019 21:08:17 13.2 C 76 %
128 03-11-2019 21:18:17 13.2 C 76 %
129 03-11-2019 21:28:17 13.3 C 76 %
130 03-11-2019 21:38:17 13.2 C 76 %
131 03-11-2019 21:48:18 13.2 C 76 %
132 03-11-2019 21:58:18 13.2 C 76 %
133 03-11-2019 22:08:17 13.2 C 76 %
134 03-11-2019 22:18:17 13.2 C 76 %
135 03-11-2019 22:28:17 13.2 C 76 %
136 03-11-2019 22:38:17 13.2 C 76 %
137 03-11-2019 22:48:17 13.2 C 76 %
138 03-11-2019 22:58:17 13.2 C 76 %
139 03-11-2019 23:08:18 13.2 C 76 %
140 03-11-2019 23:18:17 13.2 C 76 %
141 03-11-2019 23:28:18 13.2 C 76 %
142 03-11-2019 23:38:17 13.2 C 76 %
143 03-11-2019 23:48:17 13.2 C 76 %
144 03-11-2019 23:58:17 13.2 C 76 %
145 04-11-2019 00:08:17 13.2 C 76 %
146 04-11-2019 00:18:17 13.2 C 76 %
147 04-11-2019 00:28:17 13.2 C 76 %
148 04-11-2019 00:38:18 13.2 C 76 %
149 04-11-2019 00:48:17 13.2 C 76 %
150 04-11-2019 00:58:17 13.2 C 76 %
Sensor: Nr:Datum:Temp:Feuchte:
G-T/H 151 04-11-2019 01:08:17 13.2 C 76 %
152 04-11-2019 01:18:17 13.2 C 76 %
153 04-11-2019 01:28:17 13.2 C 76 %
154 04-11-2019 01:38:17 13.2 C 76 %
155 04-11-2019 01:48:17 13.2 C 76 %
156 04-11-2019 01:58:18 13.2 C 76 %
157 04-11-2019 02:08:17 13.2 C 76 %
158 04-11-2019 02:18:17 13.2 C 76 %
159 04-11-2019 02:28:17 13.2 C 76 %
160 04-11-2019 02:38:17 13.2 C 76 %
161 04-11-2019 02:48:18 13.2 C 76 %
162 04-11-2019 02:58:18 13.2 C 76 %
163 04-11-2019 03:08:17 13.1 C 75 %
164 04-11-2019 03:18:17 13.1 C 75 %
165 04-11-2019 03:28:17 13.1 C 75 %
166 04-11-2019 03:38:17 13.1 C 75 %
167 04-11-2019 03:48:17 13.1 C 75 %
168 04-11-2019 03:58:17 13.1 C 75 %
169 04-11-2019 04:08:17 13.1 C 75 %
170 04-11-2019 04:18:17 13.1 C 75 %
171 04-11-2019 04:28:17 13.1 C 75 %
172 04-11-2019 04:38:17 13.1 C 75 %
173 04-11-2019 04:48:17 13.1 C 75 %
174 04-11-2019 04:58:17 13.1 C 75 %
175 04-11-2019 05:08:17 13.1 C 75 %
Sensor: Nr:Datum:Temp:Feuchte:
G-T/H 176 04-11-2019 05:18:17 13.1 C 75 %
177 04-11-2019 05:28:17 13.1 C 75 %
178 04-11-2019 05:38:17 13.1 C 75 %
179 04-11-2019 05:48:17 13.1 C 75 %
180 04-11-2019 05:58:17 13.1 C 75 %
181 04-11-2019 06:08:18 13.1 C 75 %
182 04-11-2019 06:18:17 13 C 75 %
183 04-11-2019 06:28:17 13 C 75 %
184 04-11-2019 06:38:17 13 C 75 %
185 04-11-2019 06:48:18 13 C 75 %
186 04-11-2019 06:58:18 13 C 75 %
187 04-11-2019 07:08:17 13 C 75 %
188 04-11-2019 07:18:17 13 C 75 %
189 04-11-2019 07:28:17 13 C 75 %
190 04-11-2019 07:38:17 13 C 75 %
191 04-11-2019 07:48:17 13 C 75 %
192 04-11-2019 07:58:17 13 C 75 %
193 04-11-2019 08:08:18 13 C 75 %
194 04-11-2019 08:18:17 12.9 C 76 %
195 04-11-2019 08:28:17 12.9 C 76 %
196 04-11-2019 08:38:17 12.9 C 76 %
197 04-11-2019 08:48:17 12.9 C 76 %
198 04-11-2019 08:58:17 12.9 C 76 %
199 04-11-2019 09:08:17 12.9 C 76 %
200 04-11-2019 09:18:17 12.9 C 76 %
Sensor: Nr:Datum:Temp:Feuchte:
G-T/H 201 04-11-2019 09:28:17 12.9 C 76 %
202 04-11-2019 09:38:17 12.9 C 76 %
203 04-11-2019 09:48:17 12.9 C 76 %
204 04-11-2019 09:58:17 12.9 C 76 %
205 04-11-2019 10:08:17 12.9 C 76 %
206 04-11-2019 10:18:17 12.9 C 76 %
207 04-11-2019 10:28:17 12.9 C 76 %
208 04-11-2019 10:38:17 12.9 C 76 %
209 04-11-2019 10:48:17 12.9 C 76 %
210 04-11-2019 10:58:17 12.8 C 76 %
211 04-11-2019 11:08:17 12.9 C 76 %
212 04-11-2019 11:18:17 12.9 C 76 %
213 04-11-2019 11:28:17 12.9 C 76 %
214 04-11-2019 11:38:17 12.9 C 76 %
215 04-11-2019 11:48:17 12.9 C 76 %
216 04-11-2019 11:58:17 12.9 C 76 %
217 04-11-2019 12:08:17 12.9 C 76 %
218 04-11-2019 12:18:17 12.9 C 76 %
219 04-11-2019 12:28:17 12.9 C 76 %
220 04-11-2019 12:38:17 12.9 C 76 %
221 04-11-2019 12:48:17 12.9 C 76 %
222 04-11-2019 12:58:17 12.8 C 76 %
223 04-11-2019 13:08:18 12.9 C 76 %
224 04-11-2019 13:18:17 12.9 C 76 %
225 04-11-2019 13:28:17 12.9 C 76 %
Sensor: Nr:Datum:Temp:Feuchte:
G-T/H 226 04-11-2019 13:38:17 12.9 C 76 %
227 04-11-2019 13:48:17 12.9 C 76 %
228 04-11-2019 13:58:17 12.9 C 76 %
229 04-11-2019 14:08:17 12.9 C 76 %
230 04-11-2019 14:18:17 12.9 C 76 %
231 04-11-2019 14:28:17 12.9 C 76 %
232 04-11-2019 14:38:17 12.9 C 76 %
233 04-11-2019 14:48:17 12.9 C 76 %
234 04-11-2019 14:58:17 13 C 75 %
235 04-11-2019 15:08:17 13 C 75 %
236 04-11-2019 15:18:17 13 C 75 %
237 04-11-2019 15:28:17 13 C 75 %
238 04-11-2019 15:38:17 13 C 75 %
239 04-11-2019 15:48:18 13 C 75 %
240 04-11-2019 15:58:18 13 C 75 %
241 04-11-2019 16:08:17 13 C 75 %
242 04-11-2019 16:18:17 13 C 75 %
243 04-11-2019 16:28:17 13 C 75 %
244 04-11-2019 16:38:17 13 C 75 %
245 04-11-2019 16:48:17 13 C 75 %
246 04-11-2019 16:58:17 13 C 75 %
247 04-11-2019 17:08:17 13 C 75 %
248 04-11-2019 17:18:17 13 C 75 %
249 04-11-2019 17:28:17 13 C 75 %
250 04-11-2019 17:38:17 13 C 75 %
Sensor: Nr:Datum:Temp:Feuchte:
G-T/H 251 04-11-2019 17:48:18 13 C 75 %
252 04-11-2019 17:58:18 13 C 75 %
253 04-11-2019 18:08:17 13 C 75 %
254 04-11-2019 18:18:17 13 C 75 %
255 04-11-2019 18:28:17 13 C 75 %
256 04-11-2019 18:38:17 13 C 75 %
257 04-11-2019 18:48:17 12.9 C 76 %
258 04-11-2019 18:58:17 12.9 C 76 %
259 04-11-2019 19:08:17 12.9 C 76 %
260 04-11-2019 19:18:17 12.9 C 76 %
261 04-11-2019 19:28:17 12.9 C 76 %
262 04-11-2019 19:38:17 12.9 C 76 %
263 04-11-2019 19:48:18 12.9 C 76 %
264 04-11-2019 19:58:18 12.9 C 76 %
265 04-11-2019 20:08:17 12.9 C 76 %
266 04-11-2019 20:18:17 12.9 C 76 %
267 04-11-2019 20:28:17 12.9 C 76 %
268 04-11-2019 20:38:17 12.9 C 76 %
269 04-11-2019 20:48:17 12.9 C 76 %
270 04-11-2019 20:58:17 12.9 C 76 %
271 04-11-2019 21:08:18 12.8 C 76 %
272 04-11-2019 21:18:17 12.9 C 76 %
273 04-11-2019 21:28:17 12.9 C 76 %
274 04-11-2019 21:38:17 12.8 C 76 %
275 04-11-2019 21:48:17 12.9 C 76 %
Sensor: Nr:Datum:Temp:Feuchte:
G-T/H 276 04-11-2019 21:58:17 12.8 C 76 %
277 04-11-2019 22:08:17 12.8 C 76 %
278 04-11-2019 22:18:17 12.8 C 76 %
279 04-11-2019 22:28:17 12.8 C 76 %
280 04-11-2019 22:38:17 12.8 C 76 %
281 04-11-2019 22:48:17 12.8 C 76 %
282 04-11-2019 22:58:17 12.8 C 76 %
283 04-11-2019 23:08:17 12.7 C 76 %
284 04-11-2019 23:18:17 12.8 C 76 %
285 04-11-2019 23:28:17 12.8 C 76 %
286 04-11-2019 23:38:17 12.8 C 76 %
287 04-11-2019 23:48:17 12.8 C 76 %
288 04-11-2019 23:58:17 12.8 C 76 %
289 05-11-2019 00:08:17 12.8 C 76 %
290 05-11-2019 00:18:17 12.8 C 76 %
291 05-11-2019 00:28:17 12.8 C 76 %
292 05-11-2019 00:38:18 12.8 C 76 %
293 05-11-2019 00:48:17 12.7 C 76 %
294 05-11-2019 00:58:17 12.7 C 76 %
295 05-11-2019 01:08:17 12.7 C 76 %
296 05-11-2019 01:18:17 12.8 C 76 %
297 05-11-2019 01:28:17 12.7 C 76 %
298 05-11-2019 01:38:17 12.7 C 76 %
299 05-11-2019 01:48:17 12.7 C 76 %
300 05-11-2019 01:58:17 12.7 C 76 %
Sensor: Nr:Datum:Temp:Feuchte:
G-T/H 301 05-11-2019 02:08:17 12.7 C 76 %
302 05-11-2019 02:18:17 12.7 C 76 %
303 05-11-2019 02:28:17 12.7 C 76 %
304 05-11-2019 02:38:17 12.7 C 76 %
305 05-11-2019 02:48:17 12.7 C 76 %
306 05-11-2019 02:58:17 12.7 C 76 %
307 05-11-2019 03:08:17 12.7 C 76 %
308 05-11-2019 03:18:17 12.7 C 76 %
309 05-11-2019 03:28:17 12.7 C 76 %
310 05-11-2019 03:38:17 12.7 C 76 %
311 05-11-2019 03:48:17 12.7 C 76 %
312 05-11-2019 03:58:17 12.6 C 76 %
313 05-11-2019 04:08:18 12.6 C 76 %
314 05-11-2019 04:18:17 12.7 C 76 %
315 05-11-2019 04:28:17 12.6 C 76 %
316 05-11-2019 04:38:17 12.6 C 76 %
317 05-11-2019 04:48:17 12.6 C 76 %
318 05-11-2019 04:58:17 12.6 C 76 %
319 05-11-2019 05:08:17 12.6 C 76 %
320 05-11-2019 05:18:17 12.6 C 76 %
321 05-11-2019 05:28:17 12.5 C 76 %
322 05-11-2019 05:38:17 12.6 C 76 %
323 05-11-2019 05:48:17 12.6 C 76 %
324 05-11-2019 05:58:17 12.6 C 76 %
325 05-11-2019 06:08:17 12.6 C 76 %
Sensor: Nr:Datum:Temp:Feuchte:
G-T/H 326 05-11-2019 06:18:17 12.6 C 76 %
327 05-11-2019 06:28:17 12.6 C 76 %
328 05-11-2019 06:38:17 12.6 C 76 %
329 05-11-2019 06:48:17 12.6 C 76 %
330 05-11-2019 06:58:17 12.6 C 76 %
331 05-11-2019 07:08:18 12.5 C 76 %
332 05-11-2019 07:18:17 12.5 C 76 %
333 05-11-2019 07:28:17 12.5 C 76 %
334 05-11-2019 07:38:17 12.5 C 76 %
335 05-11-2019 07:48:17 12.5 C 76 %
336 05-11-2019 07:58:17 12.5 C 76 %
337 05-11-2019 08:08:17 12.5 C 76 %
338 05-11-2019 08:18:17 12.5 C 76 %
339 05-11-2019 08:28:17 12.5 C 76 %
340 05-11-2019 08:38:18 12.5 C 76 %
341 05-11-2019 08:48:17 12.5 C 76 %
342 05-11-2019 08:58:17 12.5 C 75 %
343 05-11-2019 09:08:17 12.5 C 75 %
344 05-11-2019 09:18:17 12.5 C 76 %
345 05-11-2019 09:28:17 12.5 C 76 %
346 05-11-2019 09:38:17 12.5 C 75 %
347 05-11-2019 09:48:18 12.5 C 75 %
348 05-11-2019 09:58:18 12.5 C 75 %
349 05-11-2019 10:08:17 12.4 C 76 %
350 05-11-2019 10:18:17 12.5 C 75 %
Sensor: Nr:Datum:Temp:Feuchte:
G-T/H 351 05-11-2019 10:28:17 12.5 C 76 %
352 05-11-2019 10:38:17 12.5 C 75 %
353 05-11-2019 10:48:18 12.5 C 76 %
354 05-11-2019 10:58:18 12.5 C 76 %
355 05-11-2019 11:08:17 12.5 C 76 %
356 05-11-2019 11:18:17 12.5 C 76 %
357 05-11-2019 11:28:17 12.5 C 75 %
358 05-11-2019 11:38:17 12.5 C 76 %
359 05-11-2019 11:48:17 12.5 C 76 %
360 05-11-2019 11:58:17 12.5 C 76 %
361 05-11-2019 12:08:18 12.4 C 76 %
362 05-11-2019 12:18:17 12.5 C 76 %
363 05-11-2019 12:28:17 12.5 C 76 %
364 05-11-2019 12:38:17 12.5 C 76 %
365 05-11-2019 12:48:17 12.5 C 76 %
366 05-11-2019 12:58:17 12.5 C 76 %
367 05-11-2019 13:08:17 12.5 C 76 %
368 05-11-2019 13:18:17 12.5 C 76 %
369 05-11-2019 13:28:17 12.5 C 76 %
370 05-11-2019 13:38:17 12.5 C 76 %
371 05-11-2019 13:48:17 12.5 C 76 %
372 05-11-2019 13:58:17 12.5 C 76 %
373 05-11-2019 14:08:17 12.5 C 76 %
374 05-11-2019 14:18:17 12.6 C 76 %
375 05-11-2019 14:28:17 12.6 C 76 %
Sensor: Nr:Datum:Temp:Feuchte:
G-T/H 376 05-11-2019 14:38:17 12.5 C 76 %
377 05-11-2019 14:48:17 12.5 C 76 %
378 05-11-2019 14:58:17 12.5 C 76 %
379 05-11-2019 15:08:17 12.6 C 76 %
380 05-11-2019 15:18:17 12.6 C 76 %
381 05-11-2019 15:28:17 12.6 C 76 %
382 05-11-2019 15:38:17 12.6 C 76 %
383 05-11-2019 15:48:17 12.6 C 76 %
384 05-11-2019 15:58:17 12.6 C 76 %
385 05-11-2019 16:08:17 12.6 C 76 %
386 05-11-2019 16:18:17 12.6 C 76 %
387 05-11-2019 16:28:17 12.6 C 76 %
388 05-11-2019 16:38:17 12.6 C 76 %
389 05-11-2019 16:48:17 12.6 C 76 %
390 05-11-2019 16:58:17 12.6 C 76 %
391 05-11-2019 17:08:17 12.6 C 76 %
392 05-11-2019 17:18:17 12.6 C 76 %
393 05-11-2019 17:28:17 12.6 C 76 %
394 05-11-2019 17:38:17 12.6 C 76 %
395 05-11-2019 17:48:17 12.6 C 76 %
396 05-11-2019 17:58:17 12.6 C 76 %
397 05-11-2019 18:08:18 12.6 C 76 %
398 05-11-2019 18:18:17 12.7 C 76 %
399 05-11-2019 18:28:17 12.6 C 76 %
400 05-11-2019 18:38:17 12.6 C 76 %
Sensor: Nr:Datum:Temp:Feuchte:
G-T/H 401 05-11-2019 18:48:17 12.6 C 76 %
402 05-11-2019 18:58:17 12.6 C 76 %
403 05-11-2019 19:08:18 12.6 C 76 %
404 05-11-2019 19:18:17 12.7 C 76 %
405 05-11-2019 19:28:17 12.6 C 76 %
406 05-11-2019 19:38:17 12.7 C 76 %
407 05-11-2019 19:48:17 12.7 C 76 %
408 05-11-2019 19:58:17 12.6 C 76 %
409 05-11-2019 20:08:18 12.6 C 76 %
410 05-11-2019 20:18:17 12.6 C 76 %
411 05-11-2019 20:28:17 12.6 C 76 %
412 05-11-2019 20:38:17 12.6 C 76 %
413 05-11-2019 20:48:17 12.6 C 76 %
414 05-11-2019 20:58:17 12.5 C 76 %
415 05-11-2019 21:08:18 12.6 C 76 %
416 05-11-2019 21:18:17 12.6 C 76 %
417 05-11-2019 21:28:17 12.6 C 76 %
418 05-11-2019 21:38:17 12.6 C 76 %
419 05-11-2019 21:48:17 12.6 C 76 %
420 05-11-2019 21:58:17 12.6 C 76 %
421 05-11-2019 22:08:18 12.6 C 76 %
422 05-11-2019 22:18:17 12.5 C 76 %
423 05-11-2019 22:28:18 12.5 C 76 %
424 05-11-2019 22:38:17 12.5 C 76 %
425 05-11-2019 22:48:17 12.5 C 76 %
Sensor: Nr:Datum:Temp:Feuchte:
G-T/H 426 05-11-2019 22:58:17 12.6 C 76 %
427 05-11-2019 23:08:17 12.6 C 76 %
428 05-11-2019 23:18:17 12.5 C 76 %
429 05-11-2019 23:28:17 12.5 C 76 %
430 05-11-2019 23:38:17 12.5 C 76 %
431 05-11-2019 23:48:17 12.5 C 76 %
432 05-11-2019 23:58:17 12.5 C 76 %
433 06-11-2019 00:08:17 12.5 C 76 %
434 06-11-2019 00:18:17 12.5 C 76 %
435 06-11-2019 00:28:17 12.5 C 76 %
436 06-11-2019 00:38:17 12.5 C 76 %
437 06-11-2019 00:48:17 12.5 C 76 %
438 06-11-2019 00:58:17 12.5 C 76 %
439 06-11-2019 01:08:17 12.5 C 76 %
440 06-11-2019 01:18:17 12.5 C 76 %
441 06-11-2019 01:28:17 12.5 C 76 %
442 06-11-2019 01:38:17 12.5 C 76 %
443 06-11-2019 01:48:17 12.4 C 76 %
444 06-11-2019 01:58:17 12.4 C 76 %
445 06-11-2019 02:08:17 12.4 C 76 %
446 06-11-2019 02:18:17 12.4 C 76 %
447 06-11-2019 02:28:17 12.4 C 76 %
448 06-11-2019 02:38:17 12.4 C 76 %
449 06-11-2019 02:48:17 12.4 C 76 %
450 06-11-2019 02:58:17 12.4 C 76 %
Sensor: Nr:Datum:Temp:Feuchte:
G-T/H 451 06-11-2019 03:08:18 12.5 C 76 %
452 06-11-2019 03:18:18 12.4 C 76 %
453 06-11-2019 03:28:18 12.4 C 76 %
454 06-11-2019 03:38:17 12.4 C 76 %
455 06-11-2019 03:48:17 12.4 C 75 %
456 06-11-2019 03:58:17 12.4 C 75 %
457 06-11-2019 04:08:17 12.4 C 75 %
458 06-11-2019 04:18:17 12.4 C 75 %
459 06-11-2019 04:28:17 12.3 C 75 %
460 06-11-2019 04:38:17 12.4 C 75 %
461 06-11-2019 04:48:17 12.3 C 75 %
462 06-11-2019 04:58:17 12.4 C 75 %
463 06-11-2019 05:08:17 12.3 C 75 %
464 06-11-2019 05:18:17 12.3 C 75 %
465 06-11-2019 05:28:17 12.3 C 75 %
466 06-11-2019 05:38:17 12.3 C 75 %
467 06-11-2019 05:48:18 12.4 C 75 %
468 06-11-2019 05:58:18 12.3 C 75 %
469 06-11-2019 06:08:17 12.3 C 75 %
470 06-11-2019 06:18:17 12.3 C 75 %
471 06-11-2019 06:28:17 12.3 C 75 %
472 06-11-2019 06:38:18 12.3 C 75 %
473 06-11-2019 06:48:17 12.3 C 75 %
474 06-11-2019 06:58:17 12.3 C 75 %
475 06-11-2019 07:08:17 12.3 C 75 %
Sensor: Nr:Datum:Temp:Feuchte:
G-T/H 476 06-11-2019 07:18:17 12.3 C 75 %
477 06-11-2019 07:28:17 12.3 C 75 %
478 06-11-2019 07:38:17 12.3 C 75 %
479 06-11-2019 07:48:17 12.3 C 75 %
480 06-11-2019 07:58:17 12.2 C 75 %
481 06-11-2019 08:08:17 12.2 C 75 %
482 06-11-2019 08:18:17 12.2 C 75 %
483 06-11-2019 08:28:17 12.2 C 75 %
484 06-11-2019 08:38:18 12.2 C 75 %
485 06-11-2019 08:48:17 12.2 C 75 %
486 06-11-2019 08:58:17 12.2 C 75 %
487 06-11-2019 09:08:17 12.2 C 75 %
488 06-11-2019 09:18:17 12.2 C 75 %
489 06-11-2019 09:28:17 12.2 C 75 %
490 06-11-2019 09:38:17 12.2 C 75 %
491 06-11-2019 09:48:17 12.2 C 75 %
492 06-11-2019 09:58:17 12.2 C 75 %
493 06-11-2019 10:08:17 12.2 C 75 %
494 06-11-2019 10:18:17 12.2 C 75 %
495 06-11-2019 10:28:17 12.2 C 75 %
496 06-11-2019 10:38:18 12.2 C 75 %
497 06-11-2019 10:48:17 12.2 C 75 %
498 06-11-2019 10:58:17 12.2 C 75 %
499